<?xml version="1.0" encoding="UTF-8" standalone="no" ?>
<gpx xmlns="http://www.topografix.com/GPX/1/1" xmlns:xsi="http://www.w3.org/2001/XMLSchema-instance" xsi:schemaLocation="http://www.topografix.com/GPX/1/1 http://www.topografix.com/GPX/1/1/gpx.xsd" version="1.1" creator="VisuGPX - https://www.visugpx.com">
  <metadata>
    <name>Fontevraud à l'envers 152 km</name>
    <desc><![CDATA[Fontevraud à l'envers 152 km]]></desc>
  </metadata>
  <trk>
    <name><![CDATA[11712032-Fontevraud à l'envers]]></name>
    <trkseg>
      <trkpt lat="47.43414" lon="-0.55432">
        <ele>34</ele>
        <time>2022-04-12T12:19:06Z</time>
      </trkpt>
      <trkpt lat="47.43205" lon="-0.55505">
        <ele>33</ele>
        <time>2022-04-12T12:19:44Z</time>
      </trkpt>
      <trkpt lat="47.42935" lon="-0.55603">
        <ele>25</ele>
        <time>2022-04-12T12:20:34Z</time>
      </trkpt>
      <trkpt lat="47.42831" lon="-0.55634">
        <ele>24</ele>
        <time>2022-04-12T12:20:53Z</time>
      </trkpt>
      <trkpt lat="47.42786" lon="-0.55629">
        <ele>25</ele>
        <time>2022-04-12T12:21:01Z</time>
      </trkpt>
      <trkpt lat="47.42749" lon="-0.55655">
        <ele>26</ele>
        <time>2022-04-12T12:21:08Z</time>
      </trkpt>
      <trkpt lat="47.42564" lon="-0.55705">
        <ele>28</ele>
        <time>2022-04-12T12:21:41Z</time>
      </trkpt>
      <trkpt lat="47.42538" lon="-0.5571">
        <ele>28</ele>
        <time>2022-04-12T12:21:46Z</time>
      </trkpt>
      <trkpt lat="47.42537" lon="-0.55703">
        <ele>28</ele>
        <time>2022-04-12T12:21:47Z</time>
      </trkpt>
      <trkpt lat="47.42533" lon="-0.55698">
        <ele>28</ele>
        <time>2022-04-12T12:21:48Z</time>
      </trkpt>
      <trkpt lat="47.42523" lon="-0.55702">
        <ele>28</ele>
        <time>2022-04-12T12:21:50Z</time>
      </trkpt>
      <trkpt lat="47.42384" lon="-0.55373">
        <ele>25</ele>
        <time>2022-04-12T12:22:36Z</time>
      </trkpt>
      <trkpt lat="47.42378" lon="-0.55376">
        <ele>25</ele>
        <time>2022-04-12T12:22:37Z</time>
      </trkpt>
      <trkpt lat="47.42366" lon="-0.55362">
        <ele>24</ele>
        <time>2022-04-12T12:22:40Z</time>
      </trkpt>
      <trkpt lat="47.42361" lon="-0.55306">
        <ele>23</ele>
        <time>2022-04-12T12:22:47Z</time>
      </trkpt>
      <trkpt lat="47.42359" lon="-0.55239">
        <ele>22</ele>
        <time>2022-04-12T12:22:55Z</time>
      </trkpt>
      <trkpt lat="47.42346" lon="-0.55077">
        <ele>21</ele>
        <time>2022-04-12T12:23:15Z</time>
      </trkpt>
      <trkpt lat="47.42342" lon="-0.55055">
        <ele>20</ele>
        <time>2022-04-12T12:23:17Z</time>
      </trkpt>
      <trkpt lat="47.42322" lon="-0.55006">
        <ele>19</ele>
        <time>2022-04-12T12:23:24Z</time>
      </trkpt>
      <trkpt lat="47.42323" lon="-0.54989">
        <ele>19</ele>
        <time>2022-04-12T12:23:26Z</time>
      </trkpt>
      <trkpt lat="47.42328" lon="-0.54981">
        <ele>19</ele>
        <time>2022-04-12T12:23:28Z</time>
      </trkpt>
      <trkpt lat="47.42469" lon="-0.54831">
        <ele>19</ele>
        <time>2022-04-12T12:23:59Z</time>
      </trkpt>
      <trkpt lat="47.42488" lon="-0.54803">
        <ele>19</ele>
        <time>2022-04-12T12:24:03Z</time>
      </trkpt>
      <trkpt lat="47.42917" lon="-0.53309">
        <ele>20</ele>
        <time>2022-04-12T12:27:19Z</time>
      </trkpt>
      <trkpt lat="47.4298" lon="-0.53079">
        <ele>20</ele>
        <time>2022-04-12T12:27:49Z</time>
      </trkpt>
      <trkpt lat="47.43035" lon="-0.52894">
        <ele>20</ele>
        <time>2022-04-12T12:28:13Z</time>
      </trkpt>
      <trkpt lat="47.43047" lon="-0.52818">
        <ele>19</ele>
        <time>2022-04-12T12:28:22Z</time>
      </trkpt>
      <trkpt lat="47.42991" lon="-0.52797">
        <ele>20</ele>
        <time>2022-04-12T12:28:33Z</time>
      </trkpt>
      <trkpt lat="47.42968" lon="-0.52792">
        <ele>20</ele>
        <time>2022-04-12T12:28:37Z</time>
      </trkpt>
      <trkpt lat="47.42915" lon="-0.52787">
        <ele>21</ele>
        <time>2022-04-12T12:28:46Z</time>
      </trkpt>
      <trkpt lat="47.42892" lon="-0.52781">
        <ele>21</ele>
        <time>2022-04-12T12:28:50Z</time>
      </trkpt>
      <trkpt lat="47.42798" lon="-0.52735">
        <ele>23</ele>
        <time>2022-04-12T12:29:08Z</time>
      </trkpt>
      <trkpt lat="47.42772" lon="-0.52719">
        <ele>22</ele>
        <time>2022-04-12T12:29:13Z</time>
      </trkpt>
      <trkpt lat="47.42493" lon="-0.52521">
        <ele>23</ele>
        <time>2022-04-12T12:30:08Z</time>
      </trkpt>
      <trkpt lat="47.4249" lon="-0.52509">
        <ele>22</ele>
        <time>2022-04-12T12:30:10Z</time>
      </trkpt>
      <trkpt lat="47.42484" lon="-0.52501">
        <ele>22</ele>
        <time>2022-04-12T12:30:11Z</time>
      </trkpt>
      <trkpt lat="47.42471" lon="-0.52504">
        <ele>22</ele>
        <time>2022-04-12T12:30:13Z</time>
      </trkpt>
      <trkpt lat="47.42469" lon="-0.52509">
        <ele>23</ele>
        <time>2022-04-12T12:30:14Z</time>
      </trkpt>
      <trkpt lat="47.4245" lon="-0.52492">
        <ele>23</ele>
        <time>2022-04-12T12:30:18Z</time>
      </trkpt>
      <trkpt lat="47.42384" lon="-0.52442">
        <ele>24</ele>
        <time>2022-04-12T12:30:31Z</time>
      </trkpt>
      <trkpt lat="47.42303" lon="-0.52386">
        <ele>23</ele>
        <time>2022-04-12T12:30:47Z</time>
      </trkpt>
      <trkpt lat="47.42287" lon="-0.52377">
        <ele>23</ele>
        <time>2022-04-12T12:30:50Z</time>
      </trkpt>
      <trkpt lat="47.42272" lon="-0.52372">
        <ele>22</ele>
        <time>2022-04-12T12:30:53Z</time>
      </trkpt>
      <trkpt lat="47.4187" lon="-0.5234">
        <ele>22</ele>
        <time>2022-04-12T12:32:05Z</time>
      </trkpt>
      <trkpt lat="47.41863" lon="-0.52339">
        <ele>22</ele>
        <time>2022-04-12T12:32:06Z</time>
      </trkpt>
      <trkpt lat="47.41854" lon="-0.52334">
        <ele>22</ele>
        <time>2022-04-12T12:32:07Z</time>
      </trkpt>
      <trkpt lat="47.41853" lon="-0.52318">
        <ele>22</ele>
        <time>2022-04-12T12:32:09Z</time>
      </trkpt>
      <trkpt lat="47.41848" lon="-0.52313">
        <ele>21</ele>
        <time>2022-04-12T12:32:11Z</time>
      </trkpt>
      <trkpt lat="47.41842" lon="-0.52312">
        <ele>21</ele>
        <time>2022-04-12T12:32:12Z</time>
      </trkpt>
      <trkpt lat="47.41837" lon="-0.52315">
        <ele>22</ele>
        <time>2022-04-12T12:32:13Z</time>
      </trkpt>
      <trkpt lat="47.41833" lon="-0.52331">
        <ele>22</ele>
        <time>2022-04-12T12:32:15Z</time>
      </trkpt>
      <trkpt lat="47.41824" lon="-0.52335">
        <ele>22</ele>
        <time>2022-04-12T12:32:16Z</time>
      </trkpt>
      <trkpt lat="47.41807" lon="-0.52336">
        <ele>22</ele>
        <time>2022-04-12T12:32:19Z</time>
      </trkpt>
      <trkpt lat="47.41517" lon="-0.52313">
        <ele>24</ele>
        <time>2022-04-12T12:33:11Z</time>
      </trkpt>
      <trkpt lat="47.41476" lon="-0.52312">
        <ele>23</ele>
        <time>2022-04-12T12:33:18Z</time>
      </trkpt>
      <trkpt lat="47.41386" lon="-0.52331">
        <ele>22</ele>
        <time>2022-04-12T12:33:34Z</time>
      </trkpt>
      <trkpt lat="47.41194" lon="-0.52385">
        <ele>19</ele>
        <time>2022-04-12T12:34:09Z</time>
      </trkpt>
      <trkpt lat="47.41068" lon="-0.52428">
        <ele>18</ele>
        <time>2022-04-12T12:34:32Z</time>
      </trkpt>
      <trkpt lat="47.40939" lon="-0.5248">
        <ele>21</ele>
        <time>2022-04-12T12:34:56Z</time>
      </trkpt>
      <trkpt lat="47.40932" lon="-0.5241">
        <ele>21</ele>
        <time>2022-04-12T12:35:05Z</time>
      </trkpt>
      <trkpt lat="47.40941" lon="-0.52337">
        <ele>20</ele>
        <time>2022-04-12T12:35:13Z</time>
      </trkpt>
      <trkpt lat="47.40995" lon="-0.52072">
        <ele>19</ele>
        <time>2022-04-12T12:35:47Z</time>
      </trkpt>
      <trkpt lat="47.41061" lon="-0.51626">
        <ele>20</ele>
        <time>2022-04-12T12:36:42Z</time>
      </trkpt>
      <trkpt lat="47.41074" lon="-0.51551">
        <ele>18</ele>
        <time>2022-04-12T12:36:51Z</time>
      </trkpt>
      <trkpt lat="47.41087" lon="-0.51513">
        <ele>18</ele>
        <time>2022-04-12T12:36:56Z</time>
      </trkpt>
      <trkpt lat="47.411" lon="-0.51489">
        <ele>18</ele>
        <time>2022-04-12T12:37:00Z</time>
      </trkpt>
      <trkpt lat="47.41157" lon="-0.51413">
        <ele>21</ele>
        <time>2022-04-12T12:37:14Z</time>
      </trkpt>
      <trkpt lat="47.41199" lon="-0.51351">
        <ele>20</ele>
        <time>2022-04-12T12:37:24Z</time>
      </trkpt>
      <trkpt lat="47.41365" lon="-0.51067">
        <ele>22</ele>
        <time>2022-04-12T12:38:09Z</time>
      </trkpt>
      <trkpt lat="47.41378" lon="-0.51038">
        <ele>22</ele>
        <time>2022-04-12T12:38:14Z</time>
      </trkpt>
      <trkpt lat="47.41391" lon="-0.50991">
        <ele>21</ele>
        <time>2022-04-12T12:38:20Z</time>
      </trkpt>
      <trkpt lat="47.41414" lon="-0.50815">
        <ele>22</ele>
        <time>2022-04-12T12:38:41Z</time>
      </trkpt>
      <trkpt lat="47.41415" lon="-0.50766">
        <ele>24</ele>
        <time>2022-04-12T12:38:47Z</time>
      </trkpt>
      <trkpt lat="47.41406" lon="-0.50693">
        <ele>24</ele>
        <time>2022-04-12T12:38:56Z</time>
      </trkpt>
      <trkpt lat="47.41366" lon="-0.50459">
        <ele>19</ele>
        <time>2022-04-12T12:39:25Z</time>
      </trkpt>
      <trkpt lat="47.4136" lon="-0.504">
        <ele>18</ele>
        <time>2022-04-12T12:39:32Z</time>
      </trkpt>
      <trkpt lat="47.41361" lon="-0.50348">
        <ele>19</ele>
        <time>2022-04-12T12:39:39Z</time>
      </trkpt>
      <trkpt lat="47.41358" lon="-0.50314">
        <ele>19</ele>
        <time>2022-04-12T12:39:43Z</time>
      </trkpt>
      <trkpt lat="47.41336" lon="-0.50219">
        <ele>20</ele>
        <time>2022-04-12T12:39:55Z</time>
      </trkpt>
      <trkpt lat="47.41329" lon="-0.50179">
        <ele>20</ele>
        <time>2022-04-12T12:40:00Z</time>
      </trkpt>
      <trkpt lat="47.41313" lon="-0.49881">
        <ele>18</ele>
        <time>2022-04-12T12:40:36Z</time>
      </trkpt>
      <trkpt lat="47.41304" lon="-0.49766">
        <ele>18</ele>
        <time>2022-04-12T12:40:50Z</time>
      </trkpt>
      <trkpt lat="47.41193" lon="-0.49196">
        <ele>20</ele>
        <time>2022-04-12T12:42:01Z</time>
      </trkpt>
      <trkpt lat="47.41172" lon="-0.49118">
        <ele>22</ele>
        <time>2022-04-12T12:42:11Z</time>
      </trkpt>
      <trkpt lat="47.41012" lon="-0.4863">
        <ele>18</ele>
        <time>2022-04-12T12:43:16Z</time>
      </trkpt>
      <trkpt lat="47.40982" lon="-0.48551">
        <ele>18</ele>
        <time>2022-04-12T12:43:27Z</time>
      </trkpt>
      <trkpt lat="47.40913" lon="-0.48392">
        <ele>21</ele>
        <time>2022-04-12T12:43:50Z</time>
      </trkpt>
      <trkpt lat="47.40882" lon="-0.48306">
        <ele>20</ele>
        <time>2022-04-12T12:44:02Z</time>
      </trkpt>
      <trkpt lat="47.40872" lon="-0.48259">
        <ele>20</ele>
        <time>2022-04-12T12:44:08Z</time>
      </trkpt>
      <trkpt lat="47.40857" lon="-0.48147">
        <ele>23</ele>
        <time>2022-04-12T12:44:22Z</time>
      </trkpt>
      <trkpt lat="47.4086" lon="-0.48137">
        <ele>22</ele>
        <time>2022-04-12T12:44:23Z</time>
      </trkpt>
      <trkpt lat="47.40857" lon="-0.48132">
        <ele>23</ele>
        <time>2022-04-12T12:44:24Z</time>
      </trkpt>
      <trkpt lat="47.40853" lon="-0.48131">
        <ele>23</ele>
        <time>2022-04-12T12:44:24Z</time>
      </trkpt>
      <trkpt lat="47.40847" lon="-0.48073">
        <ele>23</ele>
        <time>2022-04-12T12:44:31Z</time>
      </trkpt>
      <trkpt lat="47.4084" lon="-0.48033">
        <ele>24</ele>
        <time>2022-04-12T12:44:36Z</time>
      </trkpt>
      <trkpt lat="47.40811" lon="-0.47938">
        <ele>25</ele>
        <time>2022-04-12T12:44:49Z</time>
      </trkpt>
      <trkpt lat="47.40791" lon="-0.47888">
        <ele>25</ele>
        <time>2022-04-12T12:44:56Z</time>
      </trkpt>
      <trkpt lat="47.40776" lon="-0.47864">
        <ele>25</ele>
        <time>2022-04-12T12:45:00Z</time>
      </trkpt>
      <trkpt lat="47.40769" lon="-0.47817">
        <ele>25</ele>
        <time>2022-04-12T12:45:06Z</time>
      </trkpt>
      <trkpt lat="47.40766" lon="-0.47761">
        <ele>24</ele>
        <time>2022-04-12T12:45:12Z</time>
      </trkpt>
      <trkpt lat="47.40776" lon="-0.47618">
        <ele>23</ele>
        <time>2022-04-12T12:45:30Z</time>
      </trkpt>
      <trkpt lat="47.40771" lon="-0.47592">
        <ele>23</ele>
        <time>2022-04-12T12:45:33Z</time>
      </trkpt>
      <trkpt lat="47.40756" lon="-0.47555">
        <ele>24</ele>
        <time>2022-04-12T12:45:38Z</time>
      </trkpt>
      <trkpt lat="47.40701" lon="-0.47467">
        <ele>23</ele>
        <time>2022-04-12T12:45:53Z</time>
      </trkpt>
      <trkpt lat="47.40649" lon="-0.47408">
        <ele>22</ele>
        <time>2022-04-12T12:46:04Z</time>
      </trkpt>
      <trkpt lat="47.40607" lon="-0.47373">
        <ele>24</ele>
        <time>2022-04-12T12:46:13Z</time>
      </trkpt>
      <trkpt lat="47.40593" lon="-0.47356">
        <ele>24</ele>
        <time>2022-04-12T12:46:16Z</time>
      </trkpt>
      <trkpt lat="47.4055" lon="-0.47254">
        <ele>25</ele>
        <time>2022-04-12T12:46:31Z</time>
      </trkpt>
      <trkpt lat="47.40434" lon="-0.46996">
        <ele>31</ele>
        <time>2022-04-12T12:47:08Z</time>
      </trkpt>
      <trkpt lat="47.40405" lon="-0.46943">
        <ele>31</ele>
        <time>2022-04-12T12:47:16Z</time>
      </trkpt>
      <trkpt lat="47.40366" lon="-0.46885">
        <ele>32</ele>
        <time>2022-04-12T12:47:26Z</time>
      </trkpt>
      <trkpt lat="47.40357" lon="-0.46868">
        <ele>32</ele>
        <time>2022-04-12T12:47:29Z</time>
      </trkpt>
      <trkpt lat="47.4035" lon="-0.46848">
        <ele>32</ele>
        <time>2022-04-12T12:47:31Z</time>
      </trkpt>
      <trkpt lat="47.40337" lon="-0.46775">
        <ele>30</ele>
        <time>2022-04-12T12:47:40Z</time>
      </trkpt>
      <trkpt lat="47.40316" lon="-0.46621">
        <ele>26</ele>
        <time>2022-04-12T12:47:59Z</time>
      </trkpt>
      <trkpt lat="47.40299" lon="-0.46543">
        <ele>24</ele>
        <time>2022-04-12T12:48:09Z</time>
      </trkpt>
      <trkpt lat="47.40274" lon="-0.46463">
        <ele>22</ele>
        <time>2022-04-12T12:48:20Z</time>
      </trkpt>
      <trkpt lat="47.40222" lon="-0.46322">
        <ele>24</ele>
        <time>2022-04-12T12:48:39Z</time>
      </trkpt>
      <trkpt lat="47.4019" lon="-0.46227">
        <ele>25</ele>
        <time>2022-04-12T12:48:52Z</time>
      </trkpt>
      <trkpt lat="47.40173" lon="-0.46105">
        <ele>28</ele>
        <time>2022-04-12T12:49:07Z</time>
      </trkpt>
      <trkpt lat="47.40107" lon="-0.45878">
        <ele>28</ele>
        <time>2022-04-12T12:49:37Z</time>
      </trkpt>
      <trkpt lat="47.40037" lon="-0.45613">
        <ele>30</ele>
        <time>2022-04-12T12:50:11Z</time>
      </trkpt>
      <trkpt lat="47.40022" lon="-0.45573">
        <ele>30</ele>
        <time>2022-04-12T12:50:16Z</time>
      </trkpt>
      <trkpt lat="47.39982" lon="-0.45485">
        <ele>30</ele>
        <time>2022-04-12T12:50:29Z</time>
      </trkpt>
      <trkpt lat="47.39952" lon="-0.45399">
        <ele>30</ele>
        <time>2022-04-12T12:50:41Z</time>
      </trkpt>
      <trkpt lat="47.39922" lon="-0.4524">
        <ele>28</ele>
        <time>2022-04-12T12:51:01Z</time>
      </trkpt>
      <trkpt lat="47.39889" lon="-0.45101">
        <ele>27</ele>
        <time>2022-04-12T12:51:18Z</time>
      </trkpt>
      <trkpt lat="47.39866" lon="-0.45058">
        <ele>28</ele>
        <time>2022-04-12T12:51:25Z</time>
      </trkpt>
      <trkpt lat="47.39811" lon="-0.4492">
        <ele>31</ele>
        <time>2022-04-12T12:51:44Z</time>
      </trkpt>
      <trkpt lat="47.39716" lon="-0.44716">
        <ele>33</ele>
        <time>2022-04-12T12:52:14Z</time>
      </trkpt>
      <trkpt lat="47.3968" lon="-0.44612">
        <ele>33</ele>
        <time>2022-04-12T12:52:28Z</time>
      </trkpt>
      <trkpt lat="47.39669" lon="-0.44593">
        <ele>33</ele>
        <time>2022-04-12T12:52:31Z</time>
      </trkpt>
      <trkpt lat="47.39661" lon="-0.44584">
        <ele>33</ele>
        <time>2022-04-12T12:52:33Z</time>
      </trkpt>
      <trkpt lat="47.39663" lon="-0.44577">
        <ele>33</ele>
        <time>2022-04-12T12:52:34Z</time>
      </trkpt>
      <trkpt lat="47.39661" lon="-0.44562">
        <ele>34</ele>
        <time>2022-04-12T12:52:36Z</time>
      </trkpt>
      <trkpt lat="47.39654" lon="-0.44553">
        <ele>34</ele>
        <time>2022-04-12T12:52:37Z</time>
      </trkpt>
      <trkpt lat="47.39645" lon="-0.44552">
        <ele>34</ele>
        <time>2022-04-12T12:52:39Z</time>
      </trkpt>
      <trkpt lat="47.39638" lon="-0.44508">
        <ele>35</ele>
        <time>2022-04-12T12:52:44Z</time>
      </trkpt>
      <trkpt lat="47.39626" lon="-0.44468">
        <ele>35</ele>
        <time>2022-04-12T12:52:50Z</time>
      </trkpt>
      <trkpt lat="47.39472" lon="-0.44115">
        <ele>54</ele>
        <time>2022-04-12T12:53:40Z</time>
      </trkpt>
      <trkpt lat="47.39454" lon="-0.44067">
        <ele>56</ele>
        <time>2022-04-12T12:53:47Z</time>
      </trkpt>
      <trkpt lat="47.39437" lon="-0.44013">
        <ele>59</ele>
        <time>2022-04-12T12:53:54Z</time>
      </trkpt>
      <trkpt lat="47.39412" lon="-0.439">
        <ele>64</ele>
        <time>2022-04-12T12:54:08Z</time>
      </trkpt>
      <trkpt lat="47.39399" lon="-0.43806">
        <ele>72</ele>
        <time>2022-04-12T12:54:20Z</time>
      </trkpt>
      <trkpt lat="47.39388" lon="-0.4369">
        <ele>78</ele>
        <time>2022-04-12T12:54:34Z</time>
      </trkpt>
      <trkpt lat="47.39381" lon="-0.43661">
        <ele>79</ele>
        <time>2022-04-12T12:54:38Z</time>
      </trkpt>
      <trkpt lat="47.39291" lon="-0.43421">
        <ele>80</ele>
        <time>2022-04-12T12:55:11Z</time>
      </trkpt>
      <trkpt lat="47.39255" lon="-0.43317">
        <ele>81</ele>
        <time>2022-04-12T12:55:25Z</time>
      </trkpt>
      <trkpt lat="47.39208" lon="-0.43196">
        <ele>80</ele>
        <time>2022-04-12T12:55:42Z</time>
      </trkpt>
      <trkpt lat="47.3916" lon="-0.43057">
        <ele>78</ele>
        <time>2022-04-12T12:56:01Z</time>
      </trkpt>
      <trkpt lat="47.39151" lon="-0.43021">
        <ele>78</ele>
        <time>2022-04-12T12:56:05Z</time>
      </trkpt>
      <trkpt lat="47.39154" lon="-0.43012">
        <ele>78</ele>
        <time>2022-04-12T12:56:06Z</time>
      </trkpt>
      <trkpt lat="47.39153" lon="-0.43007">
        <ele>78</ele>
        <time>2022-04-12T12:56:07Z</time>
      </trkpt>
      <trkpt lat="47.39148" lon="-0.43003">
        <ele>78</ele>
        <time>2022-04-12T12:56:08Z</time>
      </trkpt>
      <trkpt lat="47.39145" lon="-0.43004">
        <ele>78</ele>
        <time>2022-04-12T12:56:09Z</time>
      </trkpt>
      <trkpt lat="47.39142" lon="-0.42993">
        <ele>78</ele>
        <time>2022-04-12T12:56:10Z</time>
      </trkpt>
      <trkpt lat="47.39113" lon="-0.42929">
        <ele>77</ele>
        <time>2022-04-12T12:56:19Z</time>
      </trkpt>
      <trkpt lat="47.39037" lon="-0.42723">
        <ele>79</ele>
        <time>2022-04-12T12:56:47Z</time>
      </trkpt>
      <trkpt lat="47.3898" lon="-0.4256">
        <ele>82</ele>
        <time>2022-04-12T12:57:10Z</time>
      </trkpt>
      <trkpt lat="47.38822" lon="-0.42085">
        <ele>79</ele>
        <time>2022-04-12T12:58:13Z</time>
      </trkpt>
      <trkpt lat="47.38813" lon="-0.42045">
        <ele>79</ele>
        <time>2022-04-12T12:58:18Z</time>
      </trkpt>
      <trkpt lat="47.38806" lon="-0.41976">
        <ele>79</ele>
        <time>2022-04-12T12:58:27Z</time>
      </trkpt>
      <trkpt lat="47.38796" lon="-0.41691">
        <ele>77</ele>
        <time>2022-04-12T12:59:01Z</time>
      </trkpt>
      <trkpt lat="47.38797" lon="-0.41561">
        <ele>79</ele>
        <time>2022-04-12T12:59:17Z</time>
      </trkpt>
      <trkpt lat="47.38808" lon="-0.41291">
        <ele>81</ele>
        <time>2022-04-12T12:59:49Z</time>
      </trkpt>
      <trkpt lat="47.38813" lon="-0.41229">
        <ele>80</ele>
        <time>2022-04-12T12:59:57Z</time>
      </trkpt>
      <trkpt lat="47.38823" lon="-0.41158">
        <ele>80</ele>
        <time>2022-04-12T13:00:06Z</time>
      </trkpt>
      <trkpt lat="47.38863" lon="-0.40952">
        <ele>81</ele>
        <time>2022-04-12T13:00:32Z</time>
      </trkpt>
      <trkpt lat="47.38867" lon="-0.4091">
        <ele>80</ele>
        <time>2022-04-12T13:00:37Z</time>
      </trkpt>
      <trkpt lat="47.38868" lon="-0.40857">
        <ele>80</ele>
        <time>2022-04-12T13:00:43Z</time>
      </trkpt>
      <trkpt lat="47.38863" lon="-0.40798">
        <ele>81</ele>
        <time>2022-04-12T13:00:50Z</time>
      </trkpt>
      <trkpt lat="47.38843" lon="-0.40664">
        <ele>82</ele>
        <time>2022-04-12T13:01:07Z</time>
      </trkpt>
      <trkpt lat="47.38833" lon="-0.40392">
        <ele>81</ele>
        <time>2022-04-12T13:01:40Z</time>
      </trkpt>
      <trkpt lat="47.38802" lon="-0.40269">
        <ele>81</ele>
        <time>2022-04-12T13:01:55Z</time>
      </trkpt>
      <trkpt lat="47.38746" lon="-0.4007">
        <ele>85</ele>
        <time>2022-04-12T13:02:21Z</time>
      </trkpt>
      <trkpt lat="47.38701" lon="-0.39956">
        <ele>87</ele>
        <time>2022-04-12T13:02:37Z</time>
      </trkpt>
      <trkpt lat="47.38638" lon="-0.39816">
        <ele>87</ele>
        <time>2022-04-12T13:02:57Z</time>
      </trkpt>
      <trkpt lat="47.38573" lon="-0.39683">
        <ele>84</ele>
        <time>2022-04-12T13:03:17Z</time>
      </trkpt>
      <trkpt lat="47.38341" lon="-0.3925">
        <ele>84</ele>
        <time>2022-04-12T13:04:24Z</time>
      </trkpt>
      <trkpt lat="47.37943" lon="-0.38488">
        <ele>83</ele>
        <time>2022-04-12T13:06:20Z</time>
      </trkpt>
      <trkpt lat="47.37898" lon="-0.38377">
        <ele>83</ele>
        <time>2022-04-12T13:06:35Z</time>
      </trkpt>
      <trkpt lat="47.37622" lon="-0.37634">
        <ele>88</ele>
        <time>2022-04-12T13:08:17Z</time>
      </trkpt>
      <trkpt lat="47.37267" lon="-0.36693">
        <ele>79</ele>
        <time>2022-04-12T13:10:27Z</time>
      </trkpt>
      <trkpt lat="47.37253" lon="-0.36667">
        <ele>78</ele>
        <time>2022-04-12T13:10:31Z</time>
      </trkpt>
      <trkpt lat="47.3723" lon="-0.36633">
        <ele>78</ele>
        <time>2022-04-12T13:10:37Z</time>
      </trkpt>
      <trkpt lat="47.37204" lon="-0.36608">
        <ele>77</ele>
        <time>2022-04-12T13:10:42Z</time>
      </trkpt>
      <trkpt lat="47.37182" lon="-0.36592">
        <ele>77</ele>
        <time>2022-04-12T13:10:47Z</time>
      </trkpt>
      <trkpt lat="47.37148" lon="-0.36576">
        <ele>76</ele>
        <time>2022-04-12T13:10:53Z</time>
      </trkpt>
      <trkpt lat="47.36954" lon="-0.36511">
        <ele>70</ele>
        <time>2022-04-12T13:11:29Z</time>
      </trkpt>
      <trkpt lat="47.36916" lon="-0.36493">
        <ele>68</ele>
        <time>2022-04-12T13:11:36Z</time>
      </trkpt>
      <trkpt lat="47.36891" lon="-0.36471">
        <ele>64</ele>
        <time>2022-04-12T13:11:41Z</time>
      </trkpt>
      <trkpt lat="47.36875" lon="-0.36441">
        <ele>61</ele>
        <time>2022-04-12T13:11:45Z</time>
      </trkpt>
      <trkpt lat="47.36767" lon="-0.36136">
        <ele>54</ele>
        <time>2022-04-12T13:12:27Z</time>
      </trkpt>
      <trkpt lat="47.36745" lon="-0.36082">
        <ele>52</ele>
        <time>2022-04-12T13:12:35Z</time>
      </trkpt>
      <trkpt lat="47.36728" lon="-0.3605">
        <ele>51</ele>
        <time>2022-04-12T13:12:39Z</time>
      </trkpt>
      <trkpt lat="47.36644" lon="-0.3594">
        <ele>47</ele>
        <time>2022-04-12T13:12:59Z</time>
      </trkpt>
      <trkpt lat="47.3663" lon="-0.35907">
        <ele>46</ele>
        <time>2022-04-12T13:13:04Z</time>
      </trkpt>
      <trkpt lat="47.36543" lon="-0.35524">
        <ele>43</ele>
        <time>2022-04-12T13:13:53Z</time>
      </trkpt>
      <trkpt lat="47.36528" lon="-0.35484">
        <ele>42</ele>
        <time>2022-04-12T13:13:58Z</time>
      </trkpt>
      <trkpt lat="47.36516" lon="-0.35466">
        <ele>43</ele>
        <time>2022-04-12T13:14:01Z</time>
      </trkpt>
      <trkpt lat="47.36502" lon="-0.35452">
        <ele>43</ele>
        <time>2022-04-12T13:14:04Z</time>
      </trkpt>
      <trkpt lat="47.36485" lon="-0.35442">
        <ele>43</ele>
        <time>2022-04-12T13:14:08Z</time>
      </trkpt>
      <trkpt lat="47.36449" lon="-0.35434">
        <ele>43</ele>
        <time>2022-04-12T13:14:14Z</time>
      </trkpt>
      <trkpt lat="47.36422" lon="-0.35432">
        <ele>44</ele>
        <time>2022-04-12T13:14:19Z</time>
      </trkpt>
      <trkpt lat="47.36391" lon="-0.35442">
        <ele>45</ele>
        <time>2022-04-12T13:14:25Z</time>
      </trkpt>
      <trkpt lat="47.3628" lon="-0.35499">
        <ele>49</ele>
        <time>2022-04-12T13:14:45Z</time>
      </trkpt>
      <trkpt lat="47.3625" lon="-0.35474">
        <ele>48</ele>
        <time>2022-04-12T13:14:52Z</time>
      </trkpt>
      <trkpt lat="47.36242" lon="-0.3546">
        <ele>47</ele>
        <time>2022-04-12T13:14:54Z</time>
      </trkpt>
      <trkpt lat="47.36229" lon="-0.35451">
        <ele>46</ele>
        <time>2022-04-12T13:14:56Z</time>
      </trkpt>
      <trkpt lat="47.36198" lon="-0.35421">
        <ele>45</ele>
        <time>2022-04-12T13:15:03Z</time>
      </trkpt>
      <trkpt lat="47.36143" lon="-0.35362">
        <ele>43</ele>
        <time>2022-04-12T13:15:15Z</time>
      </trkpt>
      <trkpt lat="47.3613" lon="-0.35353">
        <ele>43</ele>
        <time>2022-04-12T13:15:18Z</time>
      </trkpt>
      <trkpt lat="47.36112" lon="-0.3535">
        <ele>43</ele>
        <time>2022-04-12T13:15:21Z</time>
      </trkpt>
      <trkpt lat="47.36067" lon="-0.35353">
        <ele>42</ele>
        <time>2022-04-12T13:15:29Z</time>
      </trkpt>
      <trkpt lat="47.35948" lon="-0.35354">
        <ele>43</ele>
        <time>2022-04-12T13:15:50Z</time>
      </trkpt>
      <trkpt lat="47.35909" lon="-0.35346">
        <ele>43</ele>
        <time>2022-04-12T13:15:57Z</time>
      </trkpt>
      <trkpt lat="47.35906" lon="-0.35334">
        <ele>42</ele>
        <time>2022-04-12T13:15:59Z</time>
      </trkpt>
      <trkpt lat="47.35885" lon="-0.35293">
        <ele>43</ele>
        <time>2022-04-12T13:16:05Z</time>
      </trkpt>
      <trkpt lat="47.35871" lon="-0.35274">
        <ele>43</ele>
        <time>2022-04-12T13:16:08Z</time>
      </trkpt>
      <trkpt lat="47.35834" lon="-0.35254">
        <ele>45</ele>
        <time>2022-04-12T13:16:15Z</time>
      </trkpt>
      <trkpt lat="47.35739" lon="-0.35192">
        <ele>48</ele>
        <time>2022-04-12T13:16:34Z</time>
      </trkpt>
      <trkpt lat="47.35669" lon="-0.35123">
        <ele>52</ele>
        <time>2022-04-12T13:16:49Z</time>
      </trkpt>
      <trkpt lat="47.35611" lon="-0.35077">
        <ele>52</ele>
        <time>2022-04-12T13:17:00Z</time>
      </trkpt>
      <trkpt lat="47.35569" lon="-0.35049">
        <ele>51</ele>
        <time>2022-04-12T13:17:09Z</time>
      </trkpt>
      <trkpt lat="47.35527" lon="-0.35029">
        <ele>52</ele>
        <time>2022-04-12T13:17:16Z</time>
      </trkpt>
      <trkpt lat="47.35351" lon="-0.34955">
        <ele>52</ele>
        <time>2022-04-12T13:17:49Z</time>
      </trkpt>
      <trkpt lat="47.35088" lon="-0.34882">
        <ele>57</ele>
        <time>2022-04-12T13:18:37Z</time>
      </trkpt>
      <trkpt lat="47.35066" lon="-0.3488">
        <ele>57</ele>
        <time>2022-04-12T13:18:40Z</time>
      </trkpt>
      <trkpt lat="47.35027" lon="-0.34882">
        <ele>57</ele>
        <time>2022-04-12T13:18:47Z</time>
      </trkpt>
      <trkpt lat="47.35014" lon="-0.34887">
        <ele>57</ele>
        <time>2022-04-12T13:18:50Z</time>
      </trkpt>
      <trkpt lat="47.34937" lon="-0.34936">
        <ele>56</ele>
        <time>2022-04-12T13:19:05Z</time>
      </trkpt>
      <trkpt lat="47.34848" lon="-0.34969">
        <ele>56</ele>
        <time>2022-04-12T13:19:21Z</time>
      </trkpt>
      <trkpt lat="47.34713" lon="-0.35039">
        <ele>57</ele>
        <time>2022-04-12T13:19:47Z</time>
      </trkpt>
      <trkpt lat="47.34688" lon="-0.3506">
        <ele>57</ele>
        <time>2022-04-12T13:19:52Z</time>
      </trkpt>
      <trkpt lat="47.34682" lon="-0.35069">
        <ele>56</ele>
        <time>2022-04-12T13:19:53Z</time>
      </trkpt>
      <trkpt lat="47.3467" lon="-0.35078">
        <ele>56</ele>
        <time>2022-04-12T13:19:56Z</time>
      </trkpt>
      <trkpt lat="47.34579" lon="-0.35188">
        <ele>56</ele>
        <time>2022-04-12T13:20:16Z</time>
      </trkpt>
      <trkpt lat="47.34368" lon="-0.35471">
        <ele>53</ele>
        <time>2022-04-12T13:21:07Z</time>
      </trkpt>
      <trkpt lat="47.34442" lon="-0.3539">
        <ele>55</ele>
        <time>2022-04-12T13:21:24Z</time>
      </trkpt>
      <trkpt lat="47.34473" lon="-0.3535">
        <ele>55</ele>
        <time>2022-04-12T13:21:31Z</time>
      </trkpt>
      <trkpt lat="47.34544" lon="-0.35234">
        <ele>55</ele>
        <time>2022-04-12T13:21:50Z</time>
      </trkpt>
      <trkpt lat="47.34578" lon="-0.35191">
        <ele>55</ele>
        <time>2022-04-12T13:21:58Z</time>
      </trkpt>
      <trkpt lat="47.34523" lon="-0.35262">
        <ele>55</ele>
        <time>2022-04-12T13:22:11Z</time>
      </trkpt>
      <trkpt lat="47.34453" lon="-0.35372">
        <ele>55</ele>
        <time>2022-04-12T13:22:29Z</time>
      </trkpt>
      <trkpt lat="47.34346" lon="-0.35484">
        <ele>53</ele>
        <time>2022-04-12T13:22:52Z</time>
      </trkpt>
      <trkpt lat="47.34328" lon="-0.3548">
        <ele>53</ele>
        <time>2022-04-12T13:22:56Z</time>
      </trkpt>
      <trkpt lat="47.34319" lon="-0.35457">
        <ele>54</ele>
        <time>2022-04-12T13:22:59Z</time>
      </trkpt>
      <trkpt lat="47.34299" lon="-0.35471">
        <ele>54</ele>
        <time>2022-04-12T13:23:03Z</time>
      </trkpt>
      <trkpt lat="47.34306" lon="-0.35477">
        <ele>54</ele>
        <time>2022-04-12T13:23:04Z</time>
      </trkpt>
      <trkpt lat="47.34307" lon="-0.35489">
        <ele>54</ele>
        <time>2022-04-12T13:23:06Z</time>
      </trkpt>
      <trkpt lat="47.34314" lon="-0.35495">
        <ele>54</ele>
        <time>2022-04-12T13:23:07Z</time>
      </trkpt>
      <trkpt lat="47.34297" lon="-0.3555">
        <ele>55</ele>
        <time>2022-04-12T13:23:14Z</time>
      </trkpt>
      <trkpt lat="47.34279" lon="-0.35587">
        <ele>55</ele>
        <time>2022-04-12T13:23:20Z</time>
      </trkpt>
      <trkpt lat="47.34196" lon="-0.35697">
        <ele>57</ele>
        <time>2022-04-12T13:23:40Z</time>
      </trkpt>
      <trkpt lat="47.34155" lon="-0.35759">
        <ele>58</ele>
        <time>2022-04-12T13:23:50Z</time>
      </trkpt>
      <trkpt lat="47.34115" lon="-0.35814">
        <ele>56</ele>
        <time>2022-04-12T13:24:00Z</time>
      </trkpt>
      <trkpt lat="47.34072" lon="-0.35865">
        <ele>56</ele>
        <time>2022-04-12T13:24:10Z</time>
      </trkpt>
      <trkpt lat="47.34036" lon="-0.35906">
        <ele>55</ele>
        <time>2022-04-12T13:24:18Z</time>
      </trkpt>
      <trkpt lat="47.34022" lon="-0.35914">
        <ele>55</ele>
        <time>2022-04-12T13:24:20Z</time>
      </trkpt>
      <trkpt lat="47.33961" lon="-0.3592">
        <ele>55</ele>
        <time>2022-04-12T13:24:31Z</time>
      </trkpt>
      <trkpt lat="47.33951" lon="-0.35875">
        <ele>56</ele>
        <time>2022-04-12T13:24:37Z</time>
      </trkpt>
      <trkpt lat="47.33931" lon="-0.3581">
        <ele>57</ele>
        <time>2022-04-12T13:24:46Z</time>
      </trkpt>
      <trkpt lat="47.33912" lon="-0.35771">
        <ele>57</ele>
        <time>2022-04-12T13:24:51Z</time>
      </trkpt>
      <trkpt lat="47.33897" lon="-0.3575">
        <ele>56</ele>
        <time>2022-04-12T13:24:55Z</time>
      </trkpt>
      <trkpt lat="47.33819" lon="-0.35671">
        <ele>56</ele>
        <time>2022-04-12T13:25:12Z</time>
      </trkpt>
      <trkpt lat="47.33801" lon="-0.3565">
        <ele>56</ele>
        <time>2022-04-12T13:25:16Z</time>
      </trkpt>
      <trkpt lat="47.33752" lon="-0.35577">
        <ele>59</ele>
        <time>2022-04-12T13:25:28Z</time>
      </trkpt>
      <trkpt lat="47.33725" lon="-0.35547">
        <ele>59</ele>
        <time>2022-04-12T13:25:34Z</time>
      </trkpt>
      <trkpt lat="47.33703" lon="-0.35531">
        <ele>59</ele>
        <time>2022-04-12T13:25:39Z</time>
      </trkpt>
      <trkpt lat="47.33647" lon="-0.35499">
        <ele>60</ele>
        <time>2022-04-12T13:25:49Z</time>
      </trkpt>
      <trkpt lat="47.3361" lon="-0.35464">
        <ele>60</ele>
        <time>2022-04-12T13:25:57Z</time>
      </trkpt>
      <trkpt lat="47.33519" lon="-0.35343">
        <ele>60</ele>
        <time>2022-04-12T13:26:19Z</time>
      </trkpt>
      <trkpt lat="47.33487" lon="-0.35296">
        <ele>60</ele>
        <time>2022-04-12T13:26:27Z</time>
      </trkpt>
      <trkpt lat="47.33448" lon="-0.35228">
        <ele>59</ele>
        <time>2022-04-12T13:26:38Z</time>
      </trkpt>
      <trkpt lat="47.33416" lon="-0.35154">
        <ele>59</ele>
        <time>2022-04-12T13:26:48Z</time>
      </trkpt>
      <trkpt lat="47.33394" lon="-0.35123">
        <ele>58</ele>
        <time>2022-04-12T13:26:54Z</time>
      </trkpt>
      <trkpt lat="47.33374" lon="-0.35105">
        <ele>58</ele>
        <time>2022-04-12T13:26:58Z</time>
      </trkpt>
      <trkpt lat="47.33359" lon="-0.35096">
        <ele>57</ele>
        <time>2022-04-12T13:27:01Z</time>
      </trkpt>
      <trkpt lat="47.33243" lon="-0.35043">
        <ele>56</ele>
        <time>2022-04-12T13:27:22Z</time>
      </trkpt>
      <trkpt lat="47.3322" lon="-0.35026">
        <ele>55</ele>
        <time>2022-04-12T13:27:27Z</time>
      </trkpt>
      <trkpt lat="47.33164" lon="-0.34969">
        <ele>53</ele>
        <time>2022-04-12T13:27:39Z</time>
      </trkpt>
      <trkpt lat="47.33127" lon="-0.34925">
        <ele>53</ele>
        <time>2022-04-12T13:27:48Z</time>
      </trkpt>
      <trkpt lat="47.33046" lon="-0.34794">
        <ele>53</ele>
        <time>2022-04-12T13:28:09Z</time>
      </trkpt>
      <trkpt lat="47.32971" lon="-0.34706">
        <ele>56</ele>
        <time>2022-04-12T13:28:26Z</time>
      </trkpt>
      <trkpt lat="47.32954" lon="-0.34692">
        <ele>56</ele>
        <time>2022-04-12T13:28:29Z</time>
      </trkpt>
      <trkpt lat="47.32939" lon="-0.34685">
        <ele>56</ele>
        <time>2022-04-12T13:28:32Z</time>
      </trkpt>
      <trkpt lat="47.3291" lon="-0.34682">
        <ele>57</ele>
        <time>2022-04-12T13:28:37Z</time>
      </trkpt>
      <trkpt lat="47.32671" lon="-0.34697">
        <ele>55</ele>
        <time>2022-04-12T13:29:20Z</time>
      </trkpt>
      <trkpt lat="47.32652" lon="-0.34705">
        <ele>55</ele>
        <time>2022-04-12T13:29:24Z</time>
      </trkpt>
      <trkpt lat="47.32627" lon="-0.34736">
        <ele>54</ele>
        <time>2022-04-12T13:29:29Z</time>
      </trkpt>
      <trkpt lat="47.32563" lon="-0.3476">
        <ele>52</ele>
        <time>2022-04-12T13:29:41Z</time>
      </trkpt>
      <trkpt lat="47.32529" lon="-0.34768">
        <ele>52</ele>
        <time>2022-04-12T13:29:47Z</time>
      </trkpt>
      <trkpt lat="47.32514" lon="-0.34767">
        <ele>53</ele>
        <time>2022-04-12T13:29:50Z</time>
      </trkpt>
      <trkpt lat="47.32477" lon="-0.34759">
        <ele>53</ele>
        <time>2022-04-12T13:29:57Z</time>
      </trkpt>
      <trkpt lat="47.32432" lon="-0.34745">
        <ele>54</ele>
        <time>2022-04-12T13:30:05Z</time>
      </trkpt>
      <trkpt lat="47.32409" lon="-0.34734">
        <ele>54</ele>
        <time>2022-04-12T13:30:09Z</time>
      </trkpt>
      <trkpt lat="47.3236" lon="-0.34704">
        <ele>56</ele>
        <time>2022-04-12T13:30:18Z</time>
      </trkpt>
      <trkpt lat="47.32264" lon="-0.3463">
        <ele>62</ele>
        <time>2022-04-12T13:30:38Z</time>
      </trkpt>
      <trkpt lat="47.32162" lon="-0.34559">
        <ele>63</ele>
        <time>2022-04-12T13:30:58Z</time>
      </trkpt>
      <trkpt lat="47.32142" lon="-0.34549">
        <ele>63</ele>
        <time>2022-04-12T13:31:02Z</time>
      </trkpt>
      <trkpt lat="47.32071" lon="-0.34531">
        <ele>61</ele>
        <time>2022-04-12T13:31:14Z</time>
      </trkpt>
      <trkpt lat="47.32003" lon="-0.34521">
        <ele>59</ele>
        <time>2022-04-12T13:31:27Z</time>
      </trkpt>
      <trkpt lat="47.31974" lon="-0.34513">
        <ele>59</ele>
        <time>2022-04-12T13:31:32Z</time>
      </trkpt>
      <trkpt lat="47.31963" lon="-0.34505">
        <ele>58</ele>
        <time>2022-04-12T13:31:34Z</time>
      </trkpt>
      <trkpt lat="47.31951" lon="-0.34492">
        <ele>58</ele>
        <time>2022-04-12T13:31:37Z</time>
      </trkpt>
      <trkpt lat="47.31946" lon="-0.34481">
        <ele>58</ele>
        <time>2022-04-12T13:31:38Z</time>
      </trkpt>
      <trkpt lat="47.31938" lon="-0.34443">
        <ele>58</ele>
        <time>2022-04-12T13:31:43Z</time>
      </trkpt>
      <trkpt lat="47.3191" lon="-0.34241">
        <ele>60</ele>
        <time>2022-04-12T13:32:08Z</time>
      </trkpt>
      <trkpt lat="47.31905" lon="-0.34225">
        <ele>60</ele>
        <time>2022-04-12T13:32:10Z</time>
      </trkpt>
      <trkpt lat="47.319" lon="-0.34219">
        <ele>60</ele>
        <time>2022-04-12T13:32:11Z</time>
      </trkpt>
      <trkpt lat="47.31872" lon="-0.34205">
        <ele>59</ele>
        <time>2022-04-12T13:32:16Z</time>
      </trkpt>
      <trkpt lat="47.31723" lon="-0.34152">
        <ele>55</ele>
        <time>2022-04-12T13:32:44Z</time>
      </trkpt>
      <trkpt lat="47.31702" lon="-0.34148">
        <ele>55</ele>
        <time>2022-04-12T13:32:47Z</time>
      </trkpt>
      <trkpt lat="47.31642" lon="-0.34145">
        <ele>55</ele>
        <time>2022-04-12T13:32:58Z</time>
      </trkpt>
      <trkpt lat="47.31542" lon="-0.34108">
        <ele>57</ele>
        <time>2022-04-12T13:33:16Z</time>
      </trkpt>
      <trkpt lat="47.31474" lon="-0.34075">
        <ele>58</ele>
        <time>2022-04-12T13:33:29Z</time>
      </trkpt>
      <trkpt lat="47.31399" lon="-0.34028">
        <ele>58</ele>
        <time>2022-04-12T13:33:44Z</time>
      </trkpt>
      <trkpt lat="47.31379" lon="-0.34018">
        <ele>58</ele>
        <time>2022-04-12T13:33:47Z</time>
      </trkpt>
      <trkpt lat="47.31313" lon="-0.33992">
        <ele>55</ele>
        <time>2022-04-12T13:34:00Z</time>
      </trkpt>
      <trkpt lat="47.31246" lon="-0.33973">
        <ele>54</ele>
        <time>2022-04-12T13:34:12Z</time>
      </trkpt>
      <trkpt lat="47.31126" lon="-0.33968">
        <ele>55</ele>
        <time>2022-04-12T13:34:33Z</time>
      </trkpt>
      <trkpt lat="47.31097" lon="-0.33958">
        <ele>56</ele>
        <time>2022-04-12T13:34:38Z</time>
      </trkpt>
      <trkpt lat="47.31069" lon="-0.33941">
        <ele>57</ele>
        <time>2022-04-12T13:34:44Z</time>
      </trkpt>
      <trkpt lat="47.31044" lon="-0.33916">
        <ele>57</ele>
        <time>2022-04-12T13:34:49Z</time>
      </trkpt>
      <trkpt lat="47.31002" lon="-0.33857">
        <ele>58</ele>
        <time>2022-04-12T13:35:00Z</time>
      </trkpt>
      <trkpt lat="47.3096" lon="-0.33788">
        <ele>61</ele>
        <time>2022-04-12T13:35:11Z</time>
      </trkpt>
      <trkpt lat="47.30928" lon="-0.33747">
        <ele>63</ele>
        <time>2022-04-12T13:35:18Z</time>
      </trkpt>
      <trkpt lat="47.30914" lon="-0.33733">
        <ele>64</ele>
        <time>2022-04-12T13:35:21Z</time>
      </trkpt>
      <trkpt lat="47.3081" lon="-0.33646">
        <ele>68</ele>
        <time>2022-04-12T13:35:43Z</time>
      </trkpt>
      <trkpt lat="47.30693" lon="-0.33561">
        <ele>65</ele>
        <time>2022-04-12T13:36:06Z</time>
      </trkpt>
      <trkpt lat="47.30683" lon="-0.33557">
        <ele>64</ele>
        <time>2022-04-12T13:36:08Z</time>
      </trkpt>
      <trkpt lat="47.30646" lon="-0.33556">
        <ele>62</ele>
        <time>2022-04-12T13:36:14Z</time>
      </trkpt>
      <trkpt lat="47.30627" lon="-0.33553">
        <ele>62</ele>
        <time>2022-04-12T13:36:18Z</time>
      </trkpt>
      <trkpt lat="47.30627" lon="-0.33541">
        <ele>62</ele>
        <time>2022-04-12T13:36:19Z</time>
      </trkpt>
      <trkpt lat="47.30627" lon="-0.33553">
        <ele>62</ele>
        <time>2022-04-12T13:36:20Z</time>
      </trkpt>
      <trkpt lat="47.30606" lon="-0.33548">
        <ele>62</ele>
        <time>2022-04-12T13:36:24Z</time>
      </trkpt>
      <trkpt lat="47.30582" lon="-0.33537">
        <ele>62</ele>
        <time>2022-04-12T13:36:29Z</time>
      </trkpt>
      <trkpt lat="47.30557" lon="-0.33519">
        <ele>61</ele>
        <time>2022-04-12T13:36:34Z</time>
      </trkpt>
      <trkpt lat="47.30531" lon="-0.33491">
        <ele>61</ele>
        <time>2022-04-12T13:36:39Z</time>
      </trkpt>
      <trkpt lat="47.30508" lon="-0.3346">
        <ele>61</ele>
        <time>2022-04-12T13:36:45Z</time>
      </trkpt>
      <trkpt lat="47.30485" lon="-0.33409">
        <ele>61</ele>
        <time>2022-04-12T13:36:52Z</time>
      </trkpt>
      <trkpt lat="47.30473" lon="-0.33361">
        <ele>61</ele>
        <time>2022-04-12T13:36:58Z</time>
      </trkpt>
      <trkpt lat="47.30449" lon="-0.33219">
        <ele>63</ele>
        <time>2022-04-12T13:37:16Z</time>
      </trkpt>
      <trkpt lat="47.30443" lon="-0.33199">
        <ele>64</ele>
        <time>2022-04-12T13:37:19Z</time>
      </trkpt>
      <trkpt lat="47.30406" lon="-0.33108">
        <ele>63</ele>
        <time>2022-04-12T13:37:32Z</time>
      </trkpt>
      <trkpt lat="47.30367" lon="-0.32988">
        <ele>64</ele>
        <time>2022-04-12T13:37:48Z</time>
      </trkpt>
      <trkpt lat="47.30351" lon="-0.32954">
        <ele>64</ele>
        <time>2022-04-12T13:37:53Z</time>
      </trkpt>
      <trkpt lat="47.30322" lon="-0.32912">
        <ele>64</ele>
        <time>2022-04-12T13:38:00Z</time>
      </trkpt>
      <trkpt lat="47.30292" lon="-0.32886">
        <ele>63</ele>
        <time>2022-04-12T13:38:06Z</time>
      </trkpt>
      <trkpt lat="47.30231" lon="-0.32842">
        <ele>60</ele>
        <time>2022-04-12T13:38:18Z</time>
      </trkpt>
      <trkpt lat="47.30224" lon="-0.3284">
        <ele>60</ele>
        <time>2022-04-12T13:38:19Z</time>
      </trkpt>
      <trkpt lat="47.30212" lon="-0.32841">
        <ele>59</ele>
        <time>2022-04-12T13:38:22Z</time>
      </trkpt>
      <trkpt lat="47.30195" lon="-0.32858">
        <ele>58</ele>
        <time>2022-04-12T13:38:25Z</time>
      </trkpt>
      <trkpt lat="47.30171" lon="-0.32893">
        <ele>58</ele>
        <time>2022-04-12T13:38:31Z</time>
      </trkpt>
      <trkpt lat="47.30153" lon="-0.32908">
        <ele>58</ele>
        <time>2022-04-12T13:38:35Z</time>
      </trkpt>
      <trkpt lat="47.30117" lon="-0.32918">
        <ele>59</ele>
        <time>2022-04-12T13:38:41Z</time>
      </trkpt>
      <trkpt lat="47.30083" lon="-0.3292">
        <ele>60</ele>
        <time>2022-04-12T13:38:47Z</time>
      </trkpt>
      <trkpt lat="47.30055" lon="-0.32913">
        <ele>60</ele>
        <time>2022-04-12T13:38:53Z</time>
      </trkpt>
      <trkpt lat="47.29872" lon="-0.32849">
        <ele>59</ele>
        <time>2022-04-12T13:39:26Z</time>
      </trkpt>
      <trkpt lat="47.29804" lon="-0.3282">
        <ele>59</ele>
        <time>2022-04-12T13:39:39Z</time>
      </trkpt>
      <trkpt lat="47.29635" lon="-0.32711">
        <ele>62</ele>
        <time>2022-04-12T13:40:11Z</time>
      </trkpt>
      <trkpt lat="47.29604" lon="-0.32685">
        <ele>62</ele>
        <time>2022-04-12T13:40:18Z</time>
      </trkpt>
      <trkpt lat="47.29574" lon="-0.3265">
        <ele>62</ele>
        <time>2022-04-12T13:40:25Z</time>
      </trkpt>
      <trkpt lat="47.29543" lon="-0.32619">
        <ele>62</ele>
        <time>2022-04-12T13:40:31Z</time>
      </trkpt>
      <trkpt lat="47.29541" lon="-0.32566">
        <ele>62</ele>
        <time>2022-04-12T13:40:38Z</time>
      </trkpt>
      <trkpt lat="47.29554" lon="-0.3253">
        <ele>62</ele>
        <time>2022-04-12T13:40:43Z</time>
      </trkpt>
      <trkpt lat="47.29639" lon="-0.32367">
        <ele>63</ele>
        <time>2022-04-12T13:41:07Z</time>
      </trkpt>
      <trkpt lat="47.29613" lon="-0.32334">
        <ele>64</ele>
        <time>2022-04-12T13:41:13Z</time>
      </trkpt>
      <trkpt lat="47.29511" lon="-0.32233">
        <ele>64</ele>
        <time>2022-04-12T13:41:35Z</time>
      </trkpt>
      <trkpt lat="47.29446" lon="-0.32185">
        <ele>63</ele>
        <time>2022-04-12T13:41:48Z</time>
      </trkpt>
      <trkpt lat="47.29409" lon="-0.32154">
        <ele>63</ele>
        <time>2022-04-12T13:41:56Z</time>
      </trkpt>
      <trkpt lat="47.29374" lon="-0.32113">
        <ele>64</ele>
        <time>2022-04-12T13:42:04Z</time>
      </trkpt>
      <trkpt lat="47.29332" lon="-0.3205">
        <ele>66</ele>
        <time>2022-04-12T13:42:14Z</time>
      </trkpt>
      <trkpt lat="47.29299" lon="-0.32019">
        <ele>67</ele>
        <time>2022-04-12T13:42:21Z</time>
      </trkpt>
      <trkpt lat="47.29191" lon="-0.31957">
        <ele>67</ele>
        <time>2022-04-12T13:42:42Z</time>
      </trkpt>
      <trkpt lat="47.29143" lon="-0.31933">
        <ele>66</ele>
        <time>2022-04-12T13:42:51Z</time>
      </trkpt>
      <trkpt lat="47.29081" lon="-0.31904">
        <ele>65</ele>
        <time>2022-04-12T13:43:03Z</time>
      </trkpt>
      <trkpt lat="47.29" lon="-0.31875">
        <ele>67</ele>
        <time>2022-04-12T13:43:17Z</time>
      </trkpt>
      <trkpt lat="47.28981" lon="-0.31861">
        <ele>67</ele>
        <time>2022-04-12T13:43:21Z</time>
      </trkpt>
      <trkpt lat="47.28965" lon="-0.31839">
        <ele>67</ele>
        <time>2022-04-12T13:43:25Z</time>
      </trkpt>
      <trkpt lat="47.28938" lon="-0.3179">
        <ele>68</ele>
        <time>2022-04-12T13:43:33Z</time>
      </trkpt>
      <trkpt lat="47.2886" lon="-0.31686">
        <ele>72</ele>
        <time>2022-04-12T13:43:51Z</time>
      </trkpt>
      <trkpt lat="47.28839" lon="-0.3165">
        <ele>73</ele>
        <time>2022-04-12T13:43:57Z</time>
      </trkpt>
      <trkpt lat="47.28803" lon="-0.31577">
        <ele>77</ele>
        <time>2022-04-12T13:44:08Z</time>
      </trkpt>
      <trkpt lat="47.28751" lon="-0.31503">
        <ele>87</ele>
        <time>2022-04-12T13:44:21Z</time>
      </trkpt>
      <trkpt lat="47.28728" lon="-0.31465">
        <ele>90</ele>
        <time>2022-04-12T13:44:27Z</time>
      </trkpt>
      <trkpt lat="47.28676" lon="-0.31352">
        <ele>96</ele>
        <time>2022-04-12T13:44:44Z</time>
      </trkpt>
      <trkpt lat="47.28637" lon="-0.31276">
        <ele>96</ele>
        <time>2022-04-12T13:44:55Z</time>
      </trkpt>
      <trkpt lat="47.28609" lon="-0.3123">
        <ele>94</ele>
        <time>2022-04-12T13:45:03Z</time>
      </trkpt>
      <trkpt lat="47.28544" lon="-0.31135">
        <ele>83</ele>
        <time>2022-04-12T13:45:19Z</time>
      </trkpt>
      <trkpt lat="47.28532" lon="-0.31112">
        <ele>81</ele>
        <time>2022-04-12T13:45:22Z</time>
      </trkpt>
      <trkpt lat="47.28521" lon="-0.3108">
        <ele>80</ele>
        <time>2022-04-12T13:45:27Z</time>
      </trkpt>
      <trkpt lat="47.28499" lon="-0.30984">
        <ele>79</ele>
        <time>2022-04-12T13:45:39Z</time>
      </trkpt>
      <trkpt lat="47.28488" lon="-0.30923">
        <ele>77</ele>
        <time>2022-04-12T13:45:46Z</time>
      </trkpt>
      <trkpt lat="47.28486" lon="-0.30896">
        <ele>77</ele>
        <time>2022-04-12T13:45:50Z</time>
      </trkpt>
      <trkpt lat="47.28486" lon="-0.3075">
        <ele>79</ele>
        <time>2022-04-12T13:46:07Z</time>
      </trkpt>
      <trkpt lat="47.28488" lon="-0.30723">
        <ele>80</ele>
        <time>2022-04-12T13:46:11Z</time>
      </trkpt>
      <trkpt lat="47.28455" lon="-0.30725">
        <ele>79</ele>
        <time>2022-04-12T13:46:17Z</time>
      </trkpt>
      <trkpt lat="47.28426" lon="-0.30722">
        <ele>78</ele>
        <time>2022-04-12T13:46:22Z</time>
      </trkpt>
      <trkpt lat="47.28414" lon="-0.30717">
        <ele>78</ele>
        <time>2022-04-12T13:46:24Z</time>
      </trkpt>
      <trkpt lat="47.28373" lon="-0.3069">
        <ele>78</ele>
        <time>2022-04-12T13:46:32Z</time>
      </trkpt>
      <trkpt lat="47.28352" lon="-0.3068">
        <ele>78</ele>
        <time>2022-04-12T13:46:36Z</time>
      </trkpt>
      <trkpt lat="47.27996" lon="-0.30538">
        <ele>88</ele>
        <time>2022-04-12T13:47:41Z</time>
      </trkpt>
      <trkpt lat="47.27929" lon="-0.30506">
        <ele>89</ele>
        <time>2022-04-12T13:47:54Z</time>
      </trkpt>
      <trkpt lat="47.27875" lon="-0.3049">
        <ele>91</ele>
        <time>2022-04-12T13:48:04Z</time>
      </trkpt>
      <trkpt lat="47.27817" lon="-0.30482">
        <ele>93</ele>
        <time>2022-04-12T13:48:14Z</time>
      </trkpt>
      <trkpt lat="47.27623" lon="-0.30506">
        <ele>86</ele>
        <time>2022-04-12T13:48:49Z</time>
      </trkpt>
      <trkpt lat="47.27538" lon="-0.30529">
        <ele>83</ele>
        <time>2022-04-12T13:49:04Z</time>
      </trkpt>
      <trkpt lat="47.27445" lon="-0.30561">
        <ele>78</ele>
        <time>2022-04-12T13:49:21Z</time>
      </trkpt>
      <trkpt lat="47.27397" lon="-0.30571">
        <ele>76</ele>
        <time>2022-04-12T13:49:30Z</time>
      </trkpt>
      <trkpt lat="47.2712" lon="-0.30572">
        <ele>72</ele>
        <time>2022-04-12T13:50:19Z</time>
      </trkpt>
      <trkpt lat="47.27027" lon="-0.30559">
        <ele>71</ele>
        <time>2022-04-12T13:50:36Z</time>
      </trkpt>
      <trkpt lat="47.27" lon="-0.30549">
        <ele>71</ele>
        <time>2022-04-12T13:50:41Z</time>
      </trkpt>
      <trkpt lat="47.26876" lon="-0.30483">
        <ele>69</ele>
        <time>2022-04-12T13:51:04Z</time>
      </trkpt>
      <trkpt lat="47.26821" lon="-0.30459">
        <ele>69</ele>
        <time>2022-04-12T13:51:14Z</time>
      </trkpt>
      <trkpt lat="47.26782" lon="-0.3045">
        <ele>68</ele>
        <time>2022-04-12T13:51:21Z</time>
      </trkpt>
      <trkpt lat="47.26735" lon="-0.30444">
        <ele>67</ele>
        <time>2022-04-12T13:51:30Z</time>
      </trkpt>
      <trkpt lat="47.26704" lon="-0.30436">
        <ele>67</ele>
        <time>2022-04-12T13:51:35Z</time>
      </trkpt>
      <trkpt lat="47.26663" lon="-0.30414">
        <ele>67</ele>
        <time>2022-04-12T13:51:43Z</time>
      </trkpt>
      <trkpt lat="47.26643" lon="-0.30399">
        <ele>67</ele>
        <time>2022-04-12T13:51:47Z</time>
      </trkpt>
      <trkpt lat="47.26626" lon="-0.30392">
        <ele>67</ele>
        <time>2022-04-12T13:51:50Z</time>
      </trkpt>
      <trkpt lat="47.26571" lon="-0.30393">
        <ele>66</ele>
        <time>2022-04-12T13:52:00Z</time>
      </trkpt>
      <trkpt lat="47.2655" lon="-0.30388">
        <ele>65</ele>
        <time>2022-04-12T13:52:04Z</time>
      </trkpt>
      <trkpt lat="47.26542" lon="-0.30384">
        <ele>65</ele>
        <time>2022-04-12T13:52:05Z</time>
      </trkpt>
      <trkpt lat="47.26517" lon="-0.30363">
        <ele>66</ele>
        <time>2022-04-12T13:52:10Z</time>
      </trkpt>
      <trkpt lat="47.26453" lon="-0.30279">
        <ele>68</ele>
        <time>2022-04-12T13:52:26Z</time>
      </trkpt>
      <trkpt lat="47.26425" lon="-0.30234">
        <ele>70</ele>
        <time>2022-04-12T13:52:33Z</time>
      </trkpt>
      <trkpt lat="47.26373" lon="-0.30137">
        <ele>74</ele>
        <time>2022-04-12T13:52:48Z</time>
      </trkpt>
      <trkpt lat="47.26319" lon="-0.30062">
        <ele>77</ele>
        <time>2022-04-12T13:53:01Z</time>
      </trkpt>
      <trkpt lat="47.26292" lon="-0.30091">
        <ele>77</ele>
        <time>2022-04-12T13:53:07Z</time>
      </trkpt>
      <trkpt lat="47.26318" lon="-0.30061">
        <ele>77</ele>
        <time>2022-04-12T13:53:13Z</time>
      </trkpt>
      <trkpt lat="47.26297" lon="-0.30044">
        <ele>77</ele>
        <time>2022-04-12T13:53:17Z</time>
      </trkpt>
      <trkpt lat="47.26174" lon="-0.29962">
        <ele>78</ele>
        <time>2022-04-12T13:53:41Z</time>
      </trkpt>
      <trkpt lat="47.26113" lon="-0.29916">
        <ele>78</ele>
        <time>2022-04-12T13:53:53Z</time>
      </trkpt>
      <trkpt lat="47.26071" lon="-0.29878">
        <ele>77</ele>
        <time>2022-04-12T13:54:02Z</time>
      </trkpt>
      <trkpt lat="47.26027" lon="-0.29812">
        <ele>77</ele>
        <time>2022-04-12T13:54:13Z</time>
      </trkpt>
      <trkpt lat="47.25997" lon="-0.29758">
        <ele>78</ele>
        <time>2022-04-12T13:54:22Z</time>
      </trkpt>
      <trkpt lat="47.25982" lon="-0.29737">
        <ele>77</ele>
        <time>2022-04-12T13:54:26Z</time>
      </trkpt>
      <trkpt lat="47.25929" lon="-0.29687">
        <ele>75</ele>
        <time>2022-04-12T13:54:37Z</time>
      </trkpt>
      <trkpt lat="47.2591" lon="-0.29664">
        <ele>74</ele>
        <time>2022-04-12T13:54:41Z</time>
      </trkpt>
      <trkpt lat="47.25858" lon="-0.2956">
        <ele>71</ele>
        <time>2022-04-12T13:54:57Z</time>
      </trkpt>
      <trkpt lat="47.2583" lon="-0.29514">
        <ele>71</ele>
        <time>2022-04-12T13:55:04Z</time>
      </trkpt>
      <trkpt lat="47.25808" lon="-0.29484">
        <ele>70</ele>
        <time>2022-04-12T13:55:10Z</time>
      </trkpt>
      <trkpt lat="47.25755" lon="-0.29427">
        <ele>69</ele>
        <time>2022-04-12T13:55:21Z</time>
      </trkpt>
      <trkpt lat="47.25734" lon="-0.29398">
        <ele>69</ele>
        <time>2022-04-12T13:55:26Z</time>
      </trkpt>
      <trkpt lat="47.25723" lon="-0.29375">
        <ele>70</ele>
        <time>2022-04-12T13:55:30Z</time>
      </trkpt>
      <trkpt lat="47.25638" lon="-0.29464">
        <ele>65</ele>
        <time>2022-04-12T13:55:48Z</time>
      </trkpt>
      <trkpt lat="47.25631" lon="-0.29466">
        <ele>64</ele>
        <time>2022-04-12T13:55:50Z</time>
      </trkpt>
      <trkpt lat="47.25626" lon="-0.29463">
        <ele>64</ele>
        <time>2022-04-12T13:55:50Z</time>
      </trkpt>
      <trkpt lat="47.25351" lon="-0.2885">
        <ele>68</ele>
        <time>2022-04-12T13:57:19Z</time>
      </trkpt>
      <trkpt lat="47.25265" lon="-0.28688">
        <ele>66</ele>
        <time>2022-04-12T13:57:44Z</time>
      </trkpt>
      <trkpt lat="47.25252" lon="-0.28676">
        <ele>66</ele>
        <time>2022-04-12T13:57:47Z</time>
      </trkpt>
      <trkpt lat="47.25124" lon="-0.28619">
        <ele>66</ele>
        <time>2022-04-12T13:58:11Z</time>
      </trkpt>
      <trkpt lat="47.25102" lon="-0.28606">
        <ele>67</ele>
        <time>2022-04-12T13:58:15Z</time>
      </trkpt>
      <trkpt lat="47.25094" lon="-0.28572">
        <ele>68</ele>
        <time>2022-04-12T13:58:19Z</time>
      </trkpt>
      <trkpt lat="47.24927" lon="-0.27609">
        <ele>76</ele>
        <time>2022-04-12T14:00:19Z</time>
      </trkpt>
      <trkpt lat="47.24914" lon="-0.27526">
        <ele>75</ele>
        <time>2022-04-12T14:00:29Z</time>
      </trkpt>
      <trkpt lat="47.24913" lon="-0.27499">
        <ele>75</ele>
        <time>2022-04-12T14:00:33Z</time>
      </trkpt>
      <trkpt lat="47.24878" lon="-0.27513">
        <ele>75</ele>
        <time>2022-04-12T14:00:39Z</time>
      </trkpt>
      <trkpt lat="47.24865" lon="-0.27514">
        <ele>75</ele>
        <time>2022-04-12T14:00:42Z</time>
      </trkpt>
      <trkpt lat="47.24851" lon="-0.27513">
        <ele>75</ele>
        <time>2022-04-12T14:00:44Z</time>
      </trkpt>
      <trkpt lat="47.24775" lon="-0.27491">
        <ele>73</ele>
        <time>2022-04-12T14:00:58Z</time>
      </trkpt>
      <trkpt lat="47.24758" lon="-0.27488">
        <ele>72</ele>
        <time>2022-04-12T14:01:01Z</time>
      </trkpt>
      <trkpt lat="47.24725" lon="-0.27489">
        <ele>71</ele>
        <time>2022-04-12T14:01:07Z</time>
      </trkpt>
      <trkpt lat="47.24679" lon="-0.275">
        <ele>71</ele>
        <time>2022-04-12T14:01:15Z</time>
      </trkpt>
      <trkpt lat="47.24652" lon="-0.27514">
        <ele>71</ele>
        <time>2022-04-12T14:01:20Z</time>
      </trkpt>
      <trkpt lat="47.24458" lon="-0.27677">
        <ele>68</ele>
        <time>2022-04-12T14:02:00Z</time>
      </trkpt>
      <trkpt lat="47.24407" lon="-0.27712">
        <ele>68</ele>
        <time>2022-04-12T14:02:10Z</time>
      </trkpt>
      <trkpt lat="47.2435" lon="-0.27738">
        <ele>67</ele>
        <time>2022-04-12T14:02:20Z</time>
      </trkpt>
      <trkpt lat="47.24304" lon="-0.27753">
        <ele>66</ele>
        <time>2022-04-12T14:02:29Z</time>
      </trkpt>
      <trkpt lat="47.24249" lon="-0.27766">
        <ele>66</ele>
        <time>2022-04-12T14:02:39Z</time>
      </trkpt>
      <trkpt lat="47.24281" lon="-0.27759">
        <ele>66</ele>
        <time>2022-04-12T14:02:45Z</time>
      </trkpt>
      <trkpt lat="47.23975" lon="-0.2644">
        <ele>70</ele>
        <time>2022-04-12T14:05:33Z</time>
      </trkpt>
      <trkpt lat="47.23951" lon="-0.26346">
        <ele>71</ele>
        <time>2022-04-12T14:05:45Z</time>
      </trkpt>
      <trkpt lat="47.23936" lon="-0.26301">
        <ele>72</ele>
        <time>2022-04-12T14:05:51Z</time>
      </trkpt>
      <trkpt lat="47.23851" lon="-0.2609">
        <ele>71</ele>
        <time>2022-04-12T14:06:21Z</time>
      </trkpt>
      <trkpt lat="47.23842" lon="-0.26057">
        <ele>71</ele>
        <time>2022-04-12T14:06:25Z</time>
      </trkpt>
      <trkpt lat="47.23839" lon="-0.26029">
        <ele>72</ele>
        <time>2022-04-12T14:06:28Z</time>
      </trkpt>
      <trkpt lat="47.2384" lon="-0.25978">
        <ele>72</ele>
        <time>2022-04-12T14:06:35Z</time>
      </trkpt>
      <trkpt lat="47.23877" lon="-0.25372">
        <ele>70</ele>
        <time>2022-04-12T14:07:48Z</time>
      </trkpt>
      <trkpt lat="47.23877" lon="-0.2532">
        <ele>69</ele>
        <time>2022-04-12T14:07:54Z</time>
      </trkpt>
      <trkpt lat="47.23871" lon="-0.25271">
        <ele>69</ele>
        <time>2022-04-12T14:08:00Z</time>
      </trkpt>
      <trkpt lat="47.23868" lon="-0.25191">
        <ele>69</ele>
        <time>2022-04-12T14:08:10Z</time>
      </trkpt>
      <trkpt lat="47.23869" lon="-0.25109">
        <ele>68</ele>
        <time>2022-04-12T14:08:20Z</time>
      </trkpt>
      <trkpt lat="47.23873" lon="-0.25073">
        <ele>68</ele>
        <time>2022-04-12T14:08:24Z</time>
      </trkpt>
      <trkpt lat="47.23899" lon="-0.24968">
        <ele>71</ele>
        <time>2022-04-12T14:08:38Z</time>
      </trkpt>
      <trkpt lat="47.23905" lon="-0.24909">
        <ele>73</ele>
        <time>2022-04-12T14:08:45Z</time>
      </trkpt>
      <trkpt lat="47.23902" lon="-0.24887">
        <ele>73</ele>
        <time>2022-04-12T14:08:48Z</time>
      </trkpt>
      <trkpt lat="47.23853" lon="-0.24689">
        <ele>69</ele>
        <time>2022-04-12T14:09:13Z</time>
      </trkpt>
      <trkpt lat="47.23849" lon="-0.24654">
        <ele>68</ele>
        <time>2022-04-12T14:09:18Z</time>
      </trkpt>
      <trkpt lat="47.23848" lon="-0.24594">
        <ele>67</ele>
        <time>2022-04-12T14:09:25Z</time>
      </trkpt>
      <trkpt lat="47.23853" lon="-0.24409">
        <ele>69</ele>
        <time>2022-04-12T14:09:47Z</time>
      </trkpt>
      <trkpt lat="47.23851" lon="-0.2435">
        <ele>69</ele>
        <time>2022-04-12T14:09:54Z</time>
      </trkpt>
      <trkpt lat="47.23846" lon="-0.24305">
        <ele>69</ele>
        <time>2022-04-12T14:10:00Z</time>
      </trkpt>
      <trkpt lat="47.23827" lon="-0.24234">
        <ele>69</ele>
        <time>2022-04-12T14:10:09Z</time>
      </trkpt>
      <trkpt lat="47.23808" lon="-0.24189">
        <ele>69</ele>
        <time>2022-04-12T14:10:15Z</time>
      </trkpt>
      <trkpt lat="47.2377" lon="-0.24127">
        <ele>68</ele>
        <time>2022-04-12T14:10:26Z</time>
      </trkpt>
      <trkpt lat="47.2375" lon="-0.24087">
        <ele>67</ele>
        <time>2022-04-12T14:10:32Z</time>
      </trkpt>
      <trkpt lat="47.23735" lon="-0.24042">
        <ele>68</ele>
        <time>2022-04-12T14:10:38Z</time>
      </trkpt>
      <trkpt lat="47.2371" lon="-0.23944">
        <ele>70</ele>
        <time>2022-04-12T14:10:50Z</time>
      </trkpt>
      <trkpt lat="47.23686" lon="-0.23872">
        <ele>69</ele>
        <time>2022-04-12T14:11:00Z</time>
      </trkpt>
      <trkpt lat="47.23631" lon="-0.23738">
        <ele>68</ele>
        <time>2022-04-12T14:11:19Z</time>
      </trkpt>
      <trkpt lat="47.23591" lon="-0.23658">
        <ele>68</ele>
        <time>2022-04-12T14:11:31Z</time>
      </trkpt>
      <trkpt lat="47.23575" lon="-0.2362">
        <ele>67</ele>
        <time>2022-04-12T14:11:36Z</time>
      </trkpt>
      <trkpt lat="47.23554" lon="-0.23535">
        <ele>68</ele>
        <time>2022-04-12T14:11:47Z</time>
      </trkpt>
      <trkpt lat="47.23487" lon="-0.2321">
        <ele>71</ele>
        <time>2022-04-12T14:12:28Z</time>
      </trkpt>
      <trkpt lat="47.23482" lon="-0.23172">
        <ele>71</ele>
        <time>2022-04-12T14:12:33Z</time>
      </trkpt>
      <trkpt lat="47.23484" lon="-0.22737">
        <ele>70</ele>
        <time>2022-04-12T14:13:25Z</time>
      </trkpt>
      <trkpt lat="47.23481" lon="-0.22487">
        <ele>71</ele>
        <time>2022-04-12T14:13:56Z</time>
      </trkpt>
      <trkpt lat="47.23484" lon="-0.21997">
        <ele>76</ele>
        <time>2022-04-12T14:14:55Z</time>
      </trkpt>
      <trkpt lat="47.23481" lon="-0.2195">
        <ele>78</ele>
        <time>2022-04-12T14:15:01Z</time>
      </trkpt>
      <trkpt lat="47.23406" lon="-0.21592">
        <ele>84</ele>
        <time>2022-04-12T14:15:46Z</time>
      </trkpt>
      <trkpt lat="47.23359" lon="-0.21323">
        <ele>80</ele>
        <time>2022-04-12T14:16:19Z</time>
      </trkpt>
      <trkpt lat="47.23336" lon="-0.21243">
        <ele>79</ele>
        <time>2022-04-12T14:16:30Z</time>
      </trkpt>
      <trkpt lat="47.23309" lon="-0.21178">
        <ele>77</ele>
        <time>2022-04-12T14:16:39Z</time>
      </trkpt>
      <trkpt lat="47.23303" lon="-0.21156">
        <ele>77</ele>
        <time>2022-04-12T14:16:42Z</time>
      </trkpt>
      <trkpt lat="47.23292" lon="-0.21079">
        <ele>74</ele>
        <time>2022-04-12T14:16:51Z</time>
      </trkpt>
      <trkpt lat="47.23282" lon="-0.21036">
        <ele>72</ele>
        <time>2022-04-12T14:16:57Z</time>
      </trkpt>
      <trkpt lat="47.23274" lon="-0.21017">
        <ele>72</ele>
        <time>2022-04-12T14:17:00Z</time>
      </trkpt>
      <trkpt lat="47.23236" lon="-0.20984">
        <ele>70</ele>
        <time>2022-04-12T14:17:07Z</time>
      </trkpt>
      <trkpt lat="47.23215" lon="-0.20961">
        <ele>70</ele>
        <time>2022-04-12T14:17:12Z</time>
      </trkpt>
      <trkpt lat="47.232" lon="-0.20964">
        <ele>70</ele>
        <time>2022-04-12T14:17:15Z</time>
      </trkpt>
      <trkpt lat="47.23185" lon="-0.20971">
        <ele>70</ele>
        <time>2022-04-12T14:17:18Z</time>
      </trkpt>
      <trkpt lat="47.23164" lon="-0.20986">
        <ele>71</ele>
        <time>2022-04-12T14:17:22Z</time>
      </trkpt>
      <trkpt lat="47.23141" lon="-0.20993">
        <ele>71</ele>
        <time>2022-04-12T14:17:26Z</time>
      </trkpt>
      <trkpt lat="47.23119" lon="-0.20992">
        <ele>71</ele>
        <time>2022-04-12T14:17:30Z</time>
      </trkpt>
      <trkpt lat="47.2308" lon="-0.20982">
        <ele>71</ele>
        <time>2022-04-12T14:17:37Z</time>
      </trkpt>
      <trkpt lat="47.23054" lon="-0.20971">
        <ele>70</ele>
        <time>2022-04-12T14:17:42Z</time>
      </trkpt>
      <trkpt lat="47.22992" lon="-0.20937">
        <ele>68</ele>
        <time>2022-04-12T14:17:54Z</time>
      </trkpt>
      <trkpt lat="47.22857" lon="-0.20846">
        <ele>68</ele>
        <time>2022-04-12T14:18:20Z</time>
      </trkpt>
      <trkpt lat="47.22735" lon="-0.20722">
        <ele>69</ele>
        <time>2022-04-12T14:18:46Z</time>
      </trkpt>
      <trkpt lat="47.22638" lon="-0.20573">
        <ele>68</ele>
        <time>2022-04-12T14:19:11Z</time>
      </trkpt>
      <trkpt lat="47.22597" lon="-0.20522">
        <ele>69</ele>
        <time>2022-04-12T14:19:21Z</time>
      </trkpt>
      <trkpt lat="47.2245" lon="-0.20375">
        <ele>69</ele>
        <time>2022-04-12T14:19:52Z</time>
      </trkpt>
      <trkpt lat="47.22395" lon="-0.20308">
        <ele>70</ele>
        <time>2022-04-12T14:20:05Z</time>
      </trkpt>
      <trkpt lat="47.22324" lon="-0.20204">
        <ele>71</ele>
        <time>2022-04-12T14:20:23Z</time>
      </trkpt>
      <trkpt lat="47.22251" lon="-0.20103">
        <ele>72</ele>
        <time>2022-04-12T14:20:41Z</time>
      </trkpt>
      <trkpt lat="47.22225" lon="-0.20072">
        <ele>73</ele>
        <time>2022-04-12T14:20:47Z</time>
      </trkpt>
      <trkpt lat="47.222" lon="-0.20048">
        <ele>73</ele>
        <time>2022-04-12T14:20:52Z</time>
      </trkpt>
      <trkpt lat="47.22169" lon="-0.20027">
        <ele>74</ele>
        <time>2022-04-12T14:20:58Z</time>
      </trkpt>
      <trkpt lat="47.22152" lon="-0.20018">
        <ele>74</ele>
        <time>2022-04-12T14:21:01Z</time>
      </trkpt>
      <trkpt lat="47.22069" lon="-0.19988">
        <ele>73</ele>
        <time>2022-04-12T14:21:17Z</time>
      </trkpt>
      <trkpt lat="47.21983" lon="-0.19927">
        <ele>72</ele>
        <time>2022-04-12T14:21:33Z</time>
      </trkpt>
      <trkpt lat="47.21877" lon="-0.19881">
        <ele>75</ele>
        <time>2022-04-12T14:21:53Z</time>
      </trkpt>
      <trkpt lat="47.21864" lon="-0.19872">
        <ele>75</ele>
        <time>2022-04-12T14:21:56Z</time>
      </trkpt>
      <trkpt lat="47.21852" lon="-0.19858">
        <ele>75</ele>
        <time>2022-04-12T14:21:58Z</time>
      </trkpt>
      <trkpt lat="47.21846" lon="-0.19847">
        <ele>75</ele>
        <time>2022-04-12T14:22:00Z</time>
      </trkpt>
      <trkpt lat="47.21835" lon="-0.19816">
        <ele>75</ele>
        <time>2022-04-12T14:22:04Z</time>
      </trkpt>
      <trkpt lat="47.2176" lon="-0.19558">
        <ele>74</ele>
        <time>2022-04-12T14:22:38Z</time>
      </trkpt>
      <trkpt lat="47.21748" lon="-0.19502">
        <ele>74</ele>
        <time>2022-04-12T14:22:45Z</time>
      </trkpt>
      <trkpt lat="47.21737" lon="-0.1942">
        <ele>74</ele>
        <time>2022-04-12T14:22:55Z</time>
      </trkpt>
      <trkpt lat="47.21708" lon="-0.19282">
        <ele>79</ele>
        <time>2022-04-12T14:23:13Z</time>
      </trkpt>
      <trkpt lat="47.21658" lon="-0.19113">
        <ele>82</ele>
        <time>2022-04-12T14:23:35Z</time>
      </trkpt>
      <trkpt lat="47.2164" lon="-0.19034">
        <ele>81</ele>
        <time>2022-04-12T14:23:45Z</time>
      </trkpt>
      <trkpt lat="47.21625" lon="-0.18993">
        <ele>79</ele>
        <time>2022-04-12T14:23:51Z</time>
      </trkpt>
      <trkpt lat="47.21542" lon="-0.18821">
        <ele>74</ele>
        <time>2022-04-12T14:24:16Z</time>
      </trkpt>
      <trkpt lat="47.21526" lon="-0.18779">
        <ele>73</ele>
        <time>2022-04-12T14:24:22Z</time>
      </trkpt>
      <trkpt lat="47.21485" lon="-0.18652">
        <ele>70</ele>
        <time>2022-04-12T14:24:39Z</time>
      </trkpt>
      <trkpt lat="47.21457" lon="-0.18581">
        <ele>66</ele>
        <time>2022-04-12T14:24:49Z</time>
      </trkpt>
      <trkpt lat="47.21442" lon="-0.18551">
        <ele>66</ele>
        <time>2022-04-12T14:24:54Z</time>
      </trkpt>
      <trkpt lat="47.21407" lon="-0.18499">
        <ele>65</ele>
        <time>2022-04-12T14:25:03Z</time>
      </trkpt>
      <trkpt lat="47.21377" lon="-0.18443">
        <ele>63</ele>
        <time>2022-04-12T14:25:11Z</time>
      </trkpt>
      <trkpt lat="47.21364" lon="-0.18414">
        <ele>63</ele>
        <time>2022-04-12T14:25:15Z</time>
      </trkpt>
      <trkpt lat="47.2133" lon="-0.18315">
        <ele>59</ele>
        <time>2022-04-12T14:25:29Z</time>
      </trkpt>
      <trkpt lat="47.21293" lon="-0.1823">
        <ele>57</ele>
        <time>2022-04-12T14:25:41Z</time>
      </trkpt>
      <trkpt lat="47.21322" lon="-0.18173">
        <ele>56</ele>
        <time>2022-04-12T14:25:50Z</time>
      </trkpt>
      <trkpt lat="47.21356" lon="-0.18092">
        <ele>55</ele>
        <time>2022-04-12T14:26:01Z</time>
      </trkpt>
      <trkpt lat="47.21435" lon="-0.1785">
        <ele>59</ele>
        <time>2022-04-12T14:26:33Z</time>
      </trkpt>
      <trkpt lat="47.21448" lon="-0.17817">
        <ele>60</ele>
        <time>2022-04-12T14:26:38Z</time>
      </trkpt>
      <trkpt lat="47.21463" lon="-0.1779">
        <ele>60</ele>
        <time>2022-04-12T14:26:42Z</time>
      </trkpt>
      <trkpt lat="47.21505" lon="-0.17733">
        <ele>59</ele>
        <time>2022-04-12T14:26:52Z</time>
      </trkpt>
      <trkpt lat="47.21515" lon="-0.1771">
        <ele>59</ele>
        <time>2022-04-12T14:26:56Z</time>
      </trkpt>
      <trkpt lat="47.21523" lon="-0.17661">
        <ele>59</ele>
        <time>2022-04-12T14:27:02Z</time>
      </trkpt>
      <trkpt lat="47.2151" lon="-0.17655">
        <ele>60</ele>
        <time>2022-04-12T14:27:04Z</time>
      </trkpt>
      <trkpt lat="47.21468" lon="-0.17628">
        <ele>61</ele>
        <time>2022-04-12T14:27:12Z</time>
      </trkpt>
      <trkpt lat="47.21438" lon="-0.17615">
        <ele>62</ele>
        <time>2022-04-12T14:27:18Z</time>
      </trkpt>
      <trkpt lat="47.21424" lon="-0.17614">
        <ele>62</ele>
        <time>2022-04-12T14:27:21Z</time>
      </trkpt>
      <trkpt lat="47.21402" lon="-0.17619">
        <ele>62</ele>
        <time>2022-04-12T14:27:24Z</time>
      </trkpt>
      <trkpt lat="47.21394" lon="-0.17602">
        <ele>62</ele>
        <time>2022-04-12T14:27:27Z</time>
      </trkpt>
      <trkpt lat="47.21385" lon="-0.17599">
        <ele>62</ele>
        <time>2022-04-12T14:27:29Z</time>
      </trkpt>
      <trkpt lat="47.21376" lon="-0.17602">
        <ele>62</ele>
        <time>2022-04-12T14:27:30Z</time>
      </trkpt>
      <trkpt lat="47.2137" lon="-0.17613">
        <ele>63</ele>
        <time>2022-04-12T14:27:32Z</time>
      </trkpt>
      <trkpt lat="47.21367" lon="-0.17625">
        <ele>63</ele>
        <time>2022-04-12T14:27:34Z</time>
      </trkpt>
      <trkpt lat="47.21373" lon="-0.17644">
        <ele>63</ele>
        <time>2022-04-12T14:27:36Z</time>
      </trkpt>
      <trkpt lat="47.21357" lon="-0.17673">
        <ele>63</ele>
        <time>2022-04-12T14:27:41Z</time>
      </trkpt>
      <trkpt lat="47.21346" lon="-0.177">
        <ele>63</ele>
        <time>2022-04-12T14:27:44Z</time>
      </trkpt>
      <trkpt lat="47.2127" lon="-0.17927">
        <ele>64</ele>
        <time>2022-04-12T14:28:15Z</time>
      </trkpt>
      <trkpt lat="47.21263" lon="-0.17941">
        <ele>64</ele>
        <time>2022-04-12T14:28:17Z</time>
      </trkpt>
      <trkpt lat="47.21254" lon="-0.1795">
        <ele>64</ele>
        <time>2022-04-12T14:28:19Z</time>
      </trkpt>
      <trkpt lat="47.21211" lon="-0.17974">
        <ele>64</ele>
        <time>2022-04-12T14:28:27Z</time>
      </trkpt>
      <trkpt lat="47.21194" lon="-0.17981">
        <ele>64</ele>
        <time>2022-04-12T14:28:30Z</time>
      </trkpt>
      <trkpt lat="47.21172" lon="-0.17982">
        <ele>64</ele>
        <time>2022-04-12T14:28:34Z</time>
      </trkpt>
      <trkpt lat="47.21114" lon="-0.17955">
        <ele>65</ele>
        <time>2022-04-12T14:28:45Z</time>
      </trkpt>
      <trkpt lat="47.20981" lon="-0.17914">
        <ele>63</ele>
        <time>2022-04-12T14:29:09Z</time>
      </trkpt>
      <trkpt lat="47.20934" lon="-0.17893">
        <ele>63</ele>
        <time>2022-04-12T14:29:18Z</time>
      </trkpt>
      <trkpt lat="47.20912" lon="-0.17874">
        <ele>63</ele>
        <time>2022-04-12T14:29:23Z</time>
      </trkpt>
      <trkpt lat="47.20828" lon="-0.17791">
        <ele>60</ele>
        <time>2022-04-12T14:29:41Z</time>
      </trkpt>
      <trkpt lat="47.20702" lon="-0.17685">
        <ele>57</ele>
        <time>2022-04-12T14:30:06Z</time>
      </trkpt>
      <trkpt lat="47.20683" lon="-0.17664">
        <ele>58</ele>
        <time>2022-04-12T14:30:11Z</time>
      </trkpt>
      <trkpt lat="47.2066" lon="-0.17628">
        <ele>60</ele>
        <time>2022-04-12T14:30:17Z</time>
      </trkpt>
      <trkpt lat="47.20611" lon="-0.17523">
        <ele>62</ele>
        <time>2022-04-12T14:30:32Z</time>
      </trkpt>
      <trkpt lat="47.20595" lon="-0.17481">
        <ele>63</ele>
        <time>2022-04-12T14:30:38Z</time>
      </trkpt>
      <trkpt lat="47.20574" lon="-0.17407">
        <ele>63</ele>
        <time>2022-04-12T14:30:47Z</time>
      </trkpt>
      <trkpt lat="47.20563" lon="-0.17382">
        <ele>62</ele>
        <time>2022-04-12T14:30:51Z</time>
      </trkpt>
      <trkpt lat="47.20547" lon="-0.17358">
        <ele>62</ele>
        <time>2022-04-12T14:30:55Z</time>
      </trkpt>
      <trkpt lat="47.20517" lon="-0.17328">
        <ele>62</ele>
        <time>2022-04-12T14:31:02Z</time>
      </trkpt>
      <trkpt lat="47.20492" lon="-0.17311">
        <ele>63</ele>
        <time>2022-04-12T14:31:06Z</time>
      </trkpt>
      <trkpt lat="47.20428" lon="-0.17275">
        <ele>65</ele>
        <time>2022-04-12T14:31:19Z</time>
      </trkpt>
      <trkpt lat="47.20336" lon="-0.17231">
        <ele>65</ele>
        <time>2022-04-12T14:31:36Z</time>
      </trkpt>
      <trkpt lat="47.20316" lon="-0.17217">
        <ele>65</ele>
        <time>2022-04-12T14:31:40Z</time>
      </trkpt>
      <trkpt lat="47.20306" lon="-0.17207">
        <ele>65</ele>
        <time>2022-04-12T14:31:42Z</time>
      </trkpt>
      <trkpt lat="47.20289" lon="-0.17177">
        <ele>66</ele>
        <time>2022-04-12T14:31:47Z</time>
      </trkpt>
      <trkpt lat="47.20256" lon="-0.17042">
        <ele>65</ele>
        <time>2022-04-12T14:32:04Z</time>
      </trkpt>
      <trkpt lat="47.20239" lon="-0.17005">
        <ele>65</ele>
        <time>2022-04-12T14:32:09Z</time>
      </trkpt>
      <trkpt lat="47.20221" lon="-0.16983">
        <ele>64</ele>
        <time>2022-04-12T14:32:14Z</time>
      </trkpt>
      <trkpt lat="47.20203" lon="-0.16972">
        <ele>63</ele>
        <time>2022-04-12T14:32:17Z</time>
      </trkpt>
      <trkpt lat="47.2019" lon="-0.16967">
        <ele>63</ele>
        <time>2022-04-12T14:32:19Z</time>
      </trkpt>
      <trkpt lat="47.20065" lon="-0.16933">
        <ele>63</ele>
        <time>2022-04-12T14:32:42Z</time>
      </trkpt>
      <trkpt lat="47.20062" lon="-0.16899">
        <ele>62</ele>
        <time>2022-04-12T14:32:46Z</time>
      </trkpt>
      <trkpt lat="47.20031" lon="-0.16888">
        <ele>62</ele>
        <time>2022-04-12T14:32:52Z</time>
      </trkpt>
      <trkpt lat="47.19991" lon="-0.16869">
        <ele>61</ele>
        <time>2022-04-12T14:32:59Z</time>
      </trkpt>
      <trkpt lat="47.1998" lon="-0.16863">
        <ele>60</ele>
        <time>2022-04-12T14:33:01Z</time>
      </trkpt>
      <trkpt lat="47.19964" lon="-0.16846">
        <ele>59</ele>
        <time>2022-04-12T14:33:05Z</time>
      </trkpt>
      <trkpt lat="47.19955" lon="-0.16828">
        <ele>59</ele>
        <time>2022-04-12T14:33:08Z</time>
      </trkpt>
      <trkpt lat="47.19939" lon="-0.16764">
        <ele>57</ele>
        <time>2022-04-12T14:33:16Z</time>
      </trkpt>
      <trkpt lat="47.19929" lon="-0.16749">
        <ele>56</ele>
        <time>2022-04-12T14:33:18Z</time>
      </trkpt>
      <trkpt lat="47.19915" lon="-0.16738">
        <ele>56</ele>
        <time>2022-04-12T14:33:21Z</time>
      </trkpt>
      <trkpt lat="47.19833" lon="-0.16709">
        <ele>56</ele>
        <time>2022-04-12T14:33:36Z</time>
      </trkpt>
      <trkpt lat="47.198" lon="-0.16707">
        <ele>56</ele>
        <time>2022-04-12T14:33:42Z</time>
      </trkpt>
      <trkpt lat="47.19727" lon="-0.1671">
        <ele>56</ele>
        <time>2022-04-12T14:33:55Z</time>
      </trkpt>
      <trkpt lat="47.19698" lon="-0.16706">
        <ele>55</ele>
        <time>2022-04-12T14:34:00Z</time>
      </trkpt>
      <trkpt lat="47.1968" lon="-0.16701">
        <ele>54</ele>
        <time>2022-04-12T14:34:04Z</time>
      </trkpt>
      <trkpt lat="47.19638" lon="-0.16678">
        <ele>54</ele>
        <time>2022-04-12T14:34:12Z</time>
      </trkpt>
      <trkpt lat="47.19408" lon="-0.1653">
        <ele>53</ele>
        <time>2022-04-12T14:34:56Z</time>
      </trkpt>
      <trkpt lat="47.19328" lon="-0.16495">
        <ele>52</ele>
        <time>2022-04-12T14:35:11Z</time>
      </trkpt>
      <trkpt lat="47.19291" lon="-0.16483">
        <ele>51</ele>
        <time>2022-04-12T14:35:18Z</time>
      </trkpt>
      <trkpt lat="47.19231" lon="-0.16467">
        <ele>49</ele>
        <time>2022-04-12T14:35:29Z</time>
      </trkpt>
      <trkpt lat="47.19191" lon="-0.16461">
        <ele>47</ele>
        <time>2022-04-12T14:35:36Z</time>
      </trkpt>
      <trkpt lat="47.19111" lon="-0.16462">
        <ele>45</ele>
        <time>2022-04-12T14:35:50Z</time>
      </trkpt>
      <trkpt lat="47.19074" lon="-0.16466">
        <ele>44</ele>
        <time>2022-04-12T14:35:57Z</time>
      </trkpt>
      <trkpt lat="47.19052" lon="-0.16474">
        <ele>44</ele>
        <time>2022-04-12T14:36:01Z</time>
      </trkpt>
      <trkpt lat="47.19022" lon="-0.16493">
        <ele>44</ele>
        <time>2022-04-12T14:36:06Z</time>
      </trkpt>
      <trkpt lat="47.1901" lon="-0.16511">
        <ele>44</ele>
        <time>2022-04-12T14:36:10Z</time>
      </trkpt>
      <trkpt lat="47.19005" lon="-0.16541">
        <ele>44</ele>
        <time>2022-04-12T14:36:13Z</time>
      </trkpt>
      <trkpt lat="47.1901" lon="-0.16648">
        <ele>45</ele>
        <time>2022-04-12T14:36:26Z</time>
      </trkpt>
      <trkpt lat="47.19003" lon="-0.16686">
        <ele>45</ele>
        <time>2022-04-12T14:36:31Z</time>
      </trkpt>
      <trkpt lat="47.18961" lon="-0.16776">
        <ele>44</ele>
        <time>2022-04-12T14:36:44Z</time>
      </trkpt>
      <trkpt lat="47.18952" lon="-0.16787">
        <ele>44</ele>
        <time>2022-04-12T14:36:46Z</time>
      </trkpt>
      <trkpt lat="47.18937" lon="-0.16797">
        <ele>43</ele>
        <time>2022-04-12T14:36:49Z</time>
      </trkpt>
      <trkpt lat="47.18927" lon="-0.16798">
        <ele>43</ele>
        <time>2022-04-12T14:36:51Z</time>
      </trkpt>
      <trkpt lat="47.18867" lon="-0.16785">
        <ele>42</ele>
        <time>2022-04-12T14:37:02Z</time>
      </trkpt>
      <trkpt lat="47.18814" lon="-0.16768">
        <ele>42</ele>
        <time>2022-04-12T14:37:11Z</time>
      </trkpt>
      <trkpt lat="47.18685" lon="-0.16718">
        <ele>42</ele>
        <time>2022-04-12T14:37:35Z</time>
      </trkpt>
      <trkpt lat="47.1863" lon="-0.16707">
        <ele>44</ele>
        <time>2022-04-12T14:37:45Z</time>
      </trkpt>
      <trkpt lat="47.18586" lon="-0.16706">
        <ele>45</ele>
        <time>2022-04-12T14:37:53Z</time>
      </trkpt>
      <trkpt lat="47.18401" lon="-0.16731">
        <ele>46</ele>
        <time>2022-04-12T14:38:26Z</time>
      </trkpt>
      <trkpt lat="47.18361" lon="-0.16731">
        <ele>44</ele>
        <time>2022-04-12T14:38:33Z</time>
      </trkpt>
      <trkpt lat="47.18276" lon="-0.16681">
        <ele>43</ele>
        <time>2022-04-12T14:38:49Z</time>
      </trkpt>
      <trkpt lat="47.18254" lon="-0.16665">
        <ele>43</ele>
        <time>2022-04-12T14:38:54Z</time>
      </trkpt>
      <trkpt lat="47.18213" lon="-0.16627">
        <ele>44</ele>
        <time>2022-04-12T14:39:02Z</time>
      </trkpt>
      <trkpt lat="47.18178" lon="-0.16583">
        <ele>45</ele>
        <time>2022-04-12T14:39:11Z</time>
      </trkpt>
      <trkpt lat="47.18162" lon="-0.16571">
        <ele>45</ele>
        <time>2022-04-12T14:39:14Z</time>
      </trkpt>
      <trkpt lat="47.18129" lon="-0.16556">
        <ele>44</ele>
        <time>2022-04-12T14:39:20Z</time>
      </trkpt>
      <trkpt lat="47.18119" lon="-0.16554">
        <ele>44</ele>
        <time>2022-04-12T14:39:22Z</time>
      </trkpt>
      <trkpt lat="47.18072" lon="-0.16552">
        <ele>44</ele>
        <time>2022-04-12T14:39:30Z</time>
      </trkpt>
      <trkpt lat="47.17996" lon="-0.1654">
        <ele>44</ele>
        <time>2022-04-12T14:39:44Z</time>
      </trkpt>
      <trkpt lat="47.17968" lon="-0.16539">
        <ele>44</ele>
        <time>2022-04-12T14:39:49Z</time>
      </trkpt>
      <trkpt lat="47.17949" lon="-0.16546">
        <ele>44</ele>
        <time>2022-04-12T14:39:52Z</time>
      </trkpt>
      <trkpt lat="47.17861" lon="-0.1661">
        <ele>45</ele>
        <time>2022-04-12T14:40:10Z</time>
      </trkpt>
      <trkpt lat="47.17842" lon="-0.1662">
        <ele>45</ele>
        <time>2022-04-12T14:40:13Z</time>
      </trkpt>
      <trkpt lat="47.17831" lon="-0.16623">
        <ele>45</ele>
        <time>2022-04-12T14:40:15Z</time>
      </trkpt>
      <trkpt lat="47.17808" lon="-0.16621">
        <ele>46</ele>
        <time>2022-04-12T14:40:19Z</time>
      </trkpt>
      <trkpt lat="47.17783" lon="-0.16607">
        <ele>46</ele>
        <time>2022-04-12T14:40:24Z</time>
      </trkpt>
      <trkpt lat="47.17701" lon="-0.16541">
        <ele>48</ele>
        <time>2022-04-12T14:40:41Z</time>
      </trkpt>
      <trkpt lat="47.17627" lon="-0.16476">
        <ele>49</ele>
        <time>2022-04-12T14:40:56Z</time>
      </trkpt>
      <trkpt lat="47.17596" lon="-0.16457">
        <ele>48</ele>
        <time>2022-04-12T14:41:02Z</time>
      </trkpt>
      <trkpt lat="47.17582" lon="-0.16451">
        <ele>48</ele>
        <time>2022-04-12T14:41:05Z</time>
      </trkpt>
      <trkpt lat="47.17516" lon="-0.16432">
        <ele>49</ele>
        <time>2022-04-12T14:41:17Z</time>
      </trkpt>
      <trkpt lat="47.17448" lon="-0.16406">
        <ele>50</ele>
        <time>2022-04-12T14:41:29Z</time>
      </trkpt>
      <trkpt lat="47.1739" lon="-0.16379">
        <ele>50</ele>
        <time>2022-04-12T14:41:40Z</time>
      </trkpt>
      <trkpt lat="47.17341" lon="-0.16364">
        <ele>51</ele>
        <time>2022-04-12T14:41:49Z</time>
      </trkpt>
      <trkpt lat="47.17319" lon="-0.16363">
        <ele>51</ele>
        <time>2022-04-12T14:41:53Z</time>
      </trkpt>
      <trkpt lat="47.17277" lon="-0.16367">
        <ele>51</ele>
        <time>2022-04-12T14:42:00Z</time>
      </trkpt>
      <trkpt lat="47.172" lon="-0.16379">
        <ele>55</ele>
        <time>2022-04-12T14:42:14Z</time>
      </trkpt>
      <trkpt lat="47.1712" lon="-0.16382">
        <ele>58</ele>
        <time>2022-04-12T14:42:28Z</time>
      </trkpt>
      <trkpt lat="47.17067" lon="-0.16381">
        <ele>58</ele>
        <time>2022-04-12T14:42:38Z</time>
      </trkpt>
      <trkpt lat="47.17024" lon="-0.16377">
        <ele>56</ele>
        <time>2022-04-12T14:42:45Z</time>
      </trkpt>
      <trkpt lat="47.1699" lon="-0.16369">
        <ele>55</ele>
        <time>2022-04-12T14:42:51Z</time>
      </trkpt>
      <trkpt lat="47.1696" lon="-0.16358">
        <ele>54</ele>
        <time>2022-04-12T14:42:57Z</time>
      </trkpt>
      <trkpt lat="47.16914" lon="-0.16331">
        <ele>53</ele>
        <time>2022-04-12T14:43:06Z</time>
      </trkpt>
      <trkpt lat="47.16861" lon="-0.16288">
        <ele>53</ele>
        <time>2022-04-12T14:43:16Z</time>
      </trkpt>
      <trkpt lat="47.16786" lon="-0.16201">
        <ele>53</ele>
        <time>2022-04-12T14:43:33Z</time>
      </trkpt>
      <trkpt lat="47.16775" lon="-0.16193">
        <ele>54</ele>
        <time>2022-04-12T14:43:36Z</time>
      </trkpt>
      <trkpt lat="47.16726" lon="-0.16172">
        <ele>55</ele>
        <time>2022-04-12T14:43:45Z</time>
      </trkpt>
      <trkpt lat="47.16696" lon="-0.16163">
        <ele>55</ele>
        <time>2022-04-12T14:43:50Z</time>
      </trkpt>
      <trkpt lat="47.16514" lon="-0.16115">
        <ele>56</ele>
        <time>2022-04-12T14:44:23Z</time>
      </trkpt>
      <trkpt lat="47.16445" lon="-0.16099">
        <ele>56</ele>
        <time>2022-04-12T14:44:36Z</time>
      </trkpt>
      <trkpt lat="47.16409" lon="-0.16098">
        <ele>57</ele>
        <time>2022-04-12T14:44:42Z</time>
      </trkpt>
      <trkpt lat="47.16379" lon="-0.16103">
        <ele>57</ele>
        <time>2022-04-12T14:44:47Z</time>
      </trkpt>
      <trkpt lat="47.16352" lon="-0.16115">
        <ele>56</ele>
        <time>2022-04-12T14:44:52Z</time>
      </trkpt>
      <trkpt lat="47.16237" lon="-0.16183">
        <ele>56</ele>
        <time>2022-04-12T14:45:14Z</time>
      </trkpt>
      <trkpt lat="47.16216" lon="-0.16193">
        <ele>57</ele>
        <time>2022-04-12T14:45:18Z</time>
      </trkpt>
      <trkpt lat="47.16202" lon="-0.16198">
        <ele>58</ele>
        <time>2022-04-12T14:45:21Z</time>
      </trkpt>
      <trkpt lat="47.1611" lon="-0.16218">
        <ele>60</ele>
        <time>2022-04-12T14:45:37Z</time>
      </trkpt>
      <trkpt lat="47.16028" lon="-0.16252">
        <ele>61</ele>
        <time>2022-04-12T14:45:53Z</time>
      </trkpt>
      <trkpt lat="47.16006" lon="-0.16257">
        <ele>61</ele>
        <time>2022-04-12T14:45:57Z</time>
      </trkpt>
      <trkpt lat="47.15995" lon="-0.16257">
        <ele>61</ele>
        <time>2022-04-12T14:45:58Z</time>
      </trkpt>
      <trkpt lat="47.15937" lon="-0.16245">
        <ele>60</ele>
        <time>2022-04-12T14:46:09Z</time>
      </trkpt>
      <trkpt lat="47.15897" lon="-0.16246">
        <ele>58</ele>
        <time>2022-04-12T14:46:16Z</time>
      </trkpt>
      <trkpt lat="47.15879" lon="-0.1625">
        <ele>57</ele>
        <time>2022-04-12T14:46:19Z</time>
      </trkpt>
      <trkpt lat="47.15725" lon="-0.16301">
        <ele>51</ele>
        <time>2022-04-12T14:46:47Z</time>
      </trkpt>
      <trkpt lat="47.15685" lon="-0.1631">
        <ele>50</ele>
        <time>2022-04-12T14:46:55Z</time>
      </trkpt>
      <trkpt lat="47.15609" lon="-0.16318">
        <ele>48</ele>
        <time>2022-04-12T14:47:08Z</time>
      </trkpt>
      <trkpt lat="47.15437" lon="-0.16298">
        <ele>49</ele>
        <time>2022-04-12T14:47:39Z</time>
      </trkpt>
      <trkpt lat="47.15372" lon="-0.16299">
        <ele>50</ele>
        <time>2022-04-12T14:47:50Z</time>
      </trkpt>
      <trkpt lat="47.1506" lon="-0.16322">
        <ele>53</ele>
        <time>2022-04-12T14:48:46Z</time>
      </trkpt>
      <trkpt lat="47.15005" lon="-0.16318">
        <ele>53</ele>
        <time>2022-04-12T14:48:56Z</time>
      </trkpt>
      <trkpt lat="47.14971" lon="-0.16305">
        <ele>55</ele>
        <time>2022-04-12T14:49:02Z</time>
      </trkpt>
      <trkpt lat="47.14948" lon="-0.16293">
        <ele>56</ele>
        <time>2022-04-12T14:49:06Z</time>
      </trkpt>
      <trkpt lat="47.14919" lon="-0.16275">
        <ele>58</ele>
        <time>2022-04-12T14:49:12Z</time>
      </trkpt>
      <trkpt lat="47.14832" lon="-0.16212">
        <ele>58</ele>
        <time>2022-04-12T14:49:29Z</time>
      </trkpt>
      <trkpt lat="47.14793" lon="-0.16179">
        <ele>57</ele>
        <time>2022-04-12T14:49:37Z</time>
      </trkpt>
      <trkpt lat="47.14733" lon="-0.16117">
        <ele>57</ele>
        <time>2022-04-12T14:49:50Z</time>
      </trkpt>
      <trkpt lat="47.14697" lon="-0.1609">
        <ele>56</ele>
        <time>2022-04-12T14:49:57Z</time>
      </trkpt>
      <trkpt lat="47.14559" lon="-0.16015">
        <ele>59</ele>
        <time>2022-04-12T14:50:24Z</time>
      </trkpt>
      <trkpt lat="47.14467" lon="-0.15952">
        <ele>59</ele>
        <time>2022-04-12T14:50:42Z</time>
      </trkpt>
      <trkpt lat="47.1442" lon="-0.15924">
        <ele>59</ele>
        <time>2022-04-12T14:50:51Z</time>
      </trkpt>
      <trkpt lat="47.14385" lon="-0.15909">
        <ele>59</ele>
        <time>2022-04-12T14:50:57Z</time>
      </trkpt>
      <trkpt lat="47.14325" lon="-0.15888">
        <ele>59</ele>
        <time>2022-04-12T14:51:08Z</time>
      </trkpt>
      <trkpt lat="47.14287" lon="-0.15866">
        <ele>59</ele>
        <time>2022-04-12T14:51:15Z</time>
      </trkpt>
      <trkpt lat="47.14246" lon="-0.15826">
        <ele>58</ele>
        <time>2022-04-12T14:51:24Z</time>
      </trkpt>
      <trkpt lat="47.14148" lon="-0.15704">
        <ele>56</ele>
        <time>2022-04-12T14:51:47Z</time>
      </trkpt>
      <trkpt lat="47.14132" lon="-0.15678">
        <ele>55</ele>
        <time>2022-04-12T14:51:51Z</time>
      </trkpt>
      <trkpt lat="47.14128" lon="-0.15667">
        <ele>55</ele>
        <time>2022-04-12T14:51:53Z</time>
      </trkpt>
      <trkpt lat="47.14128" lon="-0.15642">
        <ele>55</ele>
        <time>2022-04-12T14:51:56Z</time>
      </trkpt>
      <trkpt lat="47.14136" lon="-0.15616">
        <ele>54</ele>
        <time>2022-04-12T14:51:59Z</time>
      </trkpt>
      <trkpt lat="47.14167" lon="-0.15559">
        <ele>54</ele>
        <time>2022-04-12T14:52:08Z</time>
      </trkpt>
      <trkpt lat="47.14214" lon="-0.15486">
        <ele>54</ele>
        <time>2022-04-12T14:52:20Z</time>
      </trkpt>
      <trkpt lat="47.14237" lon="-0.15461">
        <ele>55</ele>
        <time>2022-04-12T14:52:25Z</time>
      </trkpt>
      <trkpt lat="47.14274" lon="-0.15439">
        <ele>55</ele>
        <time>2022-04-12T14:52:32Z</time>
      </trkpt>
      <trkpt lat="47.14281" lon="-0.15432">
        <ele>55</ele>
        <time>2022-04-12T14:52:34Z</time>
      </trkpt>
      <trkpt lat="47.14287" lon="-0.15416">
        <ele>55</ele>
        <time>2022-04-12T14:52:36Z</time>
      </trkpt>
      <trkpt lat="47.14286" lon="-0.15401">
        <ele>55</ele>
        <time>2022-04-12T14:52:38Z</time>
      </trkpt>
      <trkpt lat="47.14272" lon="-0.15371">
        <ele>54</ele>
        <time>2022-04-12T14:52:42Z</time>
      </trkpt>
      <trkpt lat="47.1426" lon="-0.15361">
        <ele>54</ele>
        <time>2022-04-12T14:52:45Z</time>
      </trkpt>
      <trkpt lat="47.14247" lon="-0.15354">
        <ele>53</ele>
        <time>2022-04-12T14:52:47Z</time>
      </trkpt>
      <trkpt lat="47.14232" lon="-0.1535">
        <ele>53</ele>
        <time>2022-04-12T14:52:50Z</time>
      </trkpt>
      <trkpt lat="47.14213" lon="-0.15354">
        <ele>52</ele>
        <time>2022-04-12T14:52:53Z</time>
      </trkpt>
      <trkpt lat="47.13959" lon="-0.15487">
        <ele>49</ele>
        <time>2022-04-12T14:53:41Z</time>
      </trkpt>
      <trkpt lat="47.13757" lon="-0.15599">
        <ele>41</ele>
        <time>2022-04-12T14:54:20Z</time>
      </trkpt>
      <trkpt lat="47.13726" lon="-0.15613">
        <ele>39</ele>
        <time>2022-04-12T14:54:26Z</time>
      </trkpt>
      <trkpt lat="47.13715" lon="-0.15622">
        <ele>38</ele>
        <time>2022-04-12T14:54:28Z</time>
      </trkpt>
      <trkpt lat="47.13518" lon="-0.15398">
        <ele>34</ele>
        <time>2022-04-12T14:55:12Z</time>
      </trkpt>
      <trkpt lat="47.13505" lon="-0.15398">
        <ele>34</ele>
        <time>2022-04-12T14:55:14Z</time>
      </trkpt>
      <trkpt lat="47.13472" lon="-0.1537">
        <ele>38</ele>
        <time>2022-04-12T14:55:21Z</time>
      </trkpt>
      <trkpt lat="47.13465" lon="-0.15367">
        <ele>38</ele>
        <time>2022-04-12T14:55:23Z</time>
      </trkpt>
      <trkpt lat="47.13456" lon="-0.15367">
        <ele>39</ele>
        <time>2022-04-12T14:55:24Z</time>
      </trkpt>
      <trkpt lat="47.13432" lon="-0.15381">
        <ele>41</ele>
        <time>2022-04-12T14:55:29Z</time>
      </trkpt>
      <trkpt lat="47.13411" lon="-0.15413">
        <ele>42</ele>
        <time>2022-04-12T14:55:34Z</time>
      </trkpt>
      <trkpt lat="47.13408" lon="-0.1547">
        <ele>39</ele>
        <time>2022-04-12T14:55:41Z</time>
      </trkpt>
      <trkpt lat="47.13404" lon="-0.1549">
        <ele>38</ele>
        <time>2022-04-12T14:55:44Z</time>
      </trkpt>
      <trkpt lat="47.13359" lon="-0.15593">
        <ele>38</ele>
        <time>2022-04-12T14:55:58Z</time>
      </trkpt>
      <trkpt lat="47.13357" lon="-0.15602">
        <ele>38</ele>
        <time>2022-04-12T14:56:00Z</time>
      </trkpt>
      <trkpt lat="47.13344" lon="-0.15592">
        <ele>39</ele>
        <time>2022-04-12T14:56:02Z</time>
      </trkpt>
      <trkpt lat="47.13337" lon="-0.15594">
        <ele>40</ele>
        <time>2022-04-12T14:56:03Z</time>
      </trkpt>
      <trkpt lat="47.13329" lon="-0.15605">
        <ele>40</ele>
        <time>2022-04-12T14:56:05Z</time>
      </trkpt>
      <trkpt lat="47.13308" lon="-0.15661">
        <ele>40</ele>
        <time>2022-04-12T14:56:13Z</time>
      </trkpt>
      <trkpt lat="47.13303" lon="-0.15659">
        <ele>41</ele>
        <time>2022-04-12T14:56:14Z</time>
      </trkpt>
      <trkpt lat="47.1329" lon="-0.15663">
        <ele>43</ele>
        <time>2022-04-12T14:56:16Z</time>
      </trkpt>
      <trkpt lat="47.13287" lon="-0.15667">
        <ele>43</ele>
        <time>2022-04-12T14:56:17Z</time>
      </trkpt>
      <trkpt lat="47.13278" lon="-0.15663">
        <ele>44</ele>
        <time>2022-04-12T14:56:19Z</time>
      </trkpt>
      <trkpt lat="47.13275" lon="-0.15658">
        <ele>45</ele>
        <time>2022-04-12T14:56:20Z</time>
      </trkpt>
      <trkpt lat="47.13272" lon="-0.15641">
        <ele>47</ele>
        <time>2022-04-12T14:56:22Z</time>
      </trkpt>
      <trkpt lat="47.13275" lon="-0.15598">
        <ele>50</ele>
        <time>2022-04-12T14:56:27Z</time>
      </trkpt>
      <trkpt lat="47.13273" lon="-0.15583">
        <ele>52</ele>
        <time>2022-04-12T14:56:29Z</time>
      </trkpt>
      <trkpt lat="47.13267" lon="-0.15568">
        <ele>54</ele>
        <time>2022-04-12T14:56:31Z</time>
      </trkpt>
      <trkpt lat="47.13236" lon="-0.15554">
        <ele>58</ele>
        <time>2022-04-12T14:56:37Z</time>
      </trkpt>
      <trkpt lat="47.13228" lon="-0.15571">
        <ele>58</ele>
        <time>2022-04-12T14:56:39Z</time>
      </trkpt>
      <trkpt lat="47.13197" lon="-0.15619">
        <ele>58</ele>
        <time>2022-04-12T14:56:47Z</time>
      </trkpt>
      <trkpt lat="47.13143" lon="-0.15502">
        <ele>60</ele>
        <time>2022-04-12T14:57:04Z</time>
      </trkpt>
      <trkpt lat="47.13094" lon="-0.15425">
        <ele>60</ele>
        <time>2022-04-12T14:57:17Z</time>
      </trkpt>
      <trkpt lat="47.13121" lon="-0.15369">
        <ele>59</ele>
        <time>2022-04-12T14:57:25Z</time>
      </trkpt>
      <trkpt lat="47.13085" lon="-0.15332">
        <ele>60</ele>
        <time>2022-04-12T14:57:33Z</time>
      </trkpt>
      <trkpt lat="47.13002" lon="-0.15267">
        <ele>58</ele>
        <time>2022-04-12T14:57:50Z</time>
      </trkpt>
      <trkpt lat="47.12991" lon="-0.15255">
        <ele>58</ele>
        <time>2022-04-12T14:57:52Z</time>
      </trkpt>
      <trkpt lat="47.12994" lon="-0.1525">
        <ele>58</ele>
        <time>2022-04-12T14:57:53Z</time>
      </trkpt>
      <trkpt lat="47.12993" lon="-0.15243">
        <ele>58</ele>
        <time>2022-04-12T14:57:54Z</time>
      </trkpt>
      <trkpt lat="47.13041" lon="-0.15165">
        <ele>59</ele>
        <time>2022-04-12T14:58:07Z</time>
      </trkpt>
      <trkpt lat="47.13046" lon="-0.15167">
        <ele>59</ele>
        <time>2022-04-12T14:58:08Z</time>
      </trkpt>
      <trkpt lat="47.1305" lon="-0.15164">
        <ele>59</ele>
        <time>2022-04-12T14:58:08Z</time>
      </trkpt>
      <trkpt lat="47.13052" lon="-0.15155">
        <ele>59</ele>
        <time>2022-04-12T14:58:10Z</time>
      </trkpt>
      <trkpt lat="47.1305" lon="-0.15149">
        <ele>59</ele>
        <time>2022-04-12T14:58:10Z</time>
      </trkpt>
      <trkpt lat="47.13043" lon="-0.15147">
        <ele>59</ele>
        <time>2022-04-12T14:58:12Z</time>
      </trkpt>
      <trkpt lat="47.13031" lon="-0.15126">
        <ele>59</ele>
        <time>2022-04-12T14:58:15Z</time>
      </trkpt>
      <trkpt lat="47.12999" lon="-0.15008">
        <ele>60</ele>
        <time>2022-04-12T14:58:30Z</time>
      </trkpt>
      <trkpt lat="47.12987" lon="-0.14981">
        <ele>60</ele>
        <time>2022-04-12T14:58:34Z</time>
      </trkpt>
      <trkpt lat="47.12999" lon="-0.14974">
        <ele>60</ele>
        <time>2022-04-12T14:58:37Z</time>
      </trkpt>
      <trkpt lat="47.13006" lon="-0.14959">
        <ele>61</ele>
        <time>2022-04-12T14:58:39Z</time>
      </trkpt>
      <trkpt lat="47.13015" lon="-0.1489">
        <ele>62</ele>
        <time>2022-04-12T14:58:47Z</time>
      </trkpt>
      <trkpt lat="47.13022" lon="-0.14854">
        <ele>62</ele>
        <time>2022-04-12T14:58:52Z</time>
      </trkpt>
      <trkpt lat="47.13032" lon="-0.1482">
        <ele>63</ele>
        <time>2022-04-12T14:58:56Z</time>
      </trkpt>
      <trkpt lat="47.13059" lon="-0.14758">
        <ele>63</ele>
        <time>2022-04-12T14:59:05Z</time>
      </trkpt>
      <trkpt lat="47.13102" lon="-0.14671">
        <ele>65</ele>
        <time>2022-04-12T14:59:18Z</time>
      </trkpt>
      <trkpt lat="47.13121" lon="-0.14593">
        <ele>64</ele>
        <time>2022-04-12T14:59:28Z</time>
      </trkpt>
      <trkpt lat="47.13125" lon="-0.14535">
        <ele>64</ele>
        <time>2022-04-12T14:59:35Z</time>
      </trkpt>
      <trkpt lat="47.13136" lon="-0.14246">
        <ele>64</ele>
        <time>2022-04-12T15:00:10Z</time>
      </trkpt>
      <trkpt lat="47.13137" lon="-0.1417">
        <ele>63</ele>
        <time>2022-04-12T15:00:20Z</time>
      </trkpt>
      <trkpt lat="47.13135" lon="-0.14117">
        <ele>62</ele>
        <time>2022-04-12T15:00:26Z</time>
      </trkpt>
      <trkpt lat="47.13117" lon="-0.13891">
        <ele>61</ele>
        <time>2022-04-12T15:00:54Z</time>
      </trkpt>
      <trkpt lat="47.13098" lon="-0.13786">
        <ele>60</ele>
        <time>2022-04-12T15:01:07Z</time>
      </trkpt>
      <trkpt lat="47.13062" lon="-0.13618">
        <ele>57</ele>
        <time>2022-04-12T15:01:28Z</time>
      </trkpt>
      <trkpt lat="47.13059" lon="-0.1357">
        <ele>56</ele>
        <time>2022-04-12T15:01:34Z</time>
      </trkpt>
      <trkpt lat="47.13063" lon="-0.13519">
        <ele>54</ele>
        <time>2022-04-12T15:01:40Z</time>
      </trkpt>
      <trkpt lat="47.13076" lon="-0.1346">
        <ele>52</ele>
        <time>2022-04-12T15:01:48Z</time>
      </trkpt>
      <trkpt lat="47.13113" lon="-0.13359">
        <ele>49</ele>
        <time>2022-04-12T15:02:01Z</time>
      </trkpt>
      <trkpt lat="47.13143" lon="-0.13253">
        <ele>45</ele>
        <time>2022-04-12T15:02:15Z</time>
      </trkpt>
      <trkpt lat="47.13205" lon="-0.12965">
        <ele>42</ele>
        <time>2022-04-12T15:02:52Z</time>
      </trkpt>
      <trkpt lat="47.1322" lon="-0.12904">
        <ele>42</ele>
        <time>2022-04-12T15:03:00Z</time>
      </trkpt>
      <trkpt lat="47.13265" lon="-0.1256">
        <ele>39</ele>
        <time>2022-04-12T15:03:42Z</time>
      </trkpt>
      <trkpt lat="47.13322" lon="-0.12183">
        <ele>39</ele>
        <time>2022-04-12T15:04:29Z</time>
      </trkpt>
      <trkpt lat="47.1334" lon="-0.11993">
        <ele>39</ele>
        <time>2022-04-12T15:04:52Z</time>
      </trkpt>
      <trkpt lat="47.13358" lon="-0.1189">
        <ele>42</ele>
        <time>2022-04-12T15:05:05Z</time>
      </trkpt>
      <trkpt lat="47.13408" lon="-0.11677">
        <ele>48</ele>
        <time>2022-04-12T15:05:32Z</time>
      </trkpt>
      <trkpt lat="47.13421" lon="-0.11604">
        <ele>50</ele>
        <time>2022-04-12T15:05:41Z</time>
      </trkpt>
      <trkpt lat="47.13421" lon="-0.11565">
        <ele>50</ele>
        <time>2022-04-12T15:05:46Z</time>
      </trkpt>
      <trkpt lat="47.13408" lon="-0.11449">
        <ele>53</ele>
        <time>2022-04-12T15:06:00Z</time>
      </trkpt>
      <trkpt lat="47.13418" lon="-0.11257">
        <ele>52</ele>
        <time>2022-04-12T15:06:24Z</time>
      </trkpt>
      <trkpt lat="47.13427" lon="-0.11232">
        <ele>52</ele>
        <time>2022-04-12T15:06:27Z</time>
      </trkpt>
      <trkpt lat="47.13457" lon="-0.11192">
        <ele>51</ele>
        <time>2022-04-12T15:06:34Z</time>
      </trkpt>
      <trkpt lat="47.1347" lon="-0.11166">
        <ele>51</ele>
        <time>2022-04-12T15:06:38Z</time>
      </trkpt>
      <trkpt lat="47.1347" lon="-0.11137">
        <ele>51</ele>
        <time>2022-04-12T15:06:42Z</time>
      </trkpt>
      <trkpt lat="47.13483" lon="-0.11131">
        <ele>51</ele>
        <time>2022-04-12T15:06:44Z</time>
      </trkpt>
      <trkpt lat="47.1347" lon="-0.11137">
        <ele>51</ele>
        <time>2022-04-12T15:06:47Z</time>
      </trkpt>
      <trkpt lat="47.13467" lon="-0.11107">
        <ele>51</ele>
        <time>2022-04-12T15:06:50Z</time>
      </trkpt>
      <trkpt lat="47.1345" lon="-0.11029">
        <ele>50</ele>
        <time>2022-04-12T15:07:00Z</time>
      </trkpt>
      <trkpt lat="47.13448" lon="-0.11004">
        <ele>50</ele>
        <time>2022-04-12T15:07:03Z</time>
      </trkpt>
      <trkpt lat="47.13449" lon="-0.10969">
        <ele>50</ele>
        <time>2022-04-12T15:07:07Z</time>
      </trkpt>
      <trkpt lat="47.1347" lon="-0.10785">
        <ele>47</ele>
        <time>2022-04-12T15:07:30Z</time>
      </trkpt>
      <trkpt lat="47.13464" lon="-0.1072">
        <ele>46</ele>
        <time>2022-04-12T15:07:38Z</time>
      </trkpt>
      <trkpt lat="47.13461" lon="-0.10651">
        <ele>45</ele>
        <time>2022-04-12T15:07:46Z</time>
      </trkpt>
      <trkpt lat="47.13458" lon="-0.10415">
        <ele>41</ele>
        <time>2022-04-12T15:08:15Z</time>
      </trkpt>
      <trkpt lat="47.13438" lon="-0.10235">
        <ele>44</ele>
        <time>2022-04-12T15:08:37Z</time>
      </trkpt>
      <trkpt lat="47.13435" lon="-0.10114">
        <ele>46</ele>
        <time>2022-04-12T15:08:52Z</time>
      </trkpt>
      <trkpt lat="47.13414" lon="-0.0992">
        <ele>46</ele>
        <time>2022-04-12T15:09:15Z</time>
      </trkpt>
      <trkpt lat="47.13412" lon="-0.09862">
        <ele>46</ele>
        <time>2022-04-12T15:09:22Z</time>
      </trkpt>
      <trkpt lat="47.13416" lon="-0.09801">
        <ele>47</ele>
        <time>2022-04-12T15:09:30Z</time>
      </trkpt>
      <trkpt lat="47.13431" lon="-0.097">
        <ele>47</ele>
        <time>2022-04-12T15:09:42Z</time>
      </trkpt>
      <trkpt lat="47.13435" lon="-0.09655">
        <ele>47</ele>
        <time>2022-04-12T15:09:48Z</time>
      </trkpt>
      <trkpt lat="47.13433" lon="-0.09542">
        <ele>46</ele>
        <time>2022-04-12T15:10:02Z</time>
      </trkpt>
      <trkpt lat="47.13429" lon="-0.09491">
        <ele>45</ele>
        <time>2022-04-12T15:10:08Z</time>
      </trkpt>
      <trkpt lat="47.13414" lon="-0.09376">
        <ele>46</ele>
        <time>2022-04-12T15:10:22Z</time>
      </trkpt>
      <trkpt lat="47.134" lon="-0.09296">
        <ele>47</ele>
        <time>2022-04-12T15:10:32Z</time>
      </trkpt>
      <trkpt lat="47.134" lon="-0.09283">
        <ele>47</ele>
        <time>2022-04-12T15:10:34Z</time>
      </trkpt>
      <trkpt lat="47.13411" lon="-0.09258">
        <ele>47</ele>
        <time>2022-04-12T15:10:37Z</time>
      </trkpt>
      <trkpt lat="47.13449" lon="-0.09204">
        <ele>47</ele>
        <time>2022-04-12T15:10:47Z</time>
      </trkpt>
      <trkpt lat="47.13465" lon="-0.09185">
        <ele>47</ele>
        <time>2022-04-12T15:10:50Z</time>
      </trkpt>
      <trkpt lat="47.13475" lon="-0.09176">
        <ele>47</ele>
        <time>2022-04-12T15:10:52Z</time>
      </trkpt>
      <trkpt lat="47.13562" lon="-0.09126">
        <ele>47</ele>
        <time>2022-04-12T15:11:09Z</time>
      </trkpt>
      <trkpt lat="47.13576" lon="-0.09114">
        <ele>47</ele>
        <time>2022-04-12T15:11:12Z</time>
      </trkpt>
      <trkpt lat="47.13593" lon="-0.09094">
        <ele>47</ele>
        <time>2022-04-12T15:11:16Z</time>
      </trkpt>
      <trkpt lat="47.13625" lon="-0.09054">
        <ele>46</ele>
        <time>2022-04-12T15:11:23Z</time>
      </trkpt>
      <trkpt lat="47.13632" lon="-0.09041">
        <ele>46</ele>
        <time>2022-04-12T15:11:25Z</time>
      </trkpt>
      <trkpt lat="47.13635" lon="-0.09022">
        <ele>46</ele>
        <time>2022-04-12T15:11:27Z</time>
      </trkpt>
      <trkpt lat="47.13632" lon="-0.08994">
        <ele>46</ele>
        <time>2022-04-12T15:11:31Z</time>
      </trkpt>
      <trkpt lat="47.13608" lon="-0.08943">
        <ele>46</ele>
        <time>2022-04-12T15:11:38Z</time>
      </trkpt>
      <trkpt lat="47.13573" lon="-0.08884">
        <ele>46</ele>
        <time>2022-04-12T15:11:48Z</time>
      </trkpt>
      <trkpt lat="47.13563" lon="-0.0886">
        <ele>45</ele>
        <time>2022-04-12T15:11:51Z</time>
      </trkpt>
      <trkpt lat="47.13541" lon="-0.0875">
        <ele>44</ele>
        <time>2022-04-12T15:12:05Z</time>
      </trkpt>
      <trkpt lat="47.1353" lon="-0.08708">
        <ele>44</ele>
        <time>2022-04-12T15:12:11Z</time>
      </trkpt>
      <trkpt lat="47.13522" lon="-0.08652">
        <ele>45</ele>
        <time>2022-04-12T15:12:18Z</time>
      </trkpt>
      <trkpt lat="47.13521" lon="-0.0862">
        <ele>45</ele>
        <time>2022-04-12T15:12:21Z</time>
      </trkpt>
      <trkpt lat="47.13509" lon="-0.08625">
        <ele>45</ele>
        <time>2022-04-12T15:12:24Z</time>
      </trkpt>
      <trkpt lat="47.13411" lon="-0.0865">
        <ele>45</ele>
        <time>2022-04-12T15:12:41Z</time>
      </trkpt>
      <trkpt lat="47.13355" lon="-0.08669">
        <ele>45</ele>
        <time>2022-04-12T15:12:52Z</time>
      </trkpt>
      <trkpt lat="47.12982" lon="-0.08831">
        <ele>47</ele>
        <time>2022-04-12T15:14:01Z</time>
      </trkpt>
      <trkpt lat="47.12971" lon="-0.08812">
        <ele>46</ele>
        <time>2022-04-12T15:14:04Z</time>
      </trkpt>
      <trkpt lat="47.1292" lon="-0.08684">
        <ele>47</ele>
        <time>2022-04-12T15:14:22Z</time>
      </trkpt>
      <trkpt lat="47.12894" lon="-0.08632">
        <ele>46</ele>
        <time>2022-04-12T15:14:30Z</time>
      </trkpt>
      <trkpt lat="47.12236" lon="-0.07486">
        <ele>32</ele>
        <time>2022-04-12T15:17:31Z</time>
      </trkpt>
      <trkpt lat="47.1219" lon="-0.07402">
        <ele>31</ele>
        <time>2022-04-12T15:17:44Z</time>
      </trkpt>
      <trkpt lat="47.11973" lon="-0.06908">
        <ele>31</ele>
        <time>2022-04-12T15:18:55Z</time>
      </trkpt>
      <trkpt lat="47.11939" lon="-0.06824">
        <ele>32</ele>
        <time>2022-04-12T15:19:07Z</time>
      </trkpt>
      <trkpt lat="47.11925" lon="-0.06779">
        <ele>34</ele>
        <time>2022-04-12T15:19:13Z</time>
      </trkpt>
      <trkpt lat="47.11919" lon="-0.06726">
        <ele>36</ele>
        <time>2022-04-12T15:19:20Z</time>
      </trkpt>
      <trkpt lat="47.11909" lon="-0.06542">
        <ele>38</ele>
        <time>2022-04-12T15:19:42Z</time>
      </trkpt>
      <trkpt lat="47.11903" lon="-0.06495">
        <ele>36</ele>
        <time>2022-04-12T15:19:48Z</time>
      </trkpt>
      <trkpt lat="47.11883" lon="-0.06385">
        <ele>39</ele>
        <time>2022-04-12T15:20:02Z</time>
      </trkpt>
      <trkpt lat="47.11874" lon="-0.06251">
        <ele>36</ele>
        <time>2022-04-12T15:20:18Z</time>
      </trkpt>
      <trkpt lat="47.11861" lon="-0.06217">
        <ele>36</ele>
        <time>2022-04-12T15:20:23Z</time>
      </trkpt>
      <trkpt lat="47.11848" lon="-0.06198">
        <ele>37</ele>
        <time>2022-04-12T15:20:26Z</time>
      </trkpt>
      <trkpt lat="47.11831" lon="-0.06188">
        <ele>37</ele>
        <time>2022-04-12T15:20:29Z</time>
      </trkpt>
      <trkpt lat="47.11786" lon="-0.06194">
        <ele>37</ele>
        <time>2022-04-12T15:20:37Z</time>
      </trkpt>
      <trkpt lat="47.11769" lon="-0.06188">
        <ele>37</ele>
        <time>2022-04-12T15:20:40Z</time>
      </trkpt>
      <trkpt lat="47.11676" lon="-0.06119">
        <ele>38</ele>
        <time>2022-04-12T15:20:59Z</time>
      </trkpt>
      <trkpt lat="47.11604" lon="-0.06071">
        <ele>37</ele>
        <time>2022-04-12T15:21:13Z</time>
      </trkpt>
      <trkpt lat="47.11591" lon="-0.06054">
        <ele>37</ele>
        <time>2022-04-12T15:21:16Z</time>
      </trkpt>
      <trkpt lat="47.11579" lon="-0.06028">
        <ele>36</ele>
        <time>2022-04-12T15:21:20Z</time>
      </trkpt>
      <trkpt lat="47.11541" lon="-0.05925">
        <ele>36</ele>
        <time>2022-04-12T15:21:34Z</time>
      </trkpt>
      <trkpt lat="47.11535" lon="-0.05915">
        <ele>36</ele>
        <time>2022-04-12T15:21:36Z</time>
      </trkpt>
      <trkpt lat="47.11522" lon="-0.05903">
        <ele>36</ele>
        <time>2022-04-12T15:21:38Z</time>
      </trkpt>
      <trkpt lat="47.1151" lon="-0.05902">
        <ele>36</ele>
        <time>2022-04-12T15:21:40Z</time>
      </trkpt>
      <trkpt lat="47.11503" lon="-0.05904">
        <ele>37</ele>
        <time>2022-04-12T15:21:42Z</time>
      </trkpt>
      <trkpt lat="47.11463" lon="-0.05932">
        <ele>37</ele>
        <time>2022-04-12T15:21:50Z</time>
      </trkpt>
      <trkpt lat="47.11416" lon="-0.05976">
        <ele>37</ele>
        <time>2022-04-12T15:22:00Z</time>
      </trkpt>
      <trkpt lat="47.11409" lon="-0.05979">
        <ele>37</ele>
        <time>2022-04-12T15:22:01Z</time>
      </trkpt>
      <trkpt lat="47.11403" lon="-0.05975">
        <ele>37</ele>
        <time>2022-04-12T15:22:02Z</time>
      </trkpt>
      <trkpt lat="47.113" lon="-0.05758">
        <ele>36</ele>
        <time>2022-04-12T15:22:34Z</time>
      </trkpt>
      <trkpt lat="47.11255" lon="-0.05642">
        <ele>35</ele>
        <time>2022-04-12T15:22:50Z</time>
      </trkpt>
      <trkpt lat="47.1124" lon="-0.05611">
        <ele>35</ele>
        <time>2022-04-12T15:22:55Z</time>
      </trkpt>
      <trkpt lat="47.11211" lon="-0.05566">
        <ele>35</ele>
        <time>2022-04-12T15:23:02Z</time>
      </trkpt>
      <trkpt lat="47.11097" lon="-0.05433">
        <ele>35</ele>
        <time>2022-04-12T15:23:28Z</time>
      </trkpt>
      <trkpt lat="47.11093" lon="-0.0542">
        <ele>35</ele>
        <time>2022-04-12T15:23:30Z</time>
      </trkpt>
      <trkpt lat="47.11094" lon="-0.05412">
        <ele>35</ele>
        <time>2022-04-12T15:23:31Z</time>
      </trkpt>
      <trkpt lat="47.11099" lon="-0.05402">
        <ele>35</ele>
        <time>2022-04-12T15:23:32Z</time>
      </trkpt>
      <trkpt lat="47.11203" lon="-0.05244">
        <ele>33</ele>
        <time>2022-04-12T15:23:59Z</time>
      </trkpt>
      <trkpt lat="47.11218" lon="-0.05213">
        <ele>32</ele>
        <time>2022-04-12T15:24:04Z</time>
      </trkpt>
      <trkpt lat="47.1122" lon="-0.05204">
        <ele>32</ele>
        <time>2022-04-12T15:24:05Z</time>
      </trkpt>
      <trkpt lat="47.11218" lon="-0.05177">
        <ele>32</ele>
        <time>2022-04-12T15:24:08Z</time>
      </trkpt>
      <trkpt lat="47.11194" lon="-0.05099">
        <ele>32</ele>
        <time>2022-04-12T15:24:18Z</time>
      </trkpt>
      <trkpt lat="47.11174" lon="-0.05013">
        <ele>32</ele>
        <time>2022-04-12T15:24:29Z</time>
      </trkpt>
      <trkpt lat="47.11166" lon="-0.04958">
        <ele>32</ele>
        <time>2022-04-12T15:24:36Z</time>
      </trkpt>
      <trkpt lat="47.11167" lon="-0.04936">
        <ele>32</ele>
        <time>2022-04-12T15:24:39Z</time>
      </trkpt>
      <trkpt lat="47.11173" lon="-0.04917">
        <ele>32</ele>
        <time>2022-04-12T15:24:41Z</time>
      </trkpt>
      <trkpt lat="47.11185" lon="-0.04899">
        <ele>32</ele>
        <time>2022-04-12T15:24:45Z</time>
      </trkpt>
      <trkpt lat="47.11256" lon="-0.04831">
        <ele>31</ele>
        <time>2022-04-12T15:25:00Z</time>
      </trkpt>
      <trkpt lat="47.11271" lon="-0.0481">
        <ele>31</ele>
        <time>2022-04-12T15:25:03Z</time>
      </trkpt>
      <trkpt lat="47.11279" lon="-0.04789">
        <ele>31</ele>
        <time>2022-04-12T15:25:06Z</time>
      </trkpt>
      <trkpt lat="47.11281" lon="-0.04777">
        <ele>31</ele>
        <time>2022-04-12T15:25:08Z</time>
      </trkpt>
      <trkpt lat="47.11281" lon="-0.04741">
        <ele>31</ele>
        <time>2022-04-12T15:25:12Z</time>
      </trkpt>
      <trkpt lat="47.11264" lon="-0.04616">
        <ele>32</ele>
        <time>2022-04-12T15:25:28Z</time>
      </trkpt>
      <trkpt lat="47.11251" lon="-0.04459">
        <ele>31</ele>
        <time>2022-04-12T15:25:47Z</time>
      </trkpt>
      <trkpt lat="47.11183" lon="-0.04001">
        <ele>31</ele>
        <time>2022-04-12T15:26:43Z</time>
      </trkpt>
      <trkpt lat="47.11169" lon="-0.03932">
        <ele>32</ele>
        <time>2022-04-12T15:26:52Z</time>
      </trkpt>
      <trkpt lat="47.11079" lon="-0.03619">
        <ele>32</ele>
        <time>2022-04-12T15:27:33Z</time>
      </trkpt>
      <trkpt lat="47.11071" lon="-0.03585">
        <ele>32</ele>
        <time>2022-04-12T15:27:38Z</time>
      </trkpt>
      <trkpt lat="47.10934" lon="-0.02785">
        <ele>34</ele>
        <time>2022-04-12T15:29:18Z</time>
      </trkpt>
      <trkpt lat="47.10906" lon="-0.02644">
        <ele>38</ele>
        <time>2022-04-12T15:29:35Z</time>
      </trkpt>
      <trkpt lat="47.10867" lon="-0.025">
        <ele>47</ele>
        <time>2022-04-12T15:29:54Z</time>
      </trkpt>
      <trkpt lat="47.10849" lon="-0.02373">
        <ele>45</ele>
        <time>2022-04-12T15:30:10Z</time>
      </trkpt>
      <trkpt lat="47.10841" lon="-0.02335">
        <ele>44</ele>
        <time>2022-04-12T15:30:15Z</time>
      </trkpt>
      <trkpt lat="47.10844" lon="-0.02328">
        <ele>44</ele>
        <time>2022-04-12T15:30:16Z</time>
      </trkpt>
      <trkpt lat="47.10843" lon="-0.0232">
        <ele>44</ele>
        <time>2022-04-12T15:30:17Z</time>
      </trkpt>
      <trkpt lat="47.10856" lon="-0.02314">
        <ele>44</ele>
        <time>2022-04-12T15:30:19Z</time>
      </trkpt>
      <trkpt lat="47.10917" lon="-0.023">
        <ele>45</ele>
        <time>2022-04-12T15:30:30Z</time>
      </trkpt>
      <trkpt lat="47.10997" lon="-0.02275">
        <ele>43</ele>
        <time>2022-04-12T15:30:45Z</time>
      </trkpt>
      <trkpt lat="47.11085" lon="-0.02256">
        <ele>43</ele>
        <time>2022-04-12T15:31:00Z</time>
      </trkpt>
      <trkpt lat="47.11109" lon="-0.02245">
        <ele>42</ele>
        <time>2022-04-12T15:31:05Z</time>
      </trkpt>
      <trkpt lat="47.11141" lon="-0.02224">
        <ele>41</ele>
        <time>2022-04-12T15:31:11Z</time>
      </trkpt>
      <trkpt lat="47.11251" lon="-0.02147">
        <ele>40</ele>
        <time>2022-04-12T15:31:33Z</time>
      </trkpt>
      <trkpt lat="47.11404" lon="-0.02013">
        <ele>39</ele>
        <time>2022-04-12T15:32:04Z</time>
      </trkpt>
      <trkpt lat="47.11779" lon="-0.01699">
        <ele>35</ele>
        <time>2022-04-12T15:33:21Z</time>
      </trkpt>
      <trkpt lat="47.11803" lon="-0.01677">
        <ele>35</ele>
        <time>2022-04-12T15:33:26Z</time>
      </trkpt>
      <trkpt lat="47.11892" lon="-0.01585">
        <ele>35</ele>
        <time>2022-04-12T15:33:46Z</time>
      </trkpt>
      <trkpt lat="47.11921" lon="-0.01562">
        <ele>34</ele>
        <time>2022-04-12T15:33:52Z</time>
      </trkpt>
      <trkpt lat="47.11958" lon="-0.01542">
        <ele>35</ele>
        <time>2022-04-12T15:33:59Z</time>
      </trkpt>
      <trkpt lat="47.12101" lon="-0.0148">
        <ele>35</ele>
        <time>2022-04-12T15:34:25Z</time>
      </trkpt>
      <trkpt lat="47.12266" lon="-0.01429">
        <ele>37</ele>
        <time>2022-04-12T15:34:55Z</time>
      </trkpt>
      <trkpt lat="47.12298" lon="-0.01413">
        <ele>39</ele>
        <time>2022-04-12T15:35:01Z</time>
      </trkpt>
      <trkpt lat="47.12341" lon="-0.01379">
        <ele>40</ele>
        <time>2022-04-12T15:35:10Z</time>
      </trkpt>
      <trkpt lat="47.12366" lon="-0.01355">
        <ele>40</ele>
        <time>2022-04-12T15:35:15Z</time>
      </trkpt>
      <trkpt lat="47.12465" lon="-0.01246">
        <ele>39</ele>
        <time>2022-04-12T15:35:37Z</time>
      </trkpt>
      <trkpt lat="47.12493" lon="-0.01219">
        <ele>39</ele>
        <time>2022-04-12T15:35:43Z</time>
      </trkpt>
      <trkpt lat="47.12652" lon="-0.01106">
        <ele>39</ele>
        <time>2022-04-12T15:36:14Z</time>
      </trkpt>
      <trkpt lat="47.12673" lon="-0.01088">
        <ele>39</ele>
        <time>2022-04-12T15:36:19Z</time>
      </trkpt>
      <trkpt lat="47.12702" lon="-0.01048">
        <ele>40</ele>
        <time>2022-04-12T15:36:26Z</time>
      </trkpt>
      <trkpt lat="47.12769" lon="-0.00908">
        <ele>44</ele>
        <time>2022-04-12T15:36:47Z</time>
      </trkpt>
      <trkpt lat="47.12791" lon="-0.00872">
        <ele>45</ele>
        <time>2022-04-12T15:36:52Z</time>
      </trkpt>
      <trkpt lat="47.12829" lon="-0.00833">
        <ele>45</ele>
        <time>2022-04-12T15:37:01Z</time>
      </trkpt>
      <trkpt lat="47.12952" lon="-0.00736">
        <ele>44</ele>
        <time>2022-04-12T15:37:26Z</time>
      </trkpt>
      <trkpt lat="47.12994" lon="-0.00699">
        <ele>44</ele>
        <time>2022-04-12T15:37:34Z</time>
      </trkpt>
      <trkpt lat="47.13043" lon="-0.00638">
        <ele>46</ele>
        <time>2022-04-12T15:37:46Z</time>
      </trkpt>
      <trkpt lat="47.13223" lon="-0.004">
        <ele>47</ele>
        <time>2022-04-12T15:38:29Z</time>
      </trkpt>
      <trkpt lat="47.13411" lon="-0.00138">
        <ele>49</ele>
        <time>2022-04-12T15:39:15Z</time>
      </trkpt>
      <trkpt lat="47.1343" lon="-0.00116">
        <ele>49</ele>
        <time>2022-04-12T15:39:19Z</time>
      </trkpt>
      <trkpt lat="47.1349" lon="-0.00064">
        <ele>48</ele>
        <time>2022-04-12T15:39:32Z</time>
      </trkpt>
      <trkpt lat="47.13525" lon="-0.0004">
        <ele>48</ele>
        <time>2022-04-12T15:39:38Z</time>
      </trkpt>
      <trkpt lat="47.13558" lon="-0.00029">
        <ele>48</ele>
        <time>2022-04-12T15:39:44Z</time>
      </trkpt>
      <trkpt lat="47.13647" lon="-0.00022">
        <ele>49</ele>
        <time>2022-04-12T15:40:00Z</time>
      </trkpt>
      <trkpt lat="47.13676" lon="-0.00012">
        <ele>49</ele>
        <time>2022-04-12T15:40:06Z</time>
      </trkpt>
      <trkpt lat="47.13694" lon="0">
        <ele>49</ele>
        <time>2022-04-12T15:40:09Z</time>
      </trkpt>
      <trkpt lat="47.13892" lon="0.00155">
        <ele>52</ele>
        <time>2022-04-12T15:40:49Z</time>
      </trkpt>
      <trkpt lat="47.14015" lon="0.00229">
        <ele>56</ele>
        <time>2022-04-12T15:41:13Z</time>
      </trkpt>
      <trkpt lat="47.14039" lon="0.00239">
        <ele>57</ele>
        <time>2022-04-12T15:41:17Z</time>
      </trkpt>
      <trkpt lat="47.14074" lon="0.00317">
        <ele>58</ele>
        <time>2022-04-12T15:41:28Z</time>
      </trkpt>
      <trkpt lat="47.14092" lon="0.00337">
        <ele>59</ele>
        <time>2022-04-12T15:41:32Z</time>
      </trkpt>
      <trkpt lat="47.14193" lon="0.00422">
        <ele>61</ele>
        <time>2022-04-12T15:41:53Z</time>
      </trkpt>
      <trkpt lat="47.1431" lon="0.0056">
        <ele>68</ele>
        <time>2022-04-12T15:42:20Z</time>
      </trkpt>
      <trkpt lat="47.14335" lon="0.00579">
        <ele>70</ele>
        <time>2022-04-12T15:42:25Z</time>
      </trkpt>
      <trkpt lat="47.14372" lon="0.0059">
        <ele>73</ele>
        <time>2022-04-12T15:42:32Z</time>
      </trkpt>
      <trkpt lat="47.14395" lon="0.00605">
        <ele>76</ele>
        <time>2022-04-12T15:42:36Z</time>
      </trkpt>
      <trkpt lat="47.14405" lon="0.00615">
        <ele>78</ele>
        <time>2022-04-12T15:42:38Z</time>
      </trkpt>
      <trkpt lat="47.14424" lon="0.00639">
        <ele>81</ele>
        <time>2022-04-12T15:42:43Z</time>
      </trkpt>
      <trkpt lat="47.14452" lon="0.00681">
        <ele>87</ele>
        <time>2022-04-12T15:42:50Z</time>
      </trkpt>
      <trkpt lat="47.14465" lon="0.00704">
        <ele>89</ele>
        <time>2022-04-12T15:42:53Z</time>
      </trkpt>
      <trkpt lat="47.1448" lon="0.00745">
        <ele>94</ele>
        <time>2022-04-12T15:42:59Z</time>
      </trkpt>
      <trkpt lat="47.14486" lon="0.00768">
        <ele>94</ele>
        <time>2022-04-12T15:43:02Z</time>
      </trkpt>
      <trkpt lat="47.14494" lon="0.00828">
        <ele>95</ele>
        <time>2022-04-12T15:43:09Z</time>
      </trkpt>
      <trkpt lat="47.14495" lon="0.00902">
        <ele>95</ele>
        <time>2022-04-12T15:43:18Z</time>
      </trkpt>
      <trkpt lat="47.14504" lon="0.00936">
        <ele>97</ele>
        <time>2022-04-12T15:43:23Z</time>
      </trkpt>
      <trkpt lat="47.14512" lon="0.00948">
        <ele>97</ele>
        <time>2022-04-12T15:43:25Z</time>
      </trkpt>
      <trkpt lat="47.14535" lon="0.00964">
        <ele>98</ele>
        <time>2022-04-12T15:43:29Z</time>
      </trkpt>
      <trkpt lat="47.1459" lon="0.00974">
        <ele>99</ele>
        <time>2022-04-12T15:43:39Z</time>
      </trkpt>
      <trkpt lat="47.1461" lon="0.00988">
        <ele>99</ele>
        <time>2022-04-12T15:43:43Z</time>
      </trkpt>
      <trkpt lat="47.14616" lon="0.00996">
        <ele>99</ele>
        <time>2022-04-12T15:43:45Z</time>
      </trkpt>
      <trkpt lat="47.14664" lon="0.01099">
        <ele>99</ele>
        <time>2022-04-12T15:44:00Z</time>
      </trkpt>
      <trkpt lat="47.14681" lon="0.01127">
        <ele>100</ele>
        <time>2022-04-12T15:44:04Z</time>
      </trkpt>
      <trkpt lat="47.14795" lon="0.01241">
        <ele>103</ele>
        <time>2022-04-12T15:44:29Z</time>
      </trkpt>
      <trkpt lat="47.14827" lon="0.01269">
        <ele>103</ele>
        <time>2022-04-12T15:44:35Z</time>
      </trkpt>
      <trkpt lat="47.15325" lon="0.01599">
        <ele>107</ele>
        <time>2022-04-12T15:46:13Z</time>
      </trkpt>
      <trkpt lat="47.15361" lon="0.01619">
        <ele>108</ele>
        <time>2022-04-12T15:46:19Z</time>
      </trkpt>
      <trkpt lat="47.15457" lon="0.01665">
        <ele>107</ele>
        <time>2022-04-12T15:46:37Z</time>
      </trkpt>
      <trkpt lat="47.15487" lon="0.01687">
        <ele>106</ele>
        <time>2022-04-12T15:46:43Z</time>
      </trkpt>
      <trkpt lat="47.1564" lon="0.01845">
        <ele>104</ele>
        <time>2022-04-12T15:47:17Z</time>
      </trkpt>
      <trkpt lat="47.15672" lon="0.01872">
        <ele>104</ele>
        <time>2022-04-12T15:47:23Z</time>
      </trkpt>
      <trkpt lat="47.15705" lon="0.0189">
        <ele>104</ele>
        <time>2022-04-12T15:47:29Z</time>
      </trkpt>
      <trkpt lat="47.15737" lon="0.01903">
        <ele>105</ele>
        <time>2022-04-12T15:47:35Z</time>
      </trkpt>
      <trkpt lat="47.15851" lon="0.01938">
        <ele>110</ele>
        <time>2022-04-12T15:47:56Z</time>
      </trkpt>
      <trkpt lat="47.16211" lon="0.02056">
        <ele>108</ele>
        <time>2022-04-12T15:49:02Z</time>
      </trkpt>
      <trkpt lat="47.16267" lon="0.02079">
        <ele>107</ele>
        <time>2022-04-12T15:49:12Z</time>
      </trkpt>
      <trkpt lat="47.16649" lon="0.02419">
        <ele>111</ele>
        <time>2022-04-12T15:50:31Z</time>
      </trkpt>
      <trkpt lat="47.16973" lon="0.02712">
        <ele>110</ele>
        <time>2022-04-12T15:51:39Z</time>
      </trkpt>
      <trkpt lat="47.17006" lon="0.02746">
        <ele>110</ele>
        <time>2022-04-12T15:51:46Z</time>
      </trkpt>
      <trkpt lat="47.17064" lon="0.0282">
        <ele>110</ele>
        <time>2022-04-12T15:52:00Z</time>
      </trkpt>
      <trkpt lat="47.17112" lon="0.02894">
        <ele>107</ele>
        <time>2022-04-12T15:52:12Z</time>
      </trkpt>
      <trkpt lat="47.17147" lon="0.02962">
        <ele>103</ele>
        <time>2022-04-12T15:52:23Z</time>
      </trkpt>
      <trkpt lat="47.17209" lon="0.03132">
        <ele>99</ele>
        <time>2022-04-12T15:52:46Z</time>
      </trkpt>
      <trkpt lat="47.1723" lon="0.03175">
        <ele>98</ele>
        <time>2022-04-12T15:52:52Z</time>
      </trkpt>
      <trkpt lat="47.17268" lon="0.03232">
        <ele>100</ele>
        <time>2022-04-12T15:53:02Z</time>
      </trkpt>
      <trkpt lat="47.17289" lon="0.03332">
        <ele>102</ele>
        <time>2022-04-12T15:53:15Z</time>
      </trkpt>
      <trkpt lat="47.173" lon="0.03372">
        <ele>102</ele>
        <time>2022-04-12T15:53:20Z</time>
      </trkpt>
      <trkpt lat="47.17341" lon="0.03494">
        <ele>96</ele>
        <time>2022-04-12T15:53:36Z</time>
      </trkpt>
      <trkpt lat="47.17393" lon="0.03614">
        <ele>89</ele>
        <time>2022-04-12T15:53:54Z</time>
      </trkpt>
      <trkpt lat="47.17416" lon="0.03659">
        <ele>85</ele>
        <time>2022-04-12T15:54:00Z</time>
      </trkpt>
      <trkpt lat="47.17468" lon="0.0374">
        <ele>82</ele>
        <time>2022-04-12T15:54:14Z</time>
      </trkpt>
      <trkpt lat="47.17503" lon="0.03807">
        <ele>81</ele>
        <time>2022-04-12T15:54:24Z</time>
      </trkpt>
      <trkpt lat="47.17533" lon="0.03877">
        <ele>80</ele>
        <time>2022-04-12T15:54:34Z</time>
      </trkpt>
      <trkpt lat="47.17578" lon="0.04004">
        <ele>79</ele>
        <time>2022-04-12T15:54:51Z</time>
      </trkpt>
      <trkpt lat="47.17598" lon="0.04051">
        <ele>78</ele>
        <time>2022-04-12T15:54:58Z</time>
      </trkpt>
      <trkpt lat="47.17622" lon="0.04085">
        <ele>78</ele>
        <time>2022-04-12T15:55:04Z</time>
      </trkpt>
      <trkpt lat="47.17659" lon="0.04126">
        <ele>78</ele>
        <time>2022-04-12T15:55:12Z</time>
      </trkpt>
      <trkpt lat="47.17709" lon="0.04211">
        <ele>81</ele>
        <time>2022-04-12T15:55:26Z</time>
      </trkpt>
      <trkpt lat="47.1776" lon="0.04279">
        <ele>82</ele>
        <time>2022-04-12T15:55:38Z</time>
      </trkpt>
      <trkpt lat="47.17842" lon="0.04376">
        <ele>80</ele>
        <time>2022-04-12T15:55:57Z</time>
      </trkpt>
      <trkpt lat="47.17886" lon="0.04415">
        <ele>81</ele>
        <time>2022-04-12T15:56:06Z</time>
      </trkpt>
      <trkpt lat="47.17898" lon="0.04431">
        <ele>82</ele>
        <time>2022-04-12T15:56:09Z</time>
      </trkpt>
      <trkpt lat="47.17908" lon="0.04453">
        <ele>82</ele>
        <time>2022-04-12T15:56:12Z</time>
      </trkpt>
      <trkpt lat="47.17932" lon="0.04523">
        <ele>81</ele>
        <time>2022-04-12T15:56:22Z</time>
      </trkpt>
      <trkpt lat="47.1795" lon="0.04542">
        <ele>82</ele>
        <time>2022-04-12T15:56:26Z</time>
      </trkpt>
      <trkpt lat="47.18025" lon="0.04584">
        <ele>87</ele>
        <time>2022-04-12T15:56:40Z</time>
      </trkpt>
      <trkpt lat="47.18034" lon="0.04588">
        <ele>87</ele>
        <time>2022-04-12T15:56:41Z</time>
      </trkpt>
      <trkpt lat="47.18052" lon="0.0459">
        <ele>87</ele>
        <time>2022-04-12T15:56:45Z</time>
      </trkpt>
      <trkpt lat="47.18068" lon="0.04606">
        <ele>87</ele>
        <time>2022-04-12T15:56:48Z</time>
      </trkpt>
      <trkpt lat="47.18108" lon="0.04632">
        <ele>86</ele>
        <time>2022-04-12T15:56:56Z</time>
      </trkpt>
      <trkpt lat="47.18167" lon="0.04659">
        <ele>85</ele>
        <time>2022-04-12T15:57:07Z</time>
      </trkpt>
      <trkpt lat="47.18166" lon="0.04721">
        <ele>84</ele>
        <time>2022-04-12T15:57:14Z</time>
      </trkpt>
      <trkpt lat="47.18168" lon="0.04757">
        <ele>84</ele>
        <time>2022-04-12T15:57:19Z</time>
      </trkpt>
      <trkpt lat="47.18187" lon="0.04944">
        <ele>81</ele>
        <time>2022-04-12T15:57:42Z</time>
      </trkpt>
      <trkpt lat="47.18187" lon="0.04954">
        <ele>81</ele>
        <time>2022-04-12T15:57:43Z</time>
      </trkpt>
      <trkpt lat="47.18178" lon="0.04998">
        <ele>81</ele>
        <time>2022-04-12T15:57:48Z</time>
      </trkpt>
      <trkpt lat="47.18207" lon="0.05035">
        <ele>78</ele>
        <time>2022-04-12T15:57:55Z</time>
      </trkpt>
      <trkpt lat="47.18204" lon="0.05109">
        <ele>74</ele>
        <time>2022-04-12T15:58:04Z</time>
      </trkpt>
      <trkpt lat="47.18207" lon="0.05035">
        <ele>78</ele>
        <time>2022-04-12T15:58:13Z</time>
      </trkpt>
      <trkpt lat="47.18218" lon="0.05042">
        <ele>77</ele>
        <time>2022-04-12T15:58:15Z</time>
      </trkpt>
      <trkpt lat="47.18244" lon="0.05051">
        <ele>76</ele>
        <time>2022-04-12T15:58:20Z</time>
      </trkpt>
      <trkpt lat="47.18333" lon="0.05053">
        <ele>69</ele>
        <time>2022-04-12T15:58:36Z</time>
      </trkpt>
      <trkpt lat="47.18515" lon="0.05053">
        <ele>61</ele>
        <time>2022-04-12T15:59:08Z</time>
      </trkpt>
      <trkpt lat="47.18545" lon="0.05048">
        <ele>60</ele>
        <time>2022-04-12T15:59:14Z</time>
      </trkpt>
      <trkpt lat="47.18546" lon="0.05043">
        <ele>60</ele>
        <time>2022-04-12T15:59:14Z</time>
      </trkpt>
      <trkpt lat="47.18549" lon="0.05042">
        <ele>60</ele>
        <time>2022-04-12T15:59:15Z</time>
      </trkpt>
      <trkpt lat="47.18552" lon="0.05042">
        <ele>60</ele>
        <time>2022-04-12T15:59:15Z</time>
      </trkpt>
      <trkpt lat="47.18553" lon="0.05048">
        <ele>60</ele>
        <time>2022-04-12T15:59:16Z</time>
      </trkpt>
      <trkpt lat="47.18578" lon="0.05051">
        <ele>59</ele>
        <time>2022-04-12T15:59:21Z</time>
      </trkpt>
      <trkpt lat="47.18614" lon="0.05048">
        <ele>60</ele>
        <time>2022-04-12T15:59:27Z</time>
      </trkpt>
      <trkpt lat="47.18639" lon="0.0504">
        <ele>60</ele>
        <time>2022-04-12T15:59:32Z</time>
      </trkpt>
      <trkpt lat="47.18684" lon="0.05013">
        <ele>60</ele>
        <time>2022-04-12T15:59:40Z</time>
      </trkpt>
      <trkpt lat="47.18808" lon="0.0487">
        <ele>56</ele>
        <time>2022-04-12T16:00:08Z</time>
      </trkpt>
      <trkpt lat="47.18875" lon="0.04833">
        <ele>54</ele>
        <time>2022-04-12T16:00:21Z</time>
      </trkpt>
      <trkpt lat="47.18898" lon="0.04811">
        <ele>54</ele>
        <time>2022-04-12T16:00:26Z</time>
      </trkpt>
      <trkpt lat="47.18907" lon="0.04813">
        <ele>55</ele>
        <time>2022-04-12T16:00:27Z</time>
      </trkpt>
      <trkpt lat="47.18916" lon="0.04807">
        <ele>54</ele>
        <time>2022-04-12T16:00:29Z</time>
      </trkpt>
      <trkpt lat="47.18932" lon="0.04816">
        <ele>55</ele>
        <time>2022-04-12T16:00:32Z</time>
      </trkpt>
      <trkpt lat="47.1897" lon="0.04822">
        <ele>54</ele>
        <time>2022-04-12T16:00:39Z</time>
      </trkpt>
      <trkpt lat="47.19017" lon="0.04836">
        <ele>53</ele>
        <time>2022-04-12T16:00:48Z</time>
      </trkpt>
      <trkpt lat="47.19043" lon="0.04841">
        <ele>53</ele>
        <time>2022-04-12T16:00:52Z</time>
      </trkpt>
      <trkpt lat="47.19074" lon="0.04854">
        <ele>52</ele>
        <time>2022-04-12T16:00:58Z</time>
      </trkpt>
      <trkpt lat="47.19104" lon="0.04871">
        <ele>52</ele>
        <time>2022-04-12T16:01:04Z</time>
      </trkpt>
      <trkpt lat="47.1916" lon="0.04915">
        <ele>49</ele>
        <time>2022-04-12T16:01:15Z</time>
      </trkpt>
      <trkpt lat="47.19272" lon="0.04995">
        <ele>47</ele>
        <time>2022-04-12T16:01:37Z</time>
      </trkpt>
      <trkpt lat="47.19276" lon="0.04992">
        <ele>47</ele>
        <time>2022-04-12T16:01:38Z</time>
      </trkpt>
      <trkpt lat="47.19278" lon="0.04993">
        <ele>47</ele>
        <time>2022-04-12T16:01:38Z</time>
      </trkpt>
      <trkpt lat="47.19281" lon="0.04999">
        <ele>47</ele>
        <time>2022-04-12T16:01:39Z</time>
      </trkpt>
      <trkpt lat="47.1928" lon="0.05003">
        <ele>47</ele>
        <time>2022-04-12T16:01:40Z</time>
      </trkpt>
      <trkpt lat="47.19304" lon="0.05022">
        <ele>48</ele>
        <time>2022-04-12T16:01:45Z</time>
      </trkpt>
      <trkpt lat="47.19474" lon="0.05133">
        <ele>48</ele>
        <time>2022-04-12T16:02:18Z</time>
      </trkpt>
      <trkpt lat="47.19551" lon="0.05195">
        <ele>46</ele>
        <time>2022-04-12T16:02:33Z</time>
      </trkpt>
      <trkpt lat="47.19745" lon="0.05328">
        <ele>47</ele>
        <time>2022-04-12T16:03:11Z</time>
      </trkpt>
      <trkpt lat="47.19749" lon="0.05347">
        <ele>48</ele>
        <time>2022-04-12T16:03:14Z</time>
      </trkpt>
      <trkpt lat="47.19814" lon="0.05484">
        <ele>51</ele>
        <time>2022-04-12T16:03:34Z</time>
      </trkpt>
      <trkpt lat="47.19857" lon="0.05558">
        <ele>50</ele>
        <time>2022-04-12T16:03:46Z</time>
      </trkpt>
      <trkpt lat="47.19881" lon="0.05619">
        <ele>49</ele>
        <time>2022-04-12T16:03:54Z</time>
      </trkpt>
      <trkpt lat="47.19911" lon="0.05716">
        <ele>51</ele>
        <time>2022-04-12T16:04:07Z</time>
      </trkpt>
      <trkpt lat="47.19913" lon="0.05734">
        <ele>51</ele>
        <time>2022-04-12T16:04:09Z</time>
      </trkpt>
      <trkpt lat="47.19917" lon="0.05739">
        <ele>52</ele>
        <time>2022-04-12T16:04:10Z</time>
      </trkpt>
      <trkpt lat="47.19929" lon="0.05793">
        <ele>56</ele>
        <time>2022-04-12T16:04:17Z</time>
      </trkpt>
      <trkpt lat="47.19947" lon="0.05894">
        <ele>61</ele>
        <time>2022-04-12T16:04:30Z</time>
      </trkpt>
      <trkpt lat="47.19948" lon="0.0593">
        <ele>62</ele>
        <time>2022-04-12T16:04:34Z</time>
      </trkpt>
      <trkpt lat="47.19944" lon="0.05974">
        <ele>64</ele>
        <time>2022-04-12T16:04:40Z</time>
      </trkpt>
      <trkpt lat="47.19939" lon="0.05993">
        <ele>65</ele>
        <time>2022-04-12T16:04:42Z</time>
      </trkpt>
      <trkpt lat="47.19935" lon="0.0603">
        <ele>66</ele>
        <time>2022-04-12T16:04:47Z</time>
      </trkpt>
      <trkpt lat="47.19941" lon="0.06092">
        <ele>68</ele>
        <time>2022-04-12T16:04:54Z</time>
      </trkpt>
      <trkpt lat="47.19941" lon="0.06123">
        <ele>69</ele>
        <time>2022-04-12T16:04:58Z</time>
      </trkpt>
      <trkpt lat="47.19925" lon="0.06228">
        <ele>71</ele>
        <time>2022-04-12T16:05:11Z</time>
      </trkpt>
      <trkpt lat="47.19912" lon="0.06257">
        <ele>71</ele>
        <time>2022-04-12T16:05:15Z</time>
      </trkpt>
      <trkpt lat="47.19909" lon="0.06273">
        <ele>71</ele>
        <time>2022-04-12T16:05:17Z</time>
      </trkpt>
      <trkpt lat="47.19922" lon="0.06298">
        <ele>73</ele>
        <time>2022-04-12T16:05:21Z</time>
      </trkpt>
      <trkpt lat="47.19948" lon="0.06308">
        <ele>76</ele>
        <time>2022-04-12T16:05:26Z</time>
      </trkpt>
      <trkpt lat="47.19962" lon="0.06306">
        <ele>78</ele>
        <time>2022-04-12T16:05:28Z</time>
      </trkpt>
      <trkpt lat="47.19987" lon="0.06295">
        <ele>81</ele>
        <time>2022-04-12T16:05:33Z</time>
      </trkpt>
      <trkpt lat="47.20004" lon="0.06291">
        <ele>82</ele>
        <time>2022-04-12T16:05:36Z</time>
      </trkpt>
      <trkpt lat="47.20013" lon="0.06293">
        <ele>82</ele>
        <time>2022-04-12T16:05:37Z</time>
      </trkpt>
      <trkpt lat="47.20023" lon="0.06299">
        <ele>83</ele>
        <time>2022-04-12T16:05:39Z</time>
      </trkpt>
      <trkpt lat="47.20039" lon="0.06316">
        <ele>84</ele>
        <time>2022-04-12T16:05:43Z</time>
      </trkpt>
      <trkpt lat="47.20058" lon="0.06353">
        <ele>85</ele>
        <time>2022-04-12T16:05:49Z</time>
      </trkpt>
      <trkpt lat="47.20063" lon="0.06373">
        <ele>85</ele>
        <time>2022-04-12T16:05:51Z</time>
      </trkpt>
      <trkpt lat="47.20072" lon="0.06392">
        <ele>86</ele>
        <time>2022-04-12T16:05:54Z</time>
      </trkpt>
      <trkpt lat="47.20101" lon="0.06421">
        <ele>86</ele>
        <time>2022-04-12T16:06:00Z</time>
      </trkpt>
      <trkpt lat="47.20176" lon="0.06485">
        <ele>85</ele>
        <time>2022-04-12T16:06:16Z</time>
      </trkpt>
      <trkpt lat="47.20234" lon="0.06565">
        <ele>83</ele>
        <time>2022-04-12T16:06:30Z</time>
      </trkpt>
      <trkpt lat="47.20315" lon="0.06647">
        <ele>81</ele>
        <time>2022-04-12T16:06:47Z</time>
      </trkpt>
      <trkpt lat="47.20447" lon="0.06799">
        <ele>76</ele>
        <time>2022-04-12T16:07:17Z</time>
      </trkpt>
      <trkpt lat="47.20559" lon="0.06962">
        <ele>81</ele>
        <time>2022-04-12T16:07:45Z</time>
      </trkpt>
      <trkpt lat="47.20588" lon="0.07017">
        <ele>82</ele>
        <time>2022-04-12T16:07:53Z</time>
      </trkpt>
      <trkpt lat="47.20595" lon="0.07036">
        <ele>82</ele>
        <time>2022-04-12T16:07:56Z</time>
      </trkpt>
      <trkpt lat="47.20656" lon="0.07053">
        <ele>81</ele>
        <time>2022-04-12T16:08:07Z</time>
      </trkpt>
      <trkpt lat="47.20735" lon="0.07068">
        <ele>80</ele>
        <time>2022-04-12T16:08:21Z</time>
      </trkpt>
      <trkpt lat="47.20799" lon="0.07083">
        <ele>77</ele>
        <time>2022-04-12T16:08:33Z</time>
      </trkpt>
      <trkpt lat="47.20834" lon="0.07096">
        <ele>75</ele>
        <time>2022-04-12T16:08:39Z</time>
      </trkpt>
      <trkpt lat="47.20871" lon="0.07101">
        <ele>73</ele>
        <time>2022-04-12T16:08:46Z</time>
      </trkpt>
      <trkpt lat="47.20878" lon="0.07104">
        <ele>72</ele>
        <time>2022-04-12T16:08:47Z</time>
      </trkpt>
      <trkpt lat="47.20884" lon="0.07111">
        <ele>72</ele>
        <time>2022-04-12T16:08:49Z</time>
      </trkpt>
      <trkpt lat="47.20906" lon="0.07127">
        <ele>70</ele>
        <time>2022-04-12T16:08:53Z</time>
      </trkpt>
      <trkpt lat="47.21016" lon="0.07202">
        <ele>64</ele>
        <time>2022-04-12T16:09:14Z</time>
      </trkpt>
      <trkpt lat="47.21027" lon="0.07215">
        <ele>64</ele>
        <time>2022-04-12T16:09:17Z</time>
      </trkpt>
      <trkpt lat="47.21024" lon="0.07222">
        <ele>64</ele>
        <time>2022-04-12T16:09:18Z</time>
      </trkpt>
      <trkpt lat="47.21005" lon="0.07333">
        <ele>65</ele>
        <time>2022-04-12T16:09:32Z</time>
      </trkpt>
      <trkpt lat="47.20989" lon="0.07392">
        <ele>66</ele>
        <time>2022-04-12T16:09:39Z</time>
      </trkpt>
      <trkpt lat="47.2099" lon="0.07405">
        <ele>66</ele>
        <time>2022-04-12T16:09:41Z</time>
      </trkpt>
      <trkpt lat="47.20975" lon="0.07417">
        <ele>67</ele>
        <time>2022-04-12T16:09:44Z</time>
      </trkpt>
      <trkpt lat="47.20968" lon="0.07419">
        <ele>67</ele>
        <time>2022-04-12T16:09:45Z</time>
      </trkpt>
      <trkpt lat="47.20948" lon="0.07456">
        <ele>69</ele>
        <time>2022-04-12T16:09:51Z</time>
      </trkpt>
      <trkpt lat="47.20934" lon="0.07471">
        <ele>72</ele>
        <time>2022-04-12T16:09:54Z</time>
      </trkpt>
      <trkpt lat="47.20836" lon="0.07601">
        <ele>79</ele>
        <time>2022-04-12T16:10:18Z</time>
      </trkpt>
      <trkpt lat="47.20853" lon="0.07588">
        <ele>78</ele>
        <time>2022-04-12T16:10:21Z</time>
      </trkpt>
      <trkpt lat="47.20863" lon="0.07577">
        <ele>77</ele>
        <time>2022-04-12T16:10:23Z</time>
      </trkpt>
      <trkpt lat="47.20892" lon="0.07511">
        <ele>77</ele>
        <time>2022-04-12T16:10:33Z</time>
      </trkpt>
      <trkpt lat="47.2092" lon="0.0749">
        <ele>76</ele>
        <time>2022-04-12T16:10:38Z</time>
      </trkpt>
      <trkpt lat="47.20935" lon="0.07469">
        <ele>72</ele>
        <time>2022-04-12T16:10:42Z</time>
      </trkpt>
      <trkpt lat="47.20948" lon="0.07456">
        <ele>69</ele>
        <time>2022-04-12T16:10:45Z</time>
      </trkpt>
      <trkpt lat="47.20968" lon="0.07419">
        <ele>67</ele>
        <time>2022-04-12T16:10:51Z</time>
      </trkpt>
      <trkpt lat="47.20975" lon="0.07417">
        <ele>67</ele>
        <time>2022-04-12T16:10:52Z</time>
      </trkpt>
      <trkpt lat="47.2099" lon="0.07405">
        <ele>66</ele>
        <time>2022-04-12T16:10:55Z</time>
      </trkpt>
      <trkpt lat="47.20989" lon="0.07392">
        <ele>66</ele>
        <time>2022-04-12T16:10:56Z</time>
      </trkpt>
      <trkpt lat="47.20997" lon="0.07359">
        <ele>66</ele>
        <time>2022-04-12T16:11:01Z</time>
      </trkpt>
      <trkpt lat="47.21001" lon="0.07351">
        <ele>66</ele>
        <time>2022-04-12T16:11:02Z</time>
      </trkpt>
      <trkpt lat="47.21017" lon="0.07366">
        <ele>63</ele>
        <time>2022-04-12T16:11:05Z</time>
      </trkpt>
      <trkpt lat="47.21022" lon="0.07366">
        <ele>62</ele>
        <time>2022-04-12T16:11:06Z</time>
      </trkpt>
      <trkpt lat="47.21034" lon="0.07329">
        <ele>62</ele>
        <time>2022-04-12T16:11:11Z</time>
      </trkpt>
      <trkpt lat="47.21049" lon="0.07303">
        <ele>61</ele>
        <time>2022-04-12T16:11:15Z</time>
      </trkpt>
      <trkpt lat="47.21067" lon="0.07324">
        <ele>58</ele>
        <time>2022-04-12T16:11:19Z</time>
      </trkpt>
      <trkpt lat="47.21066" lon="0.0733">
        <ele>57</ele>
        <time>2022-04-12T16:11:20Z</time>
      </trkpt>
      <trkpt lat="47.21088" lon="0.07339">
        <ele>54</ele>
        <time>2022-04-12T16:11:24Z</time>
      </trkpt>
      <trkpt lat="47.21112" lon="0.07353">
        <ele>49</ele>
        <time>2022-04-12T16:11:29Z</time>
      </trkpt>
      <trkpt lat="47.21124" lon="0.07334">
        <ele>49</ele>
        <time>2022-04-12T16:11:32Z</time>
      </trkpt>
      <trkpt lat="47.21145" lon="0.07356">
        <ele>45</ele>
        <time>2022-04-12T16:11:36Z</time>
      </trkpt>
      <trkpt lat="47.21147" lon="0.07379">
        <ele>43</ele>
        <time>2022-04-12T16:11:39Z</time>
      </trkpt>
      <trkpt lat="47.21162" lon="0.07391">
        <ele>41</ele>
        <time>2022-04-12T16:11:42Z</time>
      </trkpt>
      <trkpt lat="47.21247" lon="0.07177">
        <ele>42</ele>
        <time>2022-04-12T16:12:12Z</time>
      </trkpt>
      <trkpt lat="47.21285" lon="0.07093">
        <ele>40</ele>
        <time>2022-04-12T16:12:24Z</time>
      </trkpt>
      <trkpt lat="47.21393" lon="0.06872">
        <ele>35</ele>
        <time>2022-04-12T16:12:57Z</time>
      </trkpt>
      <trkpt lat="47.21422" lon="0.06769">
        <ele>32</ele>
        <time>2022-04-12T16:13:11Z</time>
      </trkpt>
      <trkpt lat="47.21419" lon="0.06761">
        <ele>33</ele>
        <time>2022-04-12T16:13:12Z</time>
      </trkpt>
      <trkpt lat="47.2142" lon="0.06756">
        <ele>33</ele>
        <time>2022-04-12T16:13:13Z</time>
      </trkpt>
      <trkpt lat="47.21422" lon="0.06753">
        <ele>33</ele>
        <time>2022-04-12T16:13:13Z</time>
      </trkpt>
      <trkpt lat="47.21428" lon="0.06753">
        <ele>32</ele>
        <time>2022-04-12T16:13:14Z</time>
      </trkpt>
      <trkpt lat="47.21475" lon="0.06592">
        <ele>31</ele>
        <time>2022-04-12T16:13:35Z</time>
      </trkpt>
      <trkpt lat="47.21602" lon="0.06184">
        <ele>36</ele>
        <time>2022-04-12T16:14:30Z</time>
      </trkpt>
      <trkpt lat="47.21623" lon="0.06078">
        <ele>34</ele>
        <time>2022-04-12T16:14:43Z</time>
      </trkpt>
      <trkpt lat="47.21669" lon="0.05712">
        <ele>32</ele>
        <time>2022-04-12T16:15:28Z</time>
      </trkpt>
      <trkpt lat="47.21671" lon="0.05675">
        <ele>33</ele>
        <time>2022-04-12T16:15:32Z</time>
      </trkpt>
      <trkpt lat="47.21677" lon="0.05662">
        <ele>32</ele>
        <time>2022-04-12T16:15:34Z</time>
      </trkpt>
      <trkpt lat="47.21744" lon="0.05447">
        <ele>33</ele>
        <time>2022-04-12T16:16:03Z</time>
      </trkpt>
      <trkpt lat="47.21831" lon="0.0518">
        <ele>38</ele>
        <time>2022-04-12T16:16:39Z</time>
      </trkpt>
      <trkpt lat="47.21908" lon="0.04929">
        <ele>38</ele>
        <time>2022-04-12T16:17:12Z</time>
      </trkpt>
      <trkpt lat="47.22028" lon="0.04553">
        <ele>34</ele>
        <time>2022-04-12T16:18:02Z</time>
      </trkpt>
      <trkpt lat="47.22022" lon="0.04543">
        <ele>35</ele>
        <time>2022-04-12T16:18:04Z</time>
      </trkpt>
      <trkpt lat="47.22022" lon="0.04527">
        <ele>36</ele>
        <time>2022-04-12T16:18:06Z</time>
      </trkpt>
      <trkpt lat="47.22025" lon="0.0452">
        <ele>36</ele>
        <time>2022-04-12T16:18:07Z</time>
      </trkpt>
      <trkpt lat="47.2203" lon="0.04516">
        <ele>35</ele>
        <time>2022-04-12T16:18:08Z</time>
      </trkpt>
      <trkpt lat="47.22035" lon="0.04516">
        <ele>35</ele>
        <time>2022-04-12T16:18:09Z</time>
      </trkpt>
      <trkpt lat="47.22054" lon="0.0446">
        <ele>34</ele>
        <time>2022-04-12T16:18:16Z</time>
      </trkpt>
      <trkpt lat="47.2206" lon="0.0445">
        <ele>33</ele>
        <time>2022-04-12T16:18:18Z</time>
      </trkpt>
      <trkpt lat="47.22321" lon="0.03618">
        <ele>32</ele>
        <time>2022-04-12T16:20:08Z</time>
      </trkpt>
      <trkpt lat="47.22252" lon="0.03482">
        <ele>35</ele>
        <time>2022-04-12T16:20:29Z</time>
      </trkpt>
      <trkpt lat="47.22403" lon="0.02836">
        <ele>33</ele>
        <time>2022-04-12T16:21:52Z</time>
      </trkpt>
      <trkpt lat="47.224" lon="0.02798">
        <ele>36</ele>
        <time>2022-04-12T16:21:56Z</time>
      </trkpt>
      <trkpt lat="47.22517" lon="0.02402">
        <ele>41</ele>
        <time>2022-04-12T16:22:48Z</time>
      </trkpt>
      <trkpt lat="47.22538" lon="0.02328">
        <ele>39</ele>
        <time>2022-04-12T16:22:58Z</time>
      </trkpt>
      <trkpt lat="47.22545" lon="0.02294">
        <ele>40</ele>
        <time>2022-04-12T16:23:02Z</time>
      </trkpt>
      <trkpt lat="47.22572" lon="0.02245">
        <ele>39</ele>
        <time>2022-04-12T16:23:10Z</time>
      </trkpt>
      <trkpt lat="47.22623" lon="0.02142">
        <ele>41</ele>
        <time>2022-04-12T16:23:25Z</time>
      </trkpt>
      <trkpt lat="47.22724" lon="0.019">
        <ele>39</ele>
        <time>2022-04-12T16:24:00Z</time>
      </trkpt>
      <trkpt lat="47.22745" lon="0.01812">
        <ele>36</ele>
        <time>2022-04-12T16:24:11Z</time>
      </trkpt>
      <trkpt lat="47.22751" lon="0.01776">
        <ele>34</ele>
        <time>2022-04-12T16:24:15Z</time>
      </trkpt>
      <trkpt lat="47.22785" lon="0.01701">
        <ele>33</ele>
        <time>2022-04-12T16:24:26Z</time>
      </trkpt>
      <trkpt lat="47.22765" lon="0.0165">
        <ele>38</ele>
        <time>2022-04-12T16:24:33Z</time>
      </trkpt>
      <trkpt lat="47.22709" lon="0.01601">
        <ele>45</ele>
        <time>2022-04-12T16:24:45Z</time>
      </trkpt>
      <trkpt lat="47.22656" lon="0.01579">
        <ele>44</ele>
        <time>2022-04-12T16:24:55Z</time>
      </trkpt>
      <trkpt lat="47.22626" lon="0.01557">
        <ele>47</ele>
        <time>2022-04-12T16:25:01Z</time>
      </trkpt>
      <trkpt lat="47.22582" lon="0.01535">
        <ele>48</ele>
        <time>2022-04-12T16:25:09Z</time>
      </trkpt>
      <trkpt lat="47.22527" lon="0.01475">
        <ele>50</ele>
        <time>2022-04-12T16:25:21Z</time>
      </trkpt>
      <trkpt lat="47.22466" lon="0.01402">
        <ele>49</ele>
        <time>2022-04-12T16:25:35Z</time>
      </trkpt>
      <trkpt lat="47.22332" lon="0.01271">
        <ele>48</ele>
        <time>2022-04-12T16:26:04Z</time>
      </trkpt>
      <trkpt lat="47.2231" lon="0.01238">
        <ele>50</ele>
        <time>2022-04-12T16:26:09Z</time>
      </trkpt>
      <trkpt lat="47.22273" lon="0.01142">
        <ele>52</ele>
        <time>2022-04-12T16:26:23Z</time>
      </trkpt>
      <trkpt lat="47.22221" lon="0.01039">
        <ele>50</ele>
        <time>2022-04-12T16:26:38Z</time>
      </trkpt>
      <trkpt lat="47.22287" lon="0.00973">
        <ele>55</ele>
        <time>2022-04-12T16:26:52Z</time>
      </trkpt>
      <trkpt lat="47.2234" lon="0.009">
        <ele>59</ele>
        <time>2022-04-12T16:27:05Z</time>
      </trkpt>
      <trkpt lat="47.22355" lon="0.00885">
        <ele>60</ele>
        <time>2022-04-12T16:27:09Z</time>
      </trkpt>
      <trkpt lat="47.22413" lon="0.0085">
        <ele>64</ele>
        <time>2022-04-12T16:27:20Z</time>
      </trkpt>
      <trkpt lat="47.22428" lon="0.00832">
        <ele>64</ele>
        <time>2022-04-12T16:27:23Z</time>
      </trkpt>
      <trkpt lat="47.22446" lon="0.00803">
        <ele>65</ele>
        <time>2022-04-12T16:27:28Z</time>
      </trkpt>
      <trkpt lat="47.22557" lon="0.00525">
        <ele>62</ele>
        <time>2022-04-12T16:28:07Z</time>
      </trkpt>
      <trkpt lat="47.22584" lon="0.00464">
        <ele>61</ele>
        <time>2022-04-12T16:28:16Z</time>
      </trkpt>
      <trkpt lat="47.22639" lon="0.00358">
        <ele>61</ele>
        <time>2022-04-12T16:28:32Z</time>
      </trkpt>
      <trkpt lat="47.22715" lon="0.00191">
        <ele>60</ele>
        <time>2022-04-12T16:28:56Z</time>
      </trkpt>
      <trkpt lat="47.22786" lon="0.00069">
        <ele>59</ele>
        <time>2022-04-12T16:29:16Z</time>
      </trkpt>
      <trkpt lat="47.22825" lon="-6.0E-5">
        <ele>60</ele>
        <time>2022-04-12T16:29:27Z</time>
      </trkpt>
      <trkpt lat="47.22906" lon="-0.00217">
        <ele>57</ele>
        <time>2022-04-12T16:29:56Z</time>
      </trkpt>
      <trkpt lat="47.2292" lon="-0.00265">
        <ele>57</ele>
        <time>2022-04-12T16:30:03Z</time>
      </trkpt>
      <trkpt lat="47.22938" lon="-0.00313">
        <ele>57</ele>
        <time>2022-04-12T16:30:09Z</time>
      </trkpt>
      <trkpt lat="47.22998" lon="-0.00519">
        <ele>56</ele>
        <time>2022-04-12T16:30:36Z</time>
      </trkpt>
      <trkpt lat="47.23038" lon="-0.00593">
        <ele>55</ele>
        <time>2022-04-12T16:30:48Z</time>
      </trkpt>
      <trkpt lat="47.23053" lon="-0.00614">
        <ele>55</ele>
        <time>2022-04-12T16:30:51Z</time>
      </trkpt>
      <trkpt lat="47.23103" lon="-0.00762">
        <ele>55</ele>
        <time>2022-04-12T16:31:11Z</time>
      </trkpt>
      <trkpt lat="47.23136" lon="-0.00825">
        <ele>54</ele>
        <time>2022-04-12T16:31:21Z</time>
      </trkpt>
      <trkpt lat="47.23146" lon="-0.00854">
        <ele>53</ele>
        <time>2022-04-12T16:31:25Z</time>
      </trkpt>
      <trkpt lat="47.23146" lon="-0.0087">
        <ele>53</ele>
        <time>2022-04-12T16:31:27Z</time>
      </trkpt>
      <trkpt lat="47.2313" lon="-0.00901">
        <ele>54</ele>
        <time>2022-04-12T16:31:32Z</time>
      </trkpt>
      <trkpt lat="47.23094" lon="-0.00952">
        <ele>54</ele>
        <time>2022-04-12T16:31:40Z</time>
      </trkpt>
      <trkpt lat="47.23094" lon="-0.0098">
        <ele>53</ele>
        <time>2022-04-12T16:31:44Z</time>
      </trkpt>
      <trkpt lat="47.23105" lon="-0.01039">
        <ele>52</ele>
        <time>2022-04-12T16:31:51Z</time>
      </trkpt>
      <trkpt lat="47.23156" lon="-0.01165">
        <ele>45</ele>
        <time>2022-04-12T16:32:09Z</time>
      </trkpt>
      <trkpt lat="47.23212" lon="-0.01264">
        <ele>42</ele>
        <time>2022-04-12T16:32:24Z</time>
      </trkpt>
      <trkpt lat="47.23246" lon="-0.01369">
        <ele>38</ele>
        <time>2022-04-12T16:32:39Z</time>
      </trkpt>
      <trkpt lat="47.23272" lon="-0.01436">
        <ele>38</ele>
        <time>2022-04-12T16:32:48Z</time>
      </trkpt>
      <trkpt lat="47.23347" lon="-0.01704">
        <ele>42</ele>
        <time>2022-04-12T16:33:23Z</time>
      </trkpt>
      <trkpt lat="47.2345" lon="-0.01974">
        <ele>50</ele>
        <time>2022-04-12T16:34:00Z</time>
      </trkpt>
      <trkpt lat="47.23513" lon="-0.02197">
        <ele>52</ele>
        <time>2022-04-12T16:34:29Z</time>
      </trkpt>
      <trkpt lat="47.23525" lon="-0.02255">
        <ele>53</ele>
        <time>2022-04-12T16:34:37Z</time>
      </trkpt>
      <trkpt lat="47.23525" lon="-0.02292">
        <ele>54</ele>
        <time>2022-04-12T16:34:41Z</time>
      </trkpt>
      <trkpt lat="47.23511" lon="-0.02392">
        <ele>55</ele>
        <time>2022-04-12T16:34:54Z</time>
      </trkpt>
      <trkpt lat="47.23501" lon="-0.02488">
        <ele>56</ele>
        <time>2022-04-12T16:35:05Z</time>
      </trkpt>
      <trkpt lat="47.23488" lon="-0.02542">
        <ele>57</ele>
        <time>2022-04-12T16:35:12Z</time>
      </trkpt>
      <trkpt lat="47.23468" lon="-0.02598">
        <ele>59</ele>
        <time>2022-04-12T16:35:20Z</time>
      </trkpt>
      <trkpt lat="47.23454" lon="-0.02666">
        <ele>63</ele>
        <time>2022-04-12T16:35:28Z</time>
      </trkpt>
      <trkpt lat="47.23447" lon="-0.02737">
        <ele>67</ele>
        <time>2022-04-12T16:35:37Z</time>
      </trkpt>
      <trkpt lat="47.2345" lon="-0.02835">
        <ele>76</ele>
        <time>2022-04-12T16:35:49Z</time>
      </trkpt>
      <trkpt lat="47.23459" lon="-0.02991">
        <ele>83</ele>
        <time>2022-04-12T16:36:08Z</time>
      </trkpt>
      <trkpt lat="47.23472" lon="-0.03071">
        <ele>83</ele>
        <time>2022-04-12T16:36:18Z</time>
      </trkpt>
      <trkpt lat="47.23485" lon="-0.03122">
        <ele>84</ele>
        <time>2022-04-12T16:36:24Z</time>
      </trkpt>
      <trkpt lat="47.23518" lon="-0.03188">
        <ele>85</ele>
        <time>2022-04-12T16:36:34Z</time>
      </trkpt>
      <trkpt lat="47.23547" lon="-0.03239">
        <ele>86</ele>
        <time>2022-04-12T16:36:42Z</time>
      </trkpt>
      <trkpt lat="47.23557" lon="-0.03284">
        <ele>86</ele>
        <time>2022-04-12T16:36:48Z</time>
      </trkpt>
      <trkpt lat="47.23568" lon="-0.0332">
        <ele>85</ele>
        <time>2022-04-12T16:36:53Z</time>
      </trkpt>
      <trkpt lat="47.23571" lon="-0.0336">
        <ele>86</ele>
        <time>2022-04-12T16:36:58Z</time>
      </trkpt>
      <trkpt lat="47.23599" lon="-0.03414">
        <ele>87</ele>
        <time>2022-04-12T16:37:06Z</time>
      </trkpt>
      <trkpt lat="47.23615" lon="-0.03438">
        <ele>87</ele>
        <time>2022-04-12T16:37:10Z</time>
      </trkpt>
      <trkpt lat="47.23624" lon="-0.03475">
        <ele>88</ele>
        <time>2022-04-12T16:37:15Z</time>
      </trkpt>
      <trkpt lat="47.23651" lon="-0.03619">
        <ele>84</ele>
        <time>2022-04-12T16:37:33Z</time>
      </trkpt>
      <trkpt lat="47.23658" lon="-0.03633">
        <ele>84</ele>
        <time>2022-04-12T16:37:35Z</time>
      </trkpt>
      <trkpt lat="47.23701" lon="-0.0369">
        <ele>83</ele>
        <time>2022-04-12T16:37:45Z</time>
      </trkpt>
      <trkpt lat="47.23731" lon="-0.03711">
        <ele>83</ele>
        <time>2022-04-12T16:37:51Z</time>
      </trkpt>
      <trkpt lat="47.23747" lon="-0.03717">
        <ele>83</ele>
        <time>2022-04-12T16:37:54Z</time>
      </trkpt>
      <trkpt lat="47.2379" lon="-0.03724">
        <ele>85</ele>
        <time>2022-04-12T16:38:02Z</time>
      </trkpt>
      <trkpt lat="47.23819" lon="-0.03732">
        <ele>86</ele>
        <time>2022-04-12T16:38:07Z</time>
      </trkpt>
      <trkpt lat="47.23845" lon="-0.03743">
        <ele>87</ele>
        <time>2022-04-12T16:38:12Z</time>
      </trkpt>
      <trkpt lat="47.23968" lon="-0.03755">
        <ele>89</ele>
        <time>2022-04-12T16:38:34Z</time>
      </trkpt>
      <trkpt lat="47.24016" lon="-0.03772">
        <ele>88</ele>
        <time>2022-04-12T16:38:43Z</time>
      </trkpt>
      <trkpt lat="47.24042" lon="-0.03787">
        <ele>88</ele>
        <time>2022-04-12T16:38:47Z</time>
      </trkpt>
      <trkpt lat="47.24055" lon="-0.03797">
        <ele>88</ele>
        <time>2022-04-12T16:38:50Z</time>
      </trkpt>
      <trkpt lat="47.24084" lon="-0.03831">
        <ele>88</ele>
        <time>2022-04-12T16:38:57Z</time>
      </trkpt>
      <trkpt lat="47.24105" lon="-0.03871">
        <ele>88</ele>
        <time>2022-04-12T16:39:03Z</time>
      </trkpt>
      <trkpt lat="47.24133" lon="-0.03906">
        <ele>88</ele>
        <time>2022-04-12T16:39:09Z</time>
      </trkpt>
      <trkpt lat="47.24181" lon="-0.03946">
        <ele>86</ele>
        <time>2022-04-12T16:39:19Z</time>
      </trkpt>
      <trkpt lat="47.24196" lon="-0.03953">
        <ele>86</ele>
        <time>2022-04-12T16:39:22Z</time>
      </trkpt>
      <trkpt lat="47.24202" lon="-0.03963">
        <ele>85</ele>
        <time>2022-04-12T16:39:24Z</time>
      </trkpt>
      <trkpt lat="47.24218" lon="-0.03978">
        <ele>85</ele>
        <time>2022-04-12T16:39:27Z</time>
      </trkpt>
      <trkpt lat="47.24265" lon="-0.04006">
        <ele>84</ele>
        <time>2022-04-12T16:39:36Z</time>
      </trkpt>
      <trkpt lat="47.24279" lon="-0.04021">
        <ele>84</ele>
        <time>2022-04-12T16:39:39Z</time>
      </trkpt>
      <trkpt lat="47.24307" lon="-0.04068">
        <ele>83</ele>
        <time>2022-04-12T16:39:47Z</time>
      </trkpt>
      <trkpt lat="47.24322" lon="-0.04081">
        <ele>84</ele>
        <time>2022-04-12T16:39:50Z</time>
      </trkpt>
      <trkpt lat="47.24356" lon="-0.04122">
        <ele>84</ele>
        <time>2022-04-12T16:39:58Z</time>
      </trkpt>
      <trkpt lat="47.24365" lon="-0.04136">
        <ele>85</ele>
        <time>2022-04-12T16:40:00Z</time>
      </trkpt>
      <trkpt lat="47.2437" lon="-0.04152">
        <ele>85</ele>
        <time>2022-04-12T16:40:02Z</time>
      </trkpt>
      <trkpt lat="47.24372" lon="-0.0419">
        <ele>84</ele>
        <time>2022-04-12T16:40:07Z</time>
      </trkpt>
      <trkpt lat="47.24396" lon="-0.04347">
        <ele>79</ele>
        <time>2022-04-12T16:40:26Z</time>
      </trkpt>
      <trkpt lat="47.24415" lon="-0.0451">
        <ele>78</ele>
        <time>2022-04-12T16:40:46Z</time>
      </trkpt>
      <trkpt lat="47.24432" lon="-0.04596">
        <ele>80</ele>
        <time>2022-04-12T16:40:57Z</time>
      </trkpt>
      <trkpt lat="47.24497" lon="-0.04723">
        <ele>85</ele>
        <time>2022-04-12T16:41:16Z</time>
      </trkpt>
      <trkpt lat="47.24502" lon="-0.04765">
        <ele>86</ele>
        <time>2022-04-12T16:41:21Z</time>
      </trkpt>
      <trkpt lat="47.24526" lon="-0.04895">
        <ele>88</ele>
        <time>2022-04-12T16:41:37Z</time>
      </trkpt>
      <trkpt lat="47.24555" lon="-0.05002">
        <ele>89</ele>
        <time>2022-04-12T16:41:51Z</time>
      </trkpt>
      <trkpt lat="47.24567" lon="-0.05068">
        <ele>89</ele>
        <time>2022-04-12T16:42:00Z</time>
      </trkpt>
      <trkpt lat="47.24594" lon="-0.05177">
        <ele>89</ele>
        <time>2022-04-12T16:42:14Z</time>
      </trkpt>
      <trkpt lat="47.24608" lon="-0.05195">
        <ele>90</ele>
        <time>2022-04-12T16:42:17Z</time>
      </trkpt>
      <trkpt lat="47.2464" lon="-0.05258">
        <ele>91</ele>
        <time>2022-04-12T16:42:26Z</time>
      </trkpt>
      <trkpt lat="47.24739" lon="-0.0549">
        <ele>90</ele>
        <time>2022-04-12T16:43:00Z</time>
      </trkpt>
      <trkpt lat="47.24772" lon="-0.0549">
        <ele>88</ele>
        <time>2022-04-12T16:43:05Z</time>
      </trkpt>
      <trkpt lat="47.24841" lon="-0.05466">
        <ele>81</ele>
        <time>2022-04-12T16:43:18Z</time>
      </trkpt>
      <trkpt lat="47.24856" lon="-0.05463">
        <ele>78</ele>
        <time>2022-04-12T16:43:21Z</time>
      </trkpt>
      <trkpt lat="47.24861" lon="-0.05464">
        <ele>77</ele>
        <time>2022-04-12T16:43:22Z</time>
      </trkpt>
      <trkpt lat="47.24879" lon="-0.05477">
        <ele>73</ele>
        <time>2022-04-12T16:43:25Z</time>
      </trkpt>
      <trkpt lat="47.24911" lon="-0.05479">
        <ele>66</ele>
        <time>2022-04-12T16:43:31Z</time>
      </trkpt>
      <trkpt lat="47.24937" lon="-0.05488">
        <ele>61</ele>
        <time>2022-04-12T16:43:36Z</time>
      </trkpt>
      <trkpt lat="47.24946" lon="-0.05486">
        <ele>59</ele>
        <time>2022-04-12T16:43:37Z</time>
      </trkpt>
      <trkpt lat="47.24952" lon="-0.0548">
        <ele>57</ele>
        <time>2022-04-12T16:43:39Z</time>
      </trkpt>
      <trkpt lat="47.24959" lon="-0.05462">
        <ele>55</ele>
        <time>2022-04-12T16:43:41Z</time>
      </trkpt>
      <trkpt lat="47.24961" lon="-0.05449">
        <ele>55</ele>
        <time>2022-04-12T16:43:43Z</time>
      </trkpt>
      <trkpt lat="47.24961" lon="-0.05405">
        <ele>53</ele>
        <time>2022-04-12T16:43:48Z</time>
      </trkpt>
      <trkpt lat="47.24977" lon="-0.05352">
        <ele>46</ele>
        <time>2022-04-12T16:43:55Z</time>
      </trkpt>
      <trkpt lat="47.24973" lon="-0.05313">
        <ele>46</ele>
        <time>2022-04-12T16:44:00Z</time>
      </trkpt>
      <trkpt lat="47.24974" lon="-0.05304">
        <ele>45</ele>
        <time>2022-04-12T16:44:01Z</time>
      </trkpt>
      <trkpt lat="47.24985" lon="-0.05282">
        <ele>40</ele>
        <time>2022-04-12T16:44:04Z</time>
      </trkpt>
      <trkpt lat="47.24997" lon="-0.05271">
        <ele>35</ele>
        <time>2022-04-12T16:44:07Z</time>
      </trkpt>
      <trkpt lat="47.25" lon="-0.05273">
        <ele>34</ele>
        <time>2022-04-12T16:44:07Z</time>
      </trkpt>
      <trkpt lat="47.25005" lon="-0.05272">
        <ele>33</ele>
        <time>2022-04-12T16:44:08Z</time>
      </trkpt>
      <trkpt lat="47.25012" lon="-0.0531">
        <ele>35</ele>
        <time>2022-04-12T16:44:13Z</time>
      </trkpt>
      <trkpt lat="47.25043" lon="-0.05437">
        <ele>38</ele>
        <time>2022-04-12T16:44:29Z</time>
      </trkpt>
      <trkpt lat="47.25114" lon="-0.05668">
        <ele>34</ele>
        <time>2022-04-12T16:45:00Z</time>
      </trkpt>
      <trkpt lat="47.25179" lon="-0.05901">
        <ele>38</ele>
        <time>2022-04-12T16:45:30Z</time>
      </trkpt>
      <trkpt lat="47.25235" lon="-0.06087">
        <ele>36</ele>
        <time>2022-04-12T16:45:55Z</time>
      </trkpt>
      <trkpt lat="47.25704" lon="-0.06914">
        <ele>31</ele>
        <time>2022-04-12T16:48:05Z</time>
      </trkpt>
      <trkpt lat="47.25857" lon="-0.07179">
        <ele>32</ele>
        <time>2022-04-12T16:48:47Z</time>
      </trkpt>
      <trkpt lat="47.25859" lon="-0.07189">
        <ele>32</ele>
        <time>2022-04-12T16:48:48Z</time>
      </trkpt>
      <trkpt lat="47.25886" lon="-0.07239">
        <ele>32</ele>
        <time>2022-04-12T16:48:56Z</time>
      </trkpt>
      <trkpt lat="47.25902" lon="-0.07276">
        <ele>33</ele>
        <time>2022-04-12T16:49:01Z</time>
      </trkpt>
      <trkpt lat="47.25909" lon="-0.0728">
        <ele>32</ele>
        <time>2022-04-12T16:49:03Z</time>
      </trkpt>
      <trkpt lat="47.25916" lon="-0.07268">
        <ele>31</ele>
        <time>2022-04-12T16:49:05Z</time>
      </trkpt>
      <trkpt lat="47.2593" lon="-0.07282">
        <ele>30</ele>
        <time>2022-04-12T16:49:08Z</time>
      </trkpt>
      <trkpt lat="47.26009" lon="-0.07417">
        <ele>30</ele>
        <time>2022-04-12T16:49:29Z</time>
      </trkpt>
      <trkpt lat="47.26037" lon="-0.07473">
        <ele>29</ele>
        <time>2022-04-12T16:49:37Z</time>
      </trkpt>
      <trkpt lat="47.26124" lon="-0.07668">
        <ele>33</ele>
        <time>2022-04-12T16:50:06Z</time>
      </trkpt>
      <trkpt lat="47.26125" lon="-0.07677">
        <ele>33</ele>
        <time>2022-04-12T16:50:07Z</time>
      </trkpt>
      <trkpt lat="47.26132" lon="-0.07682">
        <ele>33</ele>
        <time>2022-04-12T16:50:08Z</time>
      </trkpt>
      <trkpt lat="47.26138" lon="-0.07678">
        <ele>33</ele>
        <time>2022-04-12T16:50:09Z</time>
      </trkpt>
      <trkpt lat="47.26223" lon="-0.07827">
        <ele>31</ele>
        <time>2022-04-12T16:50:33Z</time>
      </trkpt>
      <trkpt lat="47.26248" lon="-0.07866">
        <ele>30</ele>
        <time>2022-04-12T16:50:39Z</time>
      </trkpt>
      <trkpt lat="47.2625" lon="-0.0788">
        <ele>30</ele>
        <time>2022-04-12T16:50:41Z</time>
      </trkpt>
      <trkpt lat="47.2627" lon="-0.07917">
        <ele>29</ele>
        <time>2022-04-12T16:50:47Z</time>
      </trkpt>
      <trkpt lat="47.2628" lon="-0.07945">
        <ele>29</ele>
        <time>2022-04-12T16:50:51Z</time>
      </trkpt>
      <trkpt lat="47.26294" lon="-0.07969">
        <ele>29</ele>
        <time>2022-04-12T16:50:54Z</time>
      </trkpt>
      <trkpt lat="47.26324" lon="-0.08012">
        <ele>28</ele>
        <time>2022-04-12T16:51:02Z</time>
      </trkpt>
      <trkpt lat="47.26328" lon="-0.08007">
        <ele>28</ele>
        <time>2022-04-12T16:51:03Z</time>
      </trkpt>
      <trkpt lat="47.26331" lon="-0.08007">
        <ele>27</ele>
        <time>2022-04-12T16:51:03Z</time>
      </trkpt>
      <trkpt lat="47.26349" lon="-0.08052">
        <ele>28</ele>
        <time>2022-04-12T16:51:10Z</time>
      </trkpt>
      <trkpt lat="47.26435" lon="-0.08206">
        <ele>27</ele>
        <time>2022-04-12T16:51:34Z</time>
      </trkpt>
      <trkpt lat="47.26636" lon="-0.08475">
        <ele>24</ele>
        <time>2022-04-12T16:52:22Z</time>
      </trkpt>
      <trkpt lat="47.26654" lon="-0.08495">
        <ele>23</ele>
        <time>2022-04-12T16:52:26Z</time>
      </trkpt>
      <trkpt lat="47.26682" lon="-0.08533">
        <ele>25</ele>
        <time>2022-04-12T16:52:33Z</time>
      </trkpt>
      <trkpt lat="47.26746" lon="-0.0861">
        <ele>23</ele>
        <time>2022-04-12T16:52:47Z</time>
      </trkpt>
      <trkpt lat="47.26777" lon="-0.08651">
        <ele>23</ele>
        <time>2022-04-12T16:52:55Z</time>
      </trkpt>
      <trkpt lat="47.26779" lon="-0.08664">
        <ele>24</ele>
        <time>2022-04-12T16:52:56Z</time>
      </trkpt>
      <trkpt lat="47.26784" lon="-0.08675">
        <ele>24</ele>
        <time>2022-04-12T16:52:58Z</time>
      </trkpt>
      <trkpt lat="47.26786" lon="-0.08695">
        <ele>24</ele>
        <time>2022-04-12T16:53:00Z</time>
      </trkpt>
      <trkpt lat="47.26775" lon="-0.08731">
        <ele>26</ele>
        <time>2022-04-12T16:53:05Z</time>
      </trkpt>
      <trkpt lat="47.26786" lon="-0.0874">
        <ele>25</ele>
        <time>2022-04-12T16:53:08Z</time>
      </trkpt>
      <trkpt lat="47.26804" lon="-0.08697">
        <ele>23</ele>
        <time>2022-04-12T16:53:14Z</time>
      </trkpt>
      <trkpt lat="47.26804" lon="-0.0868">
        <ele>22</ele>
        <time>2022-04-12T16:53:16Z</time>
      </trkpt>
      <trkpt lat="47.26804" lon="-0.08697">
        <ele>23</ele>
        <time>2022-04-12T16:53:18Z</time>
      </trkpt>
      <trkpt lat="47.26813" lon="-0.08706">
        <ele>22</ele>
        <time>2022-04-12T16:53:20Z</time>
      </trkpt>
      <trkpt lat="47.26824" lon="-0.08737">
        <ele>22</ele>
        <time>2022-04-12T16:53:24Z</time>
      </trkpt>
      <trkpt lat="47.26829" lon="-0.08763">
        <ele>23</ele>
        <time>2022-04-12T16:53:27Z</time>
      </trkpt>
      <trkpt lat="47.26835" lon="-0.0882">
        <ele>28</ele>
        <time>2022-04-12T16:53:34Z</time>
      </trkpt>
      <trkpt lat="47.26834" lon="-0.08836">
        <ele>29</ele>
        <time>2022-04-12T16:53:36Z</time>
      </trkpt>
      <trkpt lat="47.26807" lon="-0.08898">
        <ele>31</ele>
        <time>2022-04-12T16:53:45Z</time>
      </trkpt>
      <trkpt lat="47.26806" lon="-0.08907">
        <ele>31</ele>
        <time>2022-04-12T16:53:46Z</time>
      </trkpt>
      <trkpt lat="47.26708" lon="-0.09052">
        <ele>31</ele>
        <time>2022-04-12T16:54:11Z</time>
      </trkpt>
      <trkpt lat="47.26659" lon="-0.09117">
        <ele>30</ele>
        <time>2022-04-12T16:54:22Z</time>
      </trkpt>
      <trkpt lat="47.26646" lon="-0.09147">
        <ele>30</ele>
        <time>2022-04-12T16:54:27Z</time>
      </trkpt>
      <trkpt lat="47.26582" lon="-0.09203">
        <ele>32</ele>
        <time>2022-04-12T16:54:40Z</time>
      </trkpt>
      <trkpt lat="47.26623" lon="-0.09264">
        <ele>31</ele>
        <time>2022-04-12T16:54:50Z</time>
      </trkpt>
      <trkpt lat="47.26618" lon="-0.09273">
        <ele>31</ele>
        <time>2022-04-12T16:54:52Z</time>
      </trkpt>
      <trkpt lat="47.26593" lon="-0.09303">
        <ele>30</ele>
        <time>2022-04-12T16:54:58Z</time>
      </trkpt>
      <trkpt lat="47.26582" lon="-0.09321">
        <ele>30</ele>
        <time>2022-04-12T16:55:00Z</time>
      </trkpt>
      <trkpt lat="47.26575" lon="-0.09337">
        <ele>30</ele>
        <time>2022-04-12T16:55:03Z</time>
      </trkpt>
      <trkpt lat="47.2657" lon="-0.09357">
        <ele>29</ele>
        <time>2022-04-12T16:55:05Z</time>
      </trkpt>
      <trkpt lat="47.26566" lon="-0.09378">
        <ele>29</ele>
        <time>2022-04-12T16:55:08Z</time>
      </trkpt>
      <trkpt lat="47.26567" lon="-0.09408">
        <ele>28</ele>
        <time>2022-04-12T16:55:12Z</time>
      </trkpt>
      <trkpt lat="47.26581" lon="-0.09451">
        <ele>26</ele>
        <time>2022-04-12T16:55:17Z</time>
      </trkpt>
      <trkpt lat="47.26582" lon="-0.0946">
        <ele>26</ele>
        <time>2022-04-12T16:55:18Z</time>
      </trkpt>
      <trkpt lat="47.26579" lon="-0.09477">
        <ele>25</ele>
        <time>2022-04-12T16:55:21Z</time>
      </trkpt>
      <trkpt lat="47.26568" lon="-0.09498">
        <ele>25</ele>
        <time>2022-04-12T16:55:24Z</time>
      </trkpt>
      <trkpt lat="47.26552" lon="-0.09511">
        <ele>25</ele>
        <time>2022-04-12T16:55:27Z</time>
      </trkpt>
      <trkpt lat="47.26509" lon="-0.09529">
        <ele>26</ele>
        <time>2022-04-12T16:55:35Z</time>
      </trkpt>
      <trkpt lat="47.265" lon="-0.09532">
        <ele>26</ele>
        <time>2022-04-12T16:55:37Z</time>
      </trkpt>
      <trkpt lat="47.26493" lon="-0.09531">
        <ele>26</ele>
        <time>2022-04-12T16:55:38Z</time>
      </trkpt>
      <trkpt lat="47.26485" lon="-0.09528">
        <ele>26</ele>
        <time>2022-04-12T16:55:39Z</time>
      </trkpt>
      <trkpt lat="47.26468" lon="-0.09516">
        <ele>26</ele>
        <time>2022-04-12T16:55:43Z</time>
      </trkpt>
      <trkpt lat="47.26452" lon="-0.09511">
        <ele>27</ele>
        <time>2022-04-12T16:55:46Z</time>
      </trkpt>
      <trkpt lat="47.26438" lon="-0.0952">
        <ele>26</ele>
        <time>2022-04-12T16:55:48Z</time>
      </trkpt>
      <trkpt lat="47.26426" lon="-0.09541">
        <ele>26</ele>
        <time>2022-04-12T16:55:52Z</time>
      </trkpt>
      <trkpt lat="47.2642" lon="-0.09542">
        <ele>26</ele>
        <time>2022-04-12T16:55:53Z</time>
      </trkpt>
      <trkpt lat="47.26415" lon="-0.09539">
        <ele>26</ele>
        <time>2022-04-12T16:55:54Z</time>
      </trkpt>
      <trkpt lat="47.26415" lon="-0.09577">
        <ele>25</ele>
        <time>2022-04-12T16:55:58Z</time>
      </trkpt>
      <trkpt lat="47.26522" lon="-0.10048">
        <ele>32</ele>
        <time>2022-04-12T16:56:58Z</time>
      </trkpt>
      <trkpt lat="47.26527" lon="-0.10083">
        <ele>32</ele>
        <time>2022-04-12T16:57:03Z</time>
      </trkpt>
      <trkpt lat="47.2652" lon="-0.10085">
        <ele>33</ele>
        <time>2022-04-12T16:57:04Z</time>
      </trkpt>
      <trkpt lat="47.26516" lon="-0.10091">
        <ele>33</ele>
        <time>2022-04-12T16:57:05Z</time>
      </trkpt>
      <trkpt lat="47.26515" lon="-0.10098">
        <ele>33</ele>
        <time>2022-04-12T16:57:06Z</time>
      </trkpt>
      <trkpt lat="47.26522" lon="-0.10119">
        <ele>33</ele>
        <time>2022-04-12T16:57:09Z</time>
      </trkpt>
      <trkpt lat="47.26532" lon="-0.10128">
        <ele>33</ele>
        <time>2022-04-12T16:57:11Z</time>
      </trkpt>
      <trkpt lat="47.26538" lon="-0.10127">
        <ele>33</ele>
        <time>2022-04-12T16:57:12Z</time>
      </trkpt>
      <trkpt lat="47.26543" lon="-0.10116">
        <ele>33</ele>
        <time>2022-04-12T16:57:13Z</time>
      </trkpt>
      <trkpt lat="47.26559" lon="-0.10122">
        <ele>32</ele>
        <time>2022-04-12T16:57:16Z</time>
      </trkpt>
      <trkpt lat="47.26704" lon="-0.10217">
        <ele>33</ele>
        <time>2022-04-12T16:57:44Z</time>
      </trkpt>
      <trkpt lat="47.26733" lon="-0.10229">
        <ele>33</ele>
        <time>2022-04-12T16:57:50Z</time>
      </trkpt>
      <trkpt lat="47.26771" lon="-0.1024">
        <ele>32</ele>
        <time>2022-04-12T16:57:57Z</time>
      </trkpt>
      <trkpt lat="47.26826" lon="-0.1027">
        <ele>32</ele>
        <time>2022-04-12T16:58:07Z</time>
      </trkpt>
      <trkpt lat="47.26846" lon="-0.10287">
        <ele>32</ele>
        <time>2022-04-12T16:58:11Z</time>
      </trkpt>
      <trkpt lat="47.26895" lon="-0.10339">
        <ele>33</ele>
        <time>2022-04-12T16:58:22Z</time>
      </trkpt>
      <trkpt lat="47.26916" lon="-0.10356">
        <ele>33</ele>
        <time>2022-04-12T16:58:26Z</time>
      </trkpt>
      <trkpt lat="47.2695" lon="-0.10377">
        <ele>32</ele>
        <time>2022-04-12T16:58:33Z</time>
      </trkpt>
      <trkpt lat="47.27042" lon="-0.10446">
        <ele>31</ele>
        <time>2022-04-12T16:58:51Z</time>
      </trkpt>
      <trkpt lat="47.2713" lon="-0.10522">
        <ele>32</ele>
        <time>2022-04-12T16:59:09Z</time>
      </trkpt>
      <trkpt lat="47.27187" lon="-0.10567">
        <ele>31</ele>
        <time>2022-04-12T16:59:21Z</time>
      </trkpt>
      <trkpt lat="47.27267" lon="-0.107">
        <ele>33</ele>
        <time>2022-04-12T16:59:42Z</time>
      </trkpt>
      <trkpt lat="47.27381" lon="-0.10817">
        <ele>31</ele>
        <time>2022-04-12T17:00:07Z</time>
      </trkpt>
      <trkpt lat="47.27459" lon="-0.10946">
        <ele>31</ele>
        <time>2022-04-12T17:00:28Z</time>
      </trkpt>
      <trkpt lat="47.27466" lon="-0.10962">
        <ele>31</ele>
        <time>2022-04-12T17:00:30Z</time>
      </trkpt>
      <trkpt lat="47.27499" lon="-0.11157">
        <ele>29</ele>
        <time>2022-04-12T17:00:54Z</time>
      </trkpt>
      <trkpt lat="47.27506" lon="-0.11177">
        <ele>29</ele>
        <time>2022-04-12T17:00:57Z</time>
      </trkpt>
      <trkpt lat="47.27516" lon="-0.11196">
        <ele>29</ele>
        <time>2022-04-12T17:01:00Z</time>
      </trkpt>
      <trkpt lat="47.27793" lon="-0.11628">
        <ele>32</ele>
        <time>2022-04-12T17:02:12Z</time>
      </trkpt>
      <trkpt lat="47.27929" lon="-0.11881">
        <ele>28</ele>
        <time>2022-04-12T17:02:51Z</time>
      </trkpt>
      <trkpt lat="47.27986" lon="-0.11981">
        <ele>30</ele>
        <time>2022-04-12T17:03:07Z</time>
      </trkpt>
      <trkpt lat="47.28035" lon="-0.12049">
        <ele>30</ele>
        <time>2022-04-12T17:03:18Z</time>
      </trkpt>
      <trkpt lat="47.28073" lon="-0.12089">
        <ele>31</ele>
        <time>2022-04-12T17:03:27Z</time>
      </trkpt>
      <trkpt lat="47.28214" lon="-0.12223">
        <ele>37</ele>
        <time>2022-04-12T17:03:57Z</time>
      </trkpt>
      <trkpt lat="47.2827" lon="-0.12282">
        <ele>39</ele>
        <time>2022-04-12T17:04:09Z</time>
      </trkpt>
      <trkpt lat="47.28367" lon="-0.12404">
        <ele>41</ele>
        <time>2022-04-12T17:04:32Z</time>
      </trkpt>
      <trkpt lat="47.28426" lon="-0.12497">
        <ele>42</ele>
        <time>2022-04-12T17:04:47Z</time>
      </trkpt>
      <trkpt lat="47.28802" lon="-0.13131">
        <ele>40</ele>
        <time>2022-04-12T17:06:29Z</time>
      </trkpt>
      <trkpt lat="47.28815" lon="-0.13148">
        <ele>39</ele>
        <time>2022-04-12T17:06:32Z</time>
      </trkpt>
      <trkpt lat="47.28853" lon="-0.13185">
        <ele>37</ele>
        <time>2022-04-12T17:06:40Z</time>
      </trkpt>
      <trkpt lat="47.28873" lon="-0.13209">
        <ele>37</ele>
        <time>2022-04-12T17:06:44Z</time>
      </trkpt>
      <trkpt lat="47.28959" lon="-0.13352">
        <ele>35</ele>
        <time>2022-04-12T17:07:07Z</time>
      </trkpt>
      <trkpt lat="47.29" lon="-0.13399">
        <ele>30</ele>
        <time>2022-04-12T17:07:17Z</time>
      </trkpt>
      <trkpt lat="47.29031" lon="-0.13439">
        <ele>30</ele>
        <time>2022-04-12T17:07:24Z</time>
      </trkpt>
      <trkpt lat="47.29128" lon="-0.13545">
        <ele>31</ele>
        <time>2022-04-12T17:07:46Z</time>
      </trkpt>
      <trkpt lat="47.29152" lon="-0.13565">
        <ele>30</ele>
        <time>2022-04-12T17:07:50Z</time>
      </trkpt>
      <trkpt lat="47.29174" lon="-0.13577">
        <ele>28</ele>
        <time>2022-04-12T17:07:55Z</time>
      </trkpt>
      <trkpt lat="47.29206" lon="-0.13599">
        <ele>30</ele>
        <time>2022-04-12T17:08:01Z</time>
      </trkpt>
      <trkpt lat="47.29486" lon="-0.13817">
        <ele>30</ele>
        <time>2022-04-12T17:08:57Z</time>
      </trkpt>
      <trkpt lat="47.29555" lon="-0.13866">
        <ele>28</ele>
        <time>2022-04-12T17:09:11Z</time>
      </trkpt>
      <trkpt lat="47.29605" lon="-0.13916">
        <ele>26</ele>
        <time>2022-04-12T17:09:22Z</time>
      </trkpt>
      <trkpt lat="47.29623" lon="-0.13931">
        <ele>27</ele>
        <time>2022-04-12T17:09:25Z</time>
      </trkpt>
      <trkpt lat="47.2981" lon="-0.14075">
        <ele>34</ele>
        <time>2022-04-12T17:10:03Z</time>
      </trkpt>
      <trkpt lat="47.29934" lon="-0.14175">
        <ele>34</ele>
        <time>2022-04-12T17:10:28Z</time>
      </trkpt>
      <trkpt lat="47.29971" lon="-0.14201">
        <ele>36</ele>
        <time>2022-04-12T17:10:35Z</time>
      </trkpt>
      <trkpt lat="47.3006" lon="-0.1428">
        <ele>39</ele>
        <time>2022-04-12T17:10:54Z</time>
      </trkpt>
      <trkpt lat="47.30079" lon="-0.14301">
        <ele>41</ele>
        <time>2022-04-12T17:10:58Z</time>
      </trkpt>
      <trkpt lat="47.30139" lon="-0.14354">
        <ele>43</ele>
        <time>2022-04-12T17:11:10Z</time>
      </trkpt>
      <trkpt lat="47.30215" lon="-0.14437">
        <ele>44</ele>
        <time>2022-04-12T17:11:27Z</time>
      </trkpt>
      <trkpt lat="47.30279" lon="-0.14497">
        <ele>44</ele>
        <time>2022-04-12T17:11:41Z</time>
      </trkpt>
      <trkpt lat="47.3031" lon="-0.14532">
        <ele>46</ele>
        <time>2022-04-12T17:11:48Z</time>
      </trkpt>
      <trkpt lat="47.30384" lon="-0.14605">
        <ele>47</ele>
        <time>2022-04-12T17:12:03Z</time>
      </trkpt>
      <trkpt lat="47.30419" lon="-0.14643">
        <ele>49</ele>
        <time>2022-04-12T17:12:11Z</time>
      </trkpt>
      <trkpt lat="47.30457" lon="-0.14693">
        <ele>44</ele>
        <time>2022-04-12T17:12:20Z</time>
      </trkpt>
      <trkpt lat="47.3056" lon="-0.14876">
        <ele>43</ele>
        <time>2022-04-12T17:12:49Z</time>
      </trkpt>
      <trkpt lat="47.30636" lon="-0.15002">
        <ele>42</ele>
        <time>2022-04-12T17:13:09Z</time>
      </trkpt>
      <trkpt lat="47.30707" lon="-0.15114">
        <ele>36</ele>
        <time>2022-04-12T17:13:28Z</time>
      </trkpt>
      <trkpt lat="47.30737" lon="-0.15191">
        <ele>31</ele>
        <time>2022-04-12T17:13:39Z</time>
      </trkpt>
      <trkpt lat="47.30753" lon="-0.15226">
        <ele>28</ele>
        <time>2022-04-12T17:13:44Z</time>
      </trkpt>
      <trkpt lat="47.30797" lon="-0.15286">
        <ele>28</ele>
        <time>2022-04-12T17:13:54Z</time>
      </trkpt>
      <trkpt lat="47.30851" lon="-0.15332">
        <ele>29</ele>
        <time>2022-04-12T17:14:05Z</time>
      </trkpt>
      <trkpt lat="47.30877" lon="-0.15361">
        <ele>31</ele>
        <time>2022-04-12T17:14:11Z</time>
      </trkpt>
      <trkpt lat="47.30896" lon="-0.15388">
        <ele>33</ele>
        <time>2022-04-12T17:14:16Z</time>
      </trkpt>
      <trkpt lat="47.3092" lon="-0.1543">
        <ele>34</ele>
        <time>2022-04-12T17:14:23Z</time>
      </trkpt>
      <trkpt lat="47.30947" lon="-0.15467">
        <ele>34</ele>
        <time>2022-04-12T17:14:29Z</time>
      </trkpt>
      <trkpt lat="47.30972" lon="-0.15525">
        <ele>36</ele>
        <time>2022-04-12T17:14:37Z</time>
      </trkpt>
      <trkpt lat="47.31087" lon="-0.15695">
        <ele>31</ele>
        <time>2022-04-12T17:15:06Z</time>
      </trkpt>
      <trkpt lat="47.31118" lon="-0.15755">
        <ele>31</ele>
        <time>2022-04-12T17:15:15Z</time>
      </trkpt>
      <trkpt lat="47.31184" lon="-0.15901">
        <ele>39</ele>
        <time>2022-04-12T17:15:37Z</time>
      </trkpt>
      <trkpt lat="47.31199" lon="-0.15928">
        <ele>41</ele>
        <time>2022-04-12T17:15:41Z</time>
      </trkpt>
      <trkpt lat="47.31249" lon="-0.16006">
        <ele>43</ele>
        <time>2022-04-12T17:15:54Z</time>
      </trkpt>
      <trkpt lat="47.31282" lon="-0.16045">
        <ele>43</ele>
        <time>2022-04-12T17:16:01Z</time>
      </trkpt>
      <trkpt lat="47.31323" lon="-0.16102">
        <ele>35</ele>
        <time>2022-04-12T17:16:11Z</time>
      </trkpt>
      <trkpt lat="47.31341" lon="-0.16137">
        <ele>31</ele>
        <time>2022-04-12T17:16:17Z</time>
      </trkpt>
      <trkpt lat="47.31352" lon="-0.16168">
        <ele>31</ele>
        <time>2022-04-12T17:16:21Z</time>
      </trkpt>
      <trkpt lat="47.31367" lon="-0.16225">
        <ele>32</ele>
        <time>2022-04-12T17:16:28Z</time>
      </trkpt>
      <trkpt lat="47.3137" lon="-0.16247">
        <ele>33</ele>
        <time>2022-04-12T17:16:31Z</time>
      </trkpt>
      <trkpt lat="47.31373" lon="-0.16333">
        <ele>40</ele>
        <time>2022-04-12T17:16:41Z</time>
      </trkpt>
      <trkpt lat="47.31402" lon="-0.16574">
        <ele>42</ele>
        <time>2022-04-12T17:17:11Z</time>
      </trkpt>
      <trkpt lat="47.31427" lon="-0.16681">
        <ele>38</ele>
        <time>2022-04-12T17:17:24Z</time>
      </trkpt>
      <trkpt lat="47.31458" lon="-0.16791">
        <ele>34</ele>
        <time>2022-04-12T17:17:39Z</time>
      </trkpt>
      <trkpt lat="47.31478" lon="-0.16889">
        <ele>33</ele>
        <time>2022-04-12T17:17:51Z</time>
      </trkpt>
      <trkpt lat="47.31483" lon="-0.16947">
        <ele>37</ele>
        <time>2022-04-12T17:17:58Z</time>
      </trkpt>
      <trkpt lat="47.31489" lon="-0.16981">
        <ele>40</ele>
        <time>2022-04-12T17:18:02Z</time>
      </trkpt>
      <trkpt lat="47.31504" lon="-0.17029">
        <ele>42</ele>
        <time>2022-04-12T17:18:09Z</time>
      </trkpt>
      <trkpt lat="47.31517" lon="-0.17062">
        <ele>43</ele>
        <time>2022-04-12T17:18:13Z</time>
      </trkpt>
      <trkpt lat="47.31562" lon="-0.17159">
        <ele>37</ele>
        <time>2022-04-12T17:18:28Z</time>
      </trkpt>
      <trkpt lat="47.31595" lon="-0.1722">
        <ele>36</ele>
        <time>2022-04-12T17:18:37Z</time>
      </trkpt>
      <trkpt lat="47.31642" lon="-0.17295">
        <ele>41</ele>
        <time>2022-04-12T17:18:49Z</time>
      </trkpt>
      <trkpt lat="47.31699" lon="-0.17367">
        <ele>44</ele>
        <time>2022-04-12T17:19:03Z</time>
      </trkpt>
      <trkpt lat="47.31715" lon="-0.17393">
        <ele>43</ele>
        <time>2022-04-12T17:19:07Z</time>
      </trkpt>
      <trkpt lat="47.31734" lon="-0.1744">
        <ele>42</ele>
        <time>2022-04-12T17:19:14Z</time>
      </trkpt>
      <trkpt lat="47.31778" lon="-0.17662">
        <ele>29</ele>
        <time>2022-04-12T17:19:41Z</time>
      </trkpt>
      <trkpt lat="47.31814" lon="-0.1778">
        <ele>30</ele>
        <time>2022-04-12T17:19:57Z</time>
      </trkpt>
      <trkpt lat="47.319" lon="-0.18011">
        <ele>30</ele>
        <time>2022-04-12T17:20:29Z</time>
      </trkpt>
      <trkpt lat="47.32019" lon="-0.18311">
        <ele>29</ele>
        <time>2022-04-12T17:21:11Z</time>
      </trkpt>
      <trkpt lat="47.3204" lon="-0.18352">
        <ele>28</ele>
        <time>2022-04-12T17:21:17Z</time>
      </trkpt>
      <trkpt lat="47.32103" lon="-0.18441">
        <ele>28</ele>
        <time>2022-04-12T17:21:33Z</time>
      </trkpt>
      <trkpt lat="47.32207" lon="-0.18602">
        <ele>25</ele>
        <time>2022-04-12T17:21:59Z</time>
      </trkpt>
      <trkpt lat="47.32232" lon="-0.18646">
        <ele>27</ele>
        <time>2022-04-12T17:22:06Z</time>
      </trkpt>
      <trkpt lat="47.32253" lon="-0.18685">
        <ele>28</ele>
        <time>2022-04-12T17:22:12Z</time>
      </trkpt>
      <trkpt lat="47.32284" lon="-0.18753">
        <ele>27</ele>
        <time>2022-04-12T17:22:22Z</time>
      </trkpt>
      <trkpt lat="47.3233" lon="-0.1884">
        <ele>32</ele>
        <time>2022-04-12T17:22:35Z</time>
      </trkpt>
      <trkpt lat="47.32359" lon="-0.18909">
        <ele>32</ele>
        <time>2022-04-12T17:22:45Z</time>
      </trkpt>
      <trkpt lat="47.32441" lon="-0.19089">
        <ele>32</ele>
        <time>2022-04-12T17:23:11Z</time>
      </trkpt>
      <trkpt lat="47.3246" lon="-0.1912">
        <ele>34</ele>
        <time>2022-04-12T17:23:16Z</time>
      </trkpt>
      <trkpt lat="47.32501" lon="-0.19177">
        <ele>37</ele>
        <time>2022-04-12T17:23:26Z</time>
      </trkpt>
      <trkpt lat="47.3254" lon="-0.19247">
        <ele>43</ele>
        <time>2022-04-12T17:23:37Z</time>
      </trkpt>
      <trkpt lat="47.32589" lon="-0.19343">
        <ele>40</ele>
        <time>2022-04-12T17:23:52Z</time>
      </trkpt>
      <trkpt lat="47.32653" lon="-0.1948">
        <ele>35</ele>
        <time>2022-04-12T17:24:12Z</time>
      </trkpt>
      <trkpt lat="47.32678" lon="-0.19521">
        <ele>33</ele>
        <time>2022-04-12T17:24:19Z</time>
      </trkpt>
      <trkpt lat="47.32737" lon="-0.19607">
        <ele>37</ele>
        <time>2022-04-12T17:24:33Z</time>
      </trkpt>
      <trkpt lat="47.32785" lon="-0.19693">
        <ele>41</ele>
        <time>2022-04-12T17:24:47Z</time>
      </trkpt>
      <trkpt lat="47.32887" lon="-0.19847">
        <ele>38</ele>
        <time>2022-04-12T17:25:13Z</time>
      </trkpt>
      <trkpt lat="47.33037" lon="-0.20024">
        <ele>28</ele>
        <time>2022-04-12T17:25:47Z</time>
      </trkpt>
      <trkpt lat="47.33056" lon="-0.20043">
        <ele>29</ele>
        <time>2022-04-12T17:25:51Z</time>
      </trkpt>
      <trkpt lat="47.33115" lon="-0.20087">
        <ele>27</ele>
        <time>2022-04-12T17:26:03Z</time>
      </trkpt>
      <trkpt lat="47.33132" lon="-0.20103">
        <ele>26</ele>
        <time>2022-04-12T17:26:06Z</time>
      </trkpt>
      <trkpt lat="47.33148" lon="-0.20127">
        <ele>26</ele>
        <time>2022-04-12T17:26:10Z</time>
      </trkpt>
      <trkpt lat="47.33204" lon="-0.20239">
        <ele>33</ele>
        <time>2022-04-12T17:26:27Z</time>
      </trkpt>
      <trkpt lat="47.33239" lon="-0.20322">
        <ele>32</ele>
        <time>2022-04-12T17:26:39Z</time>
      </trkpt>
      <trkpt lat="47.33347" lon="-0.20544">
        <ele>33</ele>
        <time>2022-04-12T17:27:12Z</time>
      </trkpt>
      <trkpt lat="47.33395" lon="-0.20635">
        <ele>32</ele>
        <time>2022-04-12T17:27:26Z</time>
      </trkpt>
      <trkpt lat="47.33409" lon="-0.20691">
        <ele>32</ele>
        <time>2022-04-12T17:27:33Z</time>
      </trkpt>
      <trkpt lat="47.33422" lon="-0.20779">
        <ele>34</ele>
        <time>2022-04-12T17:27:44Z</time>
      </trkpt>
      <trkpt lat="47.33465" lon="-0.20972">
        <ele>35</ele>
        <time>2022-04-12T17:28:08Z</time>
      </trkpt>
      <trkpt lat="47.33475" lon="-0.21008">
        <ele>34</ele>
        <time>2022-04-12T17:28:13Z</time>
      </trkpt>
      <trkpt lat="47.33554" lon="-0.21235">
        <ele>35</ele>
        <time>2022-04-12T17:28:44Z</time>
      </trkpt>
      <trkpt lat="47.33641" lon="-0.21403">
        <ele>37</ele>
        <time>2022-04-12T17:29:09Z</time>
      </trkpt>
      <trkpt lat="47.33662" lon="-0.2145">
        <ele>33</ele>
        <time>2022-04-12T17:29:16Z</time>
      </trkpt>
      <trkpt lat="47.33672" lon="-0.2149">
        <ele>32</ele>
        <time>2022-04-12T17:29:21Z</time>
      </trkpt>
      <trkpt lat="47.33688" lon="-0.21608">
        <ele>39</ele>
        <time>2022-04-12T17:29:36Z</time>
      </trkpt>
      <trkpt lat="47.33713" lon="-0.21714">
        <ele>41</ele>
        <time>2022-04-12T17:29:49Z</time>
      </trkpt>
      <trkpt lat="47.33728" lon="-0.21759">
        <ele>41</ele>
        <time>2022-04-12T17:29:55Z</time>
      </trkpt>
      <trkpt lat="47.33793" lon="-0.21914">
        <ele>38</ele>
        <time>2022-04-12T17:30:17Z</time>
      </trkpt>
      <trkpt lat="47.33834" lon="-0.22019">
        <ele>30</ele>
        <time>2022-04-12T17:30:32Z</time>
      </trkpt>
      <trkpt lat="47.33853" lon="-0.22084">
        <ele>29</ele>
        <time>2022-04-12T17:30:41Z</time>
      </trkpt>
      <trkpt lat="47.34108" lon="-0.23119">
        <ele>28</ele>
        <time>2022-04-12T17:32:53Z</time>
      </trkpt>
      <trkpt lat="47.34108" lon="-0.23144">
        <ele>29</ele>
        <time>2022-04-12T17:32:56Z</time>
      </trkpt>
      <trkpt lat="47.34103" lon="-0.23149">
        <ele>29</ele>
        <time>2022-04-12T17:32:57Z</time>
      </trkpt>
      <trkpt lat="47.34103" lon="-0.23158">
        <ele>29</ele>
        <time>2022-04-12T17:32:58Z</time>
      </trkpt>
      <trkpt lat="47.34108" lon="-0.23163">
        <ele>30</ele>
        <time>2022-04-12T17:33:00Z</time>
      </trkpt>
      <trkpt lat="47.34113" lon="-0.23158">
        <ele>30</ele>
        <time>2022-04-12T17:33:01Z</time>
      </trkpt>
      <trkpt lat="47.34128" lon="-0.23168">
        <ele>31</ele>
        <time>2022-04-12T17:33:04Z</time>
      </trkpt>
      <trkpt lat="47.34154" lon="-0.23176">
        <ele>35</ele>
        <time>2022-04-12T17:33:08Z</time>
      </trkpt>
      <trkpt lat="47.3434" lon="-0.23211">
        <ele>37</ele>
        <time>2022-04-12T17:33:42Z</time>
      </trkpt>
      <trkpt lat="47.34358" lon="-0.23207">
        <ele>35</ele>
        <time>2022-04-12T17:33:45Z</time>
      </trkpt>
      <trkpt lat="47.34373" lon="-0.23193">
        <ele>32</ele>
        <time>2022-04-12T17:33:48Z</time>
      </trkpt>
      <trkpt lat="47.34554" lon="-0.23627">
        <ele>30</ele>
        <time>2022-04-12T17:34:49Z</time>
      </trkpt>
      <trkpt lat="47.34621" lon="-0.23756">
        <ele>24</ele>
        <time>2022-04-12T17:35:09Z</time>
      </trkpt>
      <trkpt lat="47.34689" lon="-0.2392">
        <ele>25</ele>
        <time>2022-04-12T17:35:32Z</time>
      </trkpt>
      <trkpt lat="47.34744" lon="-0.24066">
        <ele>29</ele>
        <time>2022-04-12T17:35:52Z</time>
      </trkpt>
      <trkpt lat="47.34774" lon="-0.24135">
        <ele>36</ele>
        <time>2022-04-12T17:36:02Z</time>
      </trkpt>
      <trkpt lat="47.34786" lon="-0.24156">
        <ele>37</ele>
        <time>2022-04-12T17:36:06Z</time>
      </trkpt>
      <trkpt lat="47.34849" lon="-0.24246">
        <ele>37</ele>
        <time>2022-04-12T17:36:21Z</time>
      </trkpt>
      <trkpt lat="47.34995" lon="-0.24419">
        <ele>36</ele>
        <time>2022-04-12T17:36:55Z</time>
      </trkpt>
      <trkpt lat="47.35016" lon="-0.24447">
        <ele>36</ele>
        <time>2022-04-12T17:37:00Z</time>
      </trkpt>
      <trkpt lat="47.35033" lon="-0.24476">
        <ele>36</ele>
        <time>2022-04-12T17:37:04Z</time>
      </trkpt>
      <trkpt lat="47.35153" lon="-0.24721">
        <ele>32</ele>
        <time>2022-04-12T17:37:41Z</time>
      </trkpt>
      <trkpt lat="47.35209" lon="-0.24825">
        <ele>29</ele>
        <time>2022-04-12T17:37:57Z</time>
      </trkpt>
      <trkpt lat="47.35228" lon="-0.24854">
        <ele>30</ele>
        <time>2022-04-12T17:38:02Z</time>
      </trkpt>
      <trkpt lat="47.35256" lon="-0.24891">
        <ele>31</ele>
        <time>2022-04-12T17:38:08Z</time>
      </trkpt>
      <trkpt lat="47.35328" lon="-0.24974">
        <ele>32</ele>
        <time>2022-04-12T17:38:24Z</time>
      </trkpt>
      <trkpt lat="47.35355" lon="-0.24999">
        <ele>31</ele>
        <time>2022-04-12T17:38:30Z</time>
      </trkpt>
      <trkpt lat="47.35456" lon="-0.25079">
        <ele>32</ele>
        <time>2022-04-12T17:38:51Z</time>
      </trkpt>
      <trkpt lat="47.35475" lon="-0.25098">
        <ele>31</ele>
        <time>2022-04-12T17:38:55Z</time>
      </trkpt>
      <trkpt lat="47.35498" lon="-0.25126">
        <ele>28</ele>
        <time>2022-04-12T17:39:00Z</time>
      </trkpt>
      <trkpt lat="47.35534" lon="-0.2518">
        <ele>26</ele>
        <time>2022-04-12T17:39:09Z</time>
      </trkpt>
      <trkpt lat="47.35639" lon="-0.25366">
        <ele>27</ele>
        <time>2022-04-12T17:39:38Z</time>
      </trkpt>
      <trkpt lat="47.35658" lon="-0.25407">
        <ele>26</ele>
        <time>2022-04-12T17:39:44Z</time>
      </trkpt>
      <trkpt lat="47.3576" lon="-0.25655">
        <ele>25</ele>
        <time>2022-04-12T17:40:19Z</time>
      </trkpt>
      <trkpt lat="47.35786" lon="-0.25699">
        <ele>26</ele>
        <time>2022-04-12T17:40:26Z</time>
      </trkpt>
      <trkpt lat="47.35831" lon="-0.25786">
        <ele>26</ele>
        <time>2022-04-12T17:40:39Z</time>
      </trkpt>
      <trkpt lat="47.35866" lon="-0.25838">
        <ele>26</ele>
        <time>2022-04-12T17:40:48Z</time>
      </trkpt>
      <trkpt lat="47.35968" lon="-0.25953">
        <ele>28</ele>
        <time>2022-04-12T17:41:11Z</time>
      </trkpt>
      <trkpt lat="47.36004" lon="-0.26004">
        <ele>28</ele>
        <time>2022-04-12T17:41:20Z</time>
      </trkpt>
      <trkpt lat="47.36031" lon="-0.26037">
        <ele>28</ele>
        <time>2022-04-12T17:41:26Z</time>
      </trkpt>
      <trkpt lat="47.36061" lon="-0.26066">
        <ele>28</ele>
        <time>2022-04-12T17:41:33Z</time>
      </trkpt>
      <trkpt lat="47.36126" lon="-0.26119">
        <ele>29</ele>
        <time>2022-04-12T17:41:46Z</time>
      </trkpt>
      <trkpt lat="47.36247" lon="-0.26204">
        <ele>25</ele>
        <time>2022-04-12T17:42:10Z</time>
      </trkpt>
      <trkpt lat="47.36303" lon="-0.26237">
        <ele>25</ele>
        <time>2022-04-12T17:42:20Z</time>
      </trkpt>
      <trkpt lat="47.36339" lon="-0.26254">
        <ele>25</ele>
        <time>2022-04-12T17:42:27Z</time>
      </trkpt>
      <trkpt lat="47.36423" lon="-0.26284">
        <ele>25</ele>
        <time>2022-04-12T17:42:42Z</time>
      </trkpt>
      <trkpt lat="47.36509" lon="-0.26299">
        <ele>25</ele>
        <time>2022-04-12T17:42:58Z</time>
      </trkpt>
      <trkpt lat="47.36558" lon="-0.26303">
        <ele>25</ele>
        <time>2022-04-12T17:43:07Z</time>
      </trkpt>
      <trkpt lat="47.36643" lon="-0.26302">
        <ele>24</ele>
        <time>2022-04-12T17:43:22Z</time>
      </trkpt>
      <trkpt lat="47.36669" lon="-0.26304">
        <ele>24</ele>
        <time>2022-04-12T17:43:26Z</time>
      </trkpt>
      <trkpt lat="47.36838" lon="-0.2633">
        <ele>25</ele>
        <time>2022-04-12T17:43:57Z</time>
      </trkpt>
      <trkpt lat="47.36853" lon="-0.26334">
        <ele>25</ele>
        <time>2022-04-12T17:43:59Z</time>
      </trkpt>
      <trkpt lat="47.36887" lon="-0.26348">
        <ele>24</ele>
        <time>2022-04-12T17:44:06Z</time>
      </trkpt>
      <trkpt lat="47.37002" lon="-0.26418">
        <ele>27</ele>
        <time>2022-04-12T17:44:28Z</time>
      </trkpt>
      <trkpt lat="47.37153" lon="-0.26523">
        <ele>25</ele>
        <time>2022-04-12T17:44:57Z</time>
      </trkpt>
      <trkpt lat="47.37175" lon="-0.26542">
        <ele>25</ele>
        <time>2022-04-12T17:45:02Z</time>
      </trkpt>
      <trkpt lat="47.3714" lon="-0.26623">
        <ele>31</ele>
        <time>2022-04-12T17:45:14Z</time>
      </trkpt>
      <trkpt lat="47.37124" lon="-0.26649">
        <ele>32</ele>
        <time>2022-04-12T17:45:18Z</time>
      </trkpt>
      <trkpt lat="47.3701" lon="-0.26806">
        <ele>38</ele>
        <time>2022-04-12T17:45:45Z</time>
      </trkpt>
      <trkpt lat="47.36995" lon="-0.26833">
        <ele>39</ele>
        <time>2022-04-12T17:45:50Z</time>
      </trkpt>
      <trkpt lat="47.3698" lon="-0.26866">
        <ele>43</ele>
        <time>2022-04-12T17:45:54Z</time>
      </trkpt>
      <trkpt lat="47.36961" lon="-0.26917">
        <ele>48</ele>
        <time>2022-04-12T17:46:02Z</time>
      </trkpt>
      <trkpt lat="47.36946" lon="-0.26946">
        <ele>50</ele>
        <time>2022-04-12T17:46:06Z</time>
      </trkpt>
      <trkpt lat="47.36837" lon="-0.27096">
        <ele>53</ele>
        <time>2022-04-12T17:46:32Z</time>
      </trkpt>
      <trkpt lat="47.36858" lon="-0.27172">
        <ele>51</ele>
        <time>2022-04-12T17:46:42Z</time>
      </trkpt>
      <trkpt lat="47.3689" lon="-0.27344">
        <ele>55</ele>
        <time>2022-04-12T17:47:04Z</time>
      </trkpt>
      <trkpt lat="47.36892" lon="-0.27394">
        <ele>56</ele>
        <time>2022-04-12T17:47:10Z</time>
      </trkpt>
      <trkpt lat="47.36883" lon="-0.27546">
        <ele>62</ele>
        <time>2022-04-12T17:47:28Z</time>
      </trkpt>
      <trkpt lat="47.36884" lon="-0.27569">
        <ele>64</ele>
        <time>2022-04-12T17:47:31Z</time>
      </trkpt>
      <trkpt lat="47.36896" lon="-0.27598">
        <ele>66</ele>
        <time>2022-04-12T17:47:35Z</time>
      </trkpt>
      <trkpt lat="47.36936" lon="-0.27651">
        <ele>69</ele>
        <time>2022-04-12T17:47:45Z</time>
      </trkpt>
      <trkpt lat="47.36952" lon="-0.27678">
        <ele>71</ele>
        <time>2022-04-12T17:47:49Z</time>
      </trkpt>
      <trkpt lat="47.36969" lon="-0.27697">
        <ele>72</ele>
        <time>2022-04-12T17:47:53Z</time>
      </trkpt>
      <trkpt lat="47.37004" lon="-0.27719">
        <ele>73</ele>
        <time>2022-04-12T17:48:00Z</time>
      </trkpt>
      <trkpt lat="47.37037" lon="-0.27745">
        <ele>74</ele>
        <time>2022-04-12T17:48:06Z</time>
      </trkpt>
      <trkpt lat="47.37048" lon="-0.27765">
        <ele>74</ele>
        <time>2022-04-12T17:48:09Z</time>
      </trkpt>
      <trkpt lat="47.37079" lon="-0.27857">
        <ele>76</ele>
        <time>2022-04-12T17:48:22Z</time>
      </trkpt>
      <trkpt lat="47.37111" lon="-0.2794">
        <ele>77</ele>
        <time>2022-04-12T17:48:33Z</time>
      </trkpt>
      <trkpt lat="47.37138" lon="-0.28026">
        <ele>76</ele>
        <time>2022-04-12T17:48:45Z</time>
      </trkpt>
      <trkpt lat="47.37164" lon="-0.28073">
        <ele>76</ele>
        <time>2022-04-12T17:48:52Z</time>
      </trkpt>
      <trkpt lat="47.37199" lon="-0.28118">
        <ele>75</ele>
        <time>2022-04-12T17:49:00Z</time>
      </trkpt>
      <trkpt lat="47.37231" lon="-0.28181">
        <ele>75</ele>
        <time>2022-04-12T17:49:10Z</time>
      </trkpt>
      <trkpt lat="47.37255" lon="-0.28238">
        <ele>75</ele>
        <time>2022-04-12T17:49:18Z</time>
      </trkpt>
      <trkpt lat="47.37295" lon="-0.28347">
        <ele>78</ele>
        <time>2022-04-12T17:49:33Z</time>
      </trkpt>
      <trkpt lat="47.37332" lon="-0.28475">
        <ele>80</ele>
        <time>2022-04-12T17:49:49Z</time>
      </trkpt>
      <trkpt lat="47.37348" lon="-0.28565">
        <ele>81</ele>
        <time>2022-04-12T17:50:01Z</time>
      </trkpt>
      <trkpt lat="47.37368" lon="-0.28777">
        <ele>79</ele>
        <time>2022-04-12T17:50:26Z</time>
      </trkpt>
      <trkpt lat="47.37372" lon="-0.28798">
        <ele>78</ele>
        <time>2022-04-12T17:50:29Z</time>
      </trkpt>
      <trkpt lat="47.37383" lon="-0.2883">
        <ele>78</ele>
        <time>2022-04-12T17:50:33Z</time>
      </trkpt>
      <trkpt lat="47.37392" lon="-0.28845">
        <ele>77</ele>
        <time>2022-04-12T17:50:36Z</time>
      </trkpt>
      <trkpt lat="47.37414" lon="-0.28871">
        <ele>77</ele>
        <time>2022-04-12T17:50:41Z</time>
      </trkpt>
      <trkpt lat="47.37538" lon="-0.28992">
        <ele>76</ele>
        <time>2022-04-12T17:51:07Z</time>
      </trkpt>
      <trkpt lat="47.37568" lon="-0.29017">
        <ele>75</ele>
        <time>2022-04-12T17:51:13Z</time>
      </trkpt>
      <trkpt lat="47.37644" lon="-0.29096">
        <ele>74</ele>
        <time>2022-04-12T17:51:30Z</time>
      </trkpt>
      <trkpt lat="47.37818" lon="-0.29331">
        <ele>72</ele>
        <time>2022-04-12T17:52:12Z</time>
      </trkpt>
      <trkpt lat="47.37838" lon="-0.2936">
        <ele>71</ele>
        <time>2022-04-12T17:52:17Z</time>
      </trkpt>
      <trkpt lat="47.3786" lon="-0.29402">
        <ele>70</ele>
        <time>2022-04-12T17:52:23Z</time>
      </trkpt>
      <trkpt lat="47.38013" lon="-0.29605">
        <ele>75</ele>
        <time>2022-04-12T17:53:00Z</time>
      </trkpt>
      <trkpt lat="47.38038" lon="-0.29634">
        <ele>74</ele>
        <time>2022-04-12T17:53:06Z</time>
      </trkpt>
      <trkpt lat="47.38057" lon="-0.2968">
        <ele>74</ele>
        <time>2022-04-12T17:53:12Z</time>
      </trkpt>
      <trkpt lat="47.38066" lon="-0.29711">
        <ele>74</ele>
        <time>2022-04-12T17:53:16Z</time>
      </trkpt>
      <trkpt lat="47.38079" lon="-0.29815">
        <ele>76</ele>
        <time>2022-04-12T17:53:29Z</time>
      </trkpt>
      <trkpt lat="47.38078" lon="-0.29842">
        <ele>75</ele>
        <time>2022-04-12T17:53:32Z</time>
      </trkpt>
      <trkpt lat="47.38064" lon="-0.29905">
        <ele>72</ele>
        <time>2022-04-12T17:53:40Z</time>
      </trkpt>
      <trkpt lat="47.38064" lon="-0.29927">
        <ele>72</ele>
        <time>2022-04-12T17:53:43Z</time>
      </trkpt>
      <trkpt lat="47.3809" lon="-0.30096">
        <ele>69</ele>
        <time>2022-04-12T17:54:04Z</time>
      </trkpt>
      <trkpt lat="47.38134" lon="-0.30248">
        <ele>66</ele>
        <time>2022-04-12T17:54:24Z</time>
      </trkpt>
      <trkpt lat="47.38141" lon="-0.30284">
        <ele>65</ele>
        <time>2022-04-12T17:54:28Z</time>
      </trkpt>
      <trkpt lat="47.38135" lon="-0.30324">
        <ele>65</ele>
        <time>2022-04-12T17:54:33Z</time>
      </trkpt>
      <trkpt lat="47.38121" lon="-0.3038">
        <ele>65</ele>
        <time>2022-04-12T17:54:40Z</time>
      </trkpt>
      <trkpt lat="47.38119" lon="-0.30409">
        <ele>65</ele>
        <time>2022-04-12T17:54:44Z</time>
      </trkpt>
      <trkpt lat="47.38121" lon="-0.30488">
        <ele>64</ele>
        <time>2022-04-12T17:54:53Z</time>
      </trkpt>
      <trkpt lat="47.38128" lon="-0.30479">
        <ele>64</ele>
        <time>2022-04-12T17:54:55Z</time>
      </trkpt>
      <trkpt lat="47.38231" lon="-0.30436">
        <ele>62</ele>
        <time>2022-04-12T17:55:14Z</time>
      </trkpt>
      <trkpt lat="47.3848" lon="-0.30432">
        <ele>59</ele>
        <time>2022-04-12T17:55:58Z</time>
      </trkpt>
      <trkpt lat="47.38495" lon="-0.30438">
        <ele>60</ele>
        <time>2022-04-12T17:56:01Z</time>
      </trkpt>
      <trkpt lat="47.3854" lon="-0.30485">
        <ele>63</ele>
        <time>2022-04-12T17:56:11Z</time>
      </trkpt>
      <trkpt lat="47.38584" lon="-0.30519">
        <ele>66</ele>
        <time>2022-04-12T17:56:20Z</time>
      </trkpt>
      <trkpt lat="47.38645" lon="-0.30561">
        <ele>67</ele>
        <time>2022-04-12T17:56:32Z</time>
      </trkpt>
      <trkpt lat="47.38726" lon="-0.3059">
        <ele>68</ele>
        <time>2022-04-12T17:56:46Z</time>
      </trkpt>
      <trkpt lat="47.38762" lon="-0.30617">
        <ele>68</ele>
        <time>2022-04-12T17:56:54Z</time>
      </trkpt>
      <trkpt lat="47.38816" lon="-0.30672">
        <ele>70</ele>
        <time>2022-04-12T17:57:05Z</time>
      </trkpt>
      <trkpt lat="47.38873" lon="-0.30717">
        <ele>70</ele>
        <time>2022-04-12T17:57:17Z</time>
      </trkpt>
      <trkpt lat="47.38913" lon="-0.30753">
        <ele>70</ele>
        <time>2022-04-12T17:57:25Z</time>
      </trkpt>
      <trkpt lat="47.38943" lon="-0.30797">
        <ele>70</ele>
        <time>2022-04-12T17:57:33Z</time>
      </trkpt>
      <trkpt lat="47.38988" lon="-0.30892">
        <ele>69</ele>
        <time>2022-04-12T17:57:47Z</time>
      </trkpt>
      <trkpt lat="47.3902" lon="-0.30941">
        <ele>69</ele>
        <time>2022-04-12T17:57:55Z</time>
      </trkpt>
      <trkpt lat="47.39046" lon="-0.3099">
        <ele>68</ele>
        <time>2022-04-12T17:58:02Z</time>
      </trkpt>
      <trkpt lat="47.39061" lon="-0.31166">
        <ele>64</ele>
        <time>2022-04-12T17:58:24Z</time>
      </trkpt>
      <trkpt lat="47.3907" lon="-0.31176">
        <ele>63</ele>
        <time>2022-04-12T17:58:26Z</time>
      </trkpt>
      <trkpt lat="47.39079" lon="-0.31178">
        <ele>62</ele>
        <time>2022-04-12T17:58:27Z</time>
      </trkpt>
      <trkpt lat="47.39114" lon="-0.31171">
        <ele>59</ele>
        <time>2022-04-12T17:58:34Z</time>
      </trkpt>
      <trkpt lat="47.39161" lon="-0.31153">
        <ele>56</ele>
        <time>2022-04-12T17:58:42Z</time>
      </trkpt>
      <trkpt lat="47.39179" lon="-0.31154">
        <ele>55</ele>
        <time>2022-04-12T17:58:45Z</time>
      </trkpt>
      <trkpt lat="47.39195" lon="-0.31159">
        <ele>53</ele>
        <time>2022-04-12T17:58:48Z</time>
      </trkpt>
      <trkpt lat="47.39214" lon="-0.31161">
        <ele>51</ele>
        <time>2022-04-12T17:58:52Z</time>
      </trkpt>
      <trkpt lat="47.39249" lon="-0.31156">
        <ele>49</ele>
        <time>2022-04-12T17:58:58Z</time>
      </trkpt>
      <trkpt lat="47.39283" lon="-0.31125">
        <ele>46</ele>
        <time>2022-04-12T17:59:05Z</time>
      </trkpt>
      <trkpt lat="47.39291" lon="-0.31122">
        <ele>45</ele>
        <time>2022-04-12T17:59:07Z</time>
      </trkpt>
      <trkpt lat="47.39298" lon="-0.3112">
        <ele>45</ele>
        <time>2022-04-12T17:59:08Z</time>
      </trkpt>
      <trkpt lat="47.39334" lon="-0.3112">
        <ele>41</ele>
        <time>2022-04-12T17:59:14Z</time>
      </trkpt>
      <trkpt lat="47.39519" lon="-0.31056">
        <ele>33</ele>
        <time>2022-04-12T17:59:48Z</time>
      </trkpt>
      <trkpt lat="47.39576" lon="-0.31039">
        <ele>31</ele>
        <time>2022-04-12T17:59:58Z</time>
      </trkpt>
      <trkpt lat="47.39684" lon="-0.31002">
        <ele>29</ele>
        <time>2022-04-12T18:00:18Z</time>
      </trkpt>
      <trkpt lat="47.39703" lon="-0.31033">
        <ele>28</ele>
        <time>2022-04-12T18:00:23Z</time>
      </trkpt>
      <trkpt lat="47.39718" lon="-0.31066">
        <ele>28</ele>
        <time>2022-04-12T18:00:28Z</time>
      </trkpt>
      <trkpt lat="47.39781" lon="-0.31233">
        <ele>26</ele>
        <time>2022-04-12T18:00:51Z</time>
      </trkpt>
      <trkpt lat="47.39777" lon="-0.31333">
        <ele>27</ele>
        <time>2022-04-12T18:01:03Z</time>
      </trkpt>
      <trkpt lat="47.39755" lon="-0.31482">
        <ele>29</ele>
        <time>2022-04-12T18:01:21Z</time>
      </trkpt>
      <trkpt lat="47.39767" lon="-0.31615">
        <ele>29</ele>
        <time>2022-04-12T18:01:38Z</time>
      </trkpt>
      <trkpt lat="47.39772" lon="-0.31707">
        <ele>28</ele>
        <time>2022-04-12T18:01:49Z</time>
      </trkpt>
      <trkpt lat="47.39776" lon="-0.31731">
        <ele>27</ele>
        <time>2022-04-12T18:01:52Z</time>
      </trkpt>
      <trkpt lat="47.39787" lon="-0.31738">
        <ele>27</ele>
        <time>2022-04-12T18:01:54Z</time>
      </trkpt>
      <trkpt lat="47.39897" lon="-0.31766">
        <ele>26</ele>
        <time>2022-04-12T18:02:14Z</time>
      </trkpt>
      <trkpt lat="47.39921" lon="-0.31779">
        <ele>26</ele>
        <time>2022-04-12T18:02:18Z</time>
      </trkpt>
      <trkpt lat="47.39932" lon="-0.31793">
        <ele>26</ele>
        <time>2022-04-12T18:02:21Z</time>
      </trkpt>
      <trkpt lat="47.40021" lon="-0.31971">
        <ele>26</ele>
        <time>2022-04-12T18:02:47Z</time>
      </trkpt>
      <trkpt lat="47.40042" lon="-0.32025">
        <ele>24</ele>
        <time>2022-04-12T18:02:55Z</time>
      </trkpt>
      <trkpt lat="47.40859" lon="-0.31826">
        <ele>19</ele>
        <time>2022-04-12T18:05:22Z</time>
      </trkpt>
      <trkpt lat="47.40862" lon="-0.31834">
        <ele>19</ele>
        <time>2022-04-12T18:05:23Z</time>
      </trkpt>
      <trkpt lat="47.40865" lon="-0.31834">
        <ele>20</ele>
        <time>2022-04-12T18:05:24Z</time>
      </trkpt>
      <trkpt lat="47.40881" lon="-0.319">
        <ele>22</ele>
        <time>2022-04-12T18:05:32Z</time>
      </trkpt>
      <trkpt lat="47.40915" lon="-0.32011">
        <ele>26</ele>
        <time>2022-04-12T18:05:47Z</time>
      </trkpt>
      <trkpt lat="47.40938" lon="-0.32001">
        <ele>25</ele>
        <time>2022-04-12T18:05:51Z</time>
      </trkpt>
      <trkpt lat="47.40989" lon="-0.31966">
        <ele>25</ele>
        <time>2022-04-12T18:06:01Z</time>
      </trkpt>
      <trkpt lat="47.41077" lon="-0.31942">
        <ele>22</ele>
        <time>2022-04-12T18:06:17Z</time>
      </trkpt>
      <trkpt lat="47.4124" lon="-0.31903">
        <ele>21</ele>
        <time>2022-04-12T18:06:47Z</time>
      </trkpt>
      <trkpt lat="47.41247" lon="-0.31925">
        <ele>21</ele>
        <time>2022-04-12T18:06:50Z</time>
      </trkpt>
      <trkpt lat="47.41266" lon="-0.32017">
        <ele>20</ele>
        <time>2022-04-12T18:07:01Z</time>
      </trkpt>
      <trkpt lat="47.41331" lon="-0.32278">
        <ele>20</ele>
        <time>2022-04-12T18:07:35Z</time>
      </trkpt>
      <trkpt lat="47.41436" lon="-0.32667">
        <ele>18</ele>
        <time>2022-04-12T18:08:25Z</time>
      </trkpt>
      <trkpt lat="47.41468" lon="-0.32778">
        <ele>18</ele>
        <time>2022-04-12T18:08:40Z</time>
      </trkpt>
      <trkpt lat="47.41479" lon="-0.33135">
        <ele>20</ele>
        <time>2022-04-12T18:09:23Z</time>
      </trkpt>
      <trkpt lat="47.41476" lon="-0.3331">
        <ele>21</ele>
        <time>2022-04-12T18:09:44Z</time>
      </trkpt>
      <trkpt lat="47.41318" lon="-0.33341">
        <ele>20</ele>
        <time>2022-04-12T18:10:12Z</time>
      </trkpt>
      <trkpt lat="47.41309" lon="-0.33492">
        <ele>19</ele>
        <time>2022-04-12T18:10:30Z</time>
      </trkpt>
      <trkpt lat="47.41311" lon="-0.33517">
        <ele>19</ele>
        <time>2022-04-12T18:10:33Z</time>
      </trkpt>
      <trkpt lat="47.41313" lon="-0.33524">
        <ele>19</ele>
        <time>2022-04-12T18:10:34Z</time>
      </trkpt>
      <trkpt lat="47.41338" lon="-0.33556">
        <ele>19</ele>
        <time>2022-04-12T18:10:40Z</time>
      </trkpt>
      <trkpt lat="47.41357" lon="-0.33571">
        <ele>19</ele>
        <time>2022-04-12T18:10:44Z</time>
      </trkpt>
      <trkpt lat="47.41412" lon="-0.33582">
        <ele>18</ele>
        <time>2022-04-12T18:10:54Z</time>
      </trkpt>
      <trkpt lat="47.4142" lon="-0.33588">
        <ele>18</ele>
        <time>2022-04-12T18:10:55Z</time>
      </trkpt>
      <trkpt lat="47.41428" lon="-0.33607">
        <ele>18</ele>
        <time>2022-04-12T18:10:58Z</time>
      </trkpt>
      <trkpt lat="47.41636" lon="-0.34262">
        <ele>19</ele>
        <time>2022-04-12T18:12:25Z</time>
      </trkpt>
      <trkpt lat="47.41645" lon="-0.34305">
        <ele>20</ele>
        <time>2022-04-12T18:12:31Z</time>
      </trkpt>
      <trkpt lat="47.41637" lon="-0.34303">
        <ele>20</ele>
        <time>2022-04-12T18:12:32Z</time>
      </trkpt>
      <trkpt lat="47.41622" lon="-0.34308">
        <ele>20</ele>
        <time>2022-04-12T18:12:35Z</time>
      </trkpt>
      <trkpt lat="47.41597" lon="-0.34336">
        <ele>20</ele>
        <time>2022-04-12T18:12:40Z</time>
      </trkpt>
      <trkpt lat="47.41553" lon="-0.34373">
        <ele>20</ele>
        <time>2022-04-12T18:12:49Z</time>
      </trkpt>
      <trkpt lat="47.4158" lon="-0.34397">
        <ele>19</ele>
        <time>2022-04-12T18:12:55Z</time>
      </trkpt>
      <trkpt lat="47.41642" lon="-0.34493">
        <ele>19</ele>
        <time>2022-04-12T18:13:11Z</time>
      </trkpt>
      <trkpt lat="47.41656" lon="-0.34508">
        <ele>19</ele>
        <time>2022-04-12T18:13:14Z</time>
      </trkpt>
      <trkpt lat="47.41684" lon="-0.34529">
        <ele>19</ele>
        <time>2022-04-12T18:13:20Z</time>
      </trkpt>
      <trkpt lat="47.41682" lon="-0.34543">
        <ele>19</ele>
        <time>2022-04-12T18:13:21Z</time>
      </trkpt>
      <trkpt lat="47.41683" lon="-0.34562">
        <ele>19</ele>
        <time>2022-04-12T18:13:24Z</time>
      </trkpt>
      <trkpt lat="47.4177" lon="-0.35099">
        <ele>18</ele>
        <time>2022-04-12T18:14:30Z</time>
      </trkpt>
      <trkpt lat="47.41891" lon="-0.35101">
        <ele>19</ele>
        <time>2022-04-12T18:14:52Z</time>
      </trkpt>
      <trkpt lat="47.41907" lon="-0.35104">
        <ele>19</ele>
        <time>2022-04-12T18:14:55Z</time>
      </trkpt>
      <trkpt lat="47.41925" lon="-0.35137">
        <ele>19</ele>
        <time>2022-04-12T18:15:00Z</time>
      </trkpt>
      <trkpt lat="47.41931" lon="-0.35156">
        <ele>19</ele>
        <time>2022-04-12T18:15:02Z</time>
      </trkpt>
      <trkpt lat="47.41986" lon="-0.35447">
        <ele>19</ele>
        <time>2022-04-12T18:15:39Z</time>
      </trkpt>
      <trkpt lat="47.42052" lon="-0.35746">
        <ele>18</ele>
        <time>2022-04-12T18:16:16Z</time>
      </trkpt>
      <trkpt lat="47.42064" lon="-0.35941">
        <ele>19</ele>
        <time>2022-04-12T18:16:40Z</time>
      </trkpt>
      <trkpt lat="47.42072" lon="-0.36007">
        <ele>19</ele>
        <time>2022-04-12T18:16:48Z</time>
      </trkpt>
      <trkpt lat="47.42048" lon="-0.36011">
        <ele>19</ele>
        <time>2022-04-12T18:16:52Z</time>
      </trkpt>
      <trkpt lat="47.4202" lon="-0.36012">
        <ele>18</ele>
        <time>2022-04-12T18:16:57Z</time>
      </trkpt>
      <trkpt lat="47.41965" lon="-0.36006">
        <ele>17</ele>
        <time>2022-04-12T18:17:07Z</time>
      </trkpt>
      <trkpt lat="47.41965" lon="-0.36019">
        <ele>18</ele>
        <time>2022-04-12T18:17:09Z</time>
      </trkpt>
      <trkpt lat="47.42125" lon="-0.36816">
        <ele>19</ele>
        <time>2022-04-12T18:18:49Z</time>
      </trkpt>
      <trkpt lat="47.42131" lon="-0.36843">
        <ele>19</ele>
        <time>2022-04-12T18:18:52Z</time>
      </trkpt>
      <trkpt lat="47.42175" lon="-0.36829">
        <ele>20</ele>
        <time>2022-04-12T18:19:00Z</time>
      </trkpt>
      <trkpt lat="47.42293" lon="-0.36774">
        <ele>18</ele>
        <time>2022-04-12T18:19:22Z</time>
      </trkpt>
      <trkpt lat="47.42357" lon="-0.37129">
        <ele>16</ele>
        <time>2022-04-12T18:20:06Z</time>
      </trkpt>
      <trkpt lat="47.42398" lon="-0.37292">
        <ele>18</ele>
        <time>2022-04-12T18:20:27Z</time>
      </trkpt>
      <trkpt lat="47.42467" lon="-0.37498">
        <ele>16</ele>
        <time>2022-04-12T18:20:55Z</time>
      </trkpt>
      <trkpt lat="47.42481" lon="-0.37551">
        <ele>16</ele>
        <time>2022-04-12T18:21:02Z</time>
      </trkpt>
      <trkpt lat="47.42486" lon="-0.37584">
        <ele>16</ele>
        <time>2022-04-12T18:21:06Z</time>
      </trkpt>
      <trkpt lat="47.42496" lon="-0.37847">
        <ele>18</ele>
        <time>2022-04-12T18:21:38Z</time>
      </trkpt>
      <trkpt lat="47.42505" lon="-0.37957">
        <ele>18</ele>
        <time>2022-04-12T18:21:51Z</time>
      </trkpt>
      <trkpt lat="47.42519" lon="-0.38066">
        <ele>17</ele>
        <time>2022-04-12T18:22:04Z</time>
      </trkpt>
      <trkpt lat="47.42541" lon="-0.38176">
        <ele>18</ele>
        <time>2022-04-12T18:22:18Z</time>
      </trkpt>
      <trkpt lat="47.42546" lon="-0.38174">
        <ele>18</ele>
        <time>2022-04-12T18:22:19Z</time>
      </trkpt>
      <trkpt lat="47.42539" lon="-0.38189">
        <ele>18</ele>
        <time>2022-04-12T18:22:21Z</time>
      </trkpt>
      <trkpt lat="47.4253" lon="-0.38229">
        <ele>18</ele>
        <time>2022-04-12T18:22:26Z</time>
      </trkpt>
      <trkpt lat="47.42522" lon="-0.38296">
        <ele>19</ele>
        <time>2022-04-12T18:22:35Z</time>
      </trkpt>
      <trkpt lat="47.42523" lon="-0.38364">
        <ele>19</ele>
        <time>2022-04-12T18:22:43Z</time>
      </trkpt>
      <trkpt lat="47.42525" lon="-0.38376">
        <ele>19</ele>
        <time>2022-04-12T18:22:44Z</time>
      </trkpt>
      <trkpt lat="47.42543" lon="-0.38428">
        <ele>19</ele>
        <time>2022-04-12T18:22:51Z</time>
      </trkpt>
      <trkpt lat="47.42587" lon="-0.38577">
        <ele>19</ele>
        <time>2022-04-12T18:23:11Z</time>
      </trkpt>
      <trkpt lat="47.42617" lon="-0.387">
        <ele>18</ele>
        <time>2022-04-12T18:23:27Z</time>
      </trkpt>
      <trkpt lat="47.42664" lon="-0.38859">
        <ele>18</ele>
        <time>2022-04-12T18:23:47Z</time>
      </trkpt>
      <trkpt lat="47.42707" lon="-0.38973">
        <ele>18</ele>
        <time>2022-04-12T18:24:03Z</time>
      </trkpt>
      <trkpt lat="47.4274" lon="-0.39051">
        <ele>19</ele>
        <time>2022-04-12T18:24:14Z</time>
      </trkpt>
      <trkpt lat="47.42753" lon="-0.39095">
        <ele>19</ele>
        <time>2022-04-12T18:24:20Z</time>
      </trkpt>
      <trkpt lat="47.42784" lon="-0.39256">
        <ele>17</ele>
        <time>2022-04-12T18:24:40Z</time>
      </trkpt>
      <trkpt lat="47.42823" lon="-0.39363">
        <ele>17</ele>
        <time>2022-04-12T18:24:55Z</time>
      </trkpt>
      <trkpt lat="47.42865" lon="-0.39542">
        <ele>18</ele>
        <time>2022-04-12T18:25:18Z</time>
      </trkpt>
      <trkpt lat="47.42876" lon="-0.39604">
        <ele>17</ele>
        <time>2022-04-12T18:25:25Z</time>
      </trkpt>
      <trkpt lat="47.42884" lon="-0.39677">
        <ele>17</ele>
        <time>2022-04-12T18:25:34Z</time>
      </trkpt>
      <trkpt lat="47.42883" lon="-0.39698">
        <ele>17</ele>
        <time>2022-04-12T18:25:37Z</time>
      </trkpt>
      <trkpt lat="47.42876" lon="-0.39706">
        <ele>17</ele>
        <time>2022-04-12T18:25:38Z</time>
      </trkpt>
      <trkpt lat="47.42793" lon="-0.39977">
        <ele>16</ele>
        <time>2022-04-12T18:26:14Z</time>
      </trkpt>
      <trkpt lat="47.4278" lon="-0.40004">
        <ele>16</ele>
        <time>2022-04-12T18:26:18Z</time>
      </trkpt>
      <trkpt lat="47.42778" lon="-0.40016">
        <ele>16</ele>
        <time>2022-04-12T18:26:20Z</time>
      </trkpt>
      <trkpt lat="47.42778" lon="-0.40117">
        <ele>16</ele>
        <time>2022-04-12T18:26:32Z</time>
      </trkpt>
      <trkpt lat="47.42784" lon="-0.40243">
        <ele>16</ele>
        <time>2022-04-12T18:26:47Z</time>
      </trkpt>
      <trkpt lat="47.42793" lon="-0.4057">
        <ele>16</ele>
        <time>2022-04-12T18:27:26Z</time>
      </trkpt>
      <trkpt lat="47.42794" lon="-0.41015">
        <ele>15</ele>
        <time>2022-04-12T18:28:20Z</time>
      </trkpt>
      <trkpt lat="47.42784" lon="-0.41574">
        <ele>17</ele>
        <time>2022-04-12T18:29:27Z</time>
      </trkpt>
      <trkpt lat="47.42758" lon="-0.4189">
        <ele>18</ele>
        <time>2022-04-12T18:30:06Z</time>
      </trkpt>
      <trkpt lat="47.4267" lon="-0.42789">
        <ele>17</ele>
        <time>2022-04-12T18:31:55Z</time>
      </trkpt>
      <trkpt lat="47.42581" lon="-0.42782">
        <ele>17</ele>
        <time>2022-04-12T18:32:11Z</time>
      </trkpt>
      <trkpt lat="47.4254" lon="-0.42786">
        <ele>18</ele>
        <time>2022-04-12T18:32:18Z</time>
      </trkpt>
      <trkpt lat="47.42476" lon="-0.42962">
        <ele>17</ele>
        <time>2022-04-12T18:32:42Z</time>
      </trkpt>
      <trkpt lat="47.42501" lon="-0.42972">
        <ele>17</ele>
        <time>2022-04-12T18:32:47Z</time>
      </trkpt>
      <trkpt lat="47.42511" lon="-0.42982">
        <ele>17</ele>
        <time>2022-04-12T18:32:49Z</time>
      </trkpt>
      <trkpt lat="47.42513" lon="-0.42999">
        <ele>17</ele>
        <time>2022-04-12T18:32:51Z</time>
      </trkpt>
      <trkpt lat="47.42496" lon="-0.4308">
        <ele>17</ele>
        <time>2022-04-12T18:33:01Z</time>
      </trkpt>
      <trkpt lat="47.42494" lon="-0.43143">
        <ele>17</ele>
        <time>2022-04-12T18:33:09Z</time>
      </trkpt>
      <trkpt lat="47.42495" lon="-0.43164">
        <ele>17</ele>
        <time>2022-04-12T18:33:11Z</time>
      </trkpt>
      <trkpt lat="47.425" lon="-0.43192">
        <ele>17</ele>
        <time>2022-04-12T18:33:15Z</time>
      </trkpt>
      <trkpt lat="47.42509" lon="-0.43223">
        <ele>18</ele>
        <time>2022-04-12T18:33:19Z</time>
      </trkpt>
      <trkpt lat="47.42514" lon="-0.43259">
        <ele>18</ele>
        <time>2022-04-12T18:33:23Z</time>
      </trkpt>
      <trkpt lat="47.42516" lon="-0.43297">
        <ele>17</ele>
        <time>2022-04-12T18:33:28Z</time>
      </trkpt>
      <trkpt lat="47.42504" lon="-0.43463">
        <ele>17</ele>
        <time>2022-04-12T18:33:48Z</time>
      </trkpt>
      <trkpt lat="47.42507" lon="-0.43502">
        <ele>17</ele>
        <time>2022-04-12T18:33:53Z</time>
      </trkpt>
      <trkpt lat="47.42518" lon="-0.43552">
        <ele>17</ele>
        <time>2022-04-12T18:33:59Z</time>
      </trkpt>
      <trkpt lat="47.42524" lon="-0.43613">
        <ele>17</ele>
        <time>2022-04-12T18:34:06Z</time>
      </trkpt>
      <trkpt lat="47.42501" lon="-0.43699">
        <ele>17</ele>
        <time>2022-04-12T18:34:18Z</time>
      </trkpt>
      <trkpt lat="47.42457" lon="-0.43802">
        <ele>16</ele>
        <time>2022-04-12T18:34:32Z</time>
      </trkpt>
      <trkpt lat="47.42445" lon="-0.43846">
        <ele>17</ele>
        <time>2022-04-12T18:34:38Z</time>
      </trkpt>
      <trkpt lat="47.42441" lon="-0.43902">
        <ele>17</ele>
        <time>2022-04-12T18:34:45Z</time>
      </trkpt>
      <trkpt lat="47.42435" lon="-0.43925">
        <ele>17</ele>
        <time>2022-04-12T18:34:48Z</time>
      </trkpt>
      <trkpt lat="47.4239" lon="-0.43996">
        <ele>18</ele>
        <time>2022-04-12T18:34:59Z</time>
      </trkpt>
      <trkpt lat="47.42371" lon="-0.44059">
        <ele>18</ele>
        <time>2022-04-12T18:35:08Z</time>
      </trkpt>
      <trkpt lat="47.42357" lon="-0.44125">
        <ele>18</ele>
        <time>2022-04-12T18:35:16Z</time>
      </trkpt>
      <trkpt lat="47.42346" lon="-0.4414">
        <ele>19</ele>
        <time>2022-04-12T18:35:19Z</time>
      </trkpt>
      <trkpt lat="47.42285" lon="-0.44182">
        <ele>19</ele>
        <time>2022-04-12T18:35:31Z</time>
      </trkpt>
      <trkpt lat="47.42264" lon="-0.44191">
        <ele>19</ele>
        <time>2022-04-12T18:35:35Z</time>
      </trkpt>
      <trkpt lat="47.42205" lon="-0.44196">
        <ele>18</ele>
        <time>2022-04-12T18:35:45Z</time>
      </trkpt>
      <trkpt lat="47.42191" lon="-0.44204">
        <ele>18</ele>
        <time>2022-04-12T18:35:48Z</time>
      </trkpt>
      <trkpt lat="47.4217" lon="-0.44247">
        <ele>17</ele>
        <time>2022-04-12T18:35:54Z</time>
      </trkpt>
      <trkpt lat="47.42147" lon="-0.44276">
        <ele>18</ele>
        <time>2022-04-12T18:36:00Z</time>
      </trkpt>
      <trkpt lat="47.42131" lon="-0.44306">
        <ele>18</ele>
        <time>2022-04-12T18:36:04Z</time>
      </trkpt>
      <trkpt lat="47.42119" lon="-0.44377">
        <ele>19</ele>
        <time>2022-04-12T18:36:13Z</time>
      </trkpt>
      <trkpt lat="47.42088" lon="-0.44379">
        <ele>19</ele>
        <time>2022-04-12T18:36:18Z</time>
      </trkpt>
      <trkpt lat="47.42057" lon="-0.44392">
        <ele>20</ele>
        <time>2022-04-12T18:36:24Z</time>
      </trkpt>
      <trkpt lat="47.42042" lon="-0.44408">
        <ele>21</ele>
        <time>2022-04-12T18:36:27Z</time>
      </trkpt>
      <trkpt lat="47.42038" lon="-0.4442">
        <ele>21</ele>
        <time>2022-04-12T18:36:29Z</time>
      </trkpt>
      <trkpt lat="47.42042" lon="-0.44493">
        <ele>21</ele>
        <time>2022-04-12T18:36:38Z</time>
      </trkpt>
      <trkpt lat="47.42036" lon="-0.44523">
        <ele>21</ele>
        <time>2022-04-12T18:36:42Z</time>
      </trkpt>
      <trkpt lat="47.42032" lon="-0.44527">
        <ele>21</ele>
        <time>2022-04-12T18:36:43Z</time>
      </trkpt>
      <trkpt lat="47.42028" lon="-0.44562">
        <ele>21</ele>
        <time>2022-04-12T18:36:47Z</time>
      </trkpt>
      <trkpt lat="47.42022" lon="-0.4459">
        <ele>20</ele>
        <time>2022-04-12T18:36:50Z</time>
      </trkpt>
      <trkpt lat="47.42024" lon="-0.44613">
        <ele>20</ele>
        <time>2022-04-12T18:36:53Z</time>
      </trkpt>
      <trkpt lat="47.42013" lon="-0.44859">
        <ele>20</ele>
        <time>2022-04-12T18:37:23Z</time>
      </trkpt>
      <trkpt lat="47.42008" lon="-0.44877">
        <ele>20</ele>
        <time>2022-04-12T18:37:25Z</time>
      </trkpt>
      <trkpt lat="47.42001" lon="-0.44879">
        <ele>20</ele>
        <time>2022-04-12T18:37:26Z</time>
      </trkpt>
      <trkpt lat="47.41998" lon="-0.44883">
        <ele>20</ele>
        <time>2022-04-12T18:37:27Z</time>
      </trkpt>
      <trkpt lat="47.41996" lon="-0.44896">
        <ele>20</ele>
        <time>2022-04-12T18:37:29Z</time>
      </trkpt>
      <trkpt lat="47.42001" lon="-0.44908">
        <ele>20</ele>
        <time>2022-04-12T18:37:30Z</time>
      </trkpt>
      <trkpt lat="47.42007" lon="-0.44911">
        <ele>20</ele>
        <time>2022-04-12T18:37:32Z</time>
      </trkpt>
      <trkpt lat="47.42011" lon="-0.4491">
        <ele>20</ele>
        <time>2022-04-12T18:37:32Z</time>
      </trkpt>
      <trkpt lat="47.42018" lon="-0.44935">
        <ele>19</ele>
        <time>2022-04-12T18:37:36Z</time>
      </trkpt>
      <trkpt lat="47.42069" lon="-0.45068">
        <ele>18</ele>
        <time>2022-04-12T18:37:54Z</time>
      </trkpt>
      <trkpt lat="47.42054" lon="-0.45082">
        <ele>18</ele>
        <time>2022-04-12T18:37:57Z</time>
      </trkpt>
      <trkpt lat="47.4204" lon="-0.45108">
        <ele>18</ele>
        <time>2022-04-12T18:38:01Z</time>
      </trkpt>
      <trkpt lat="47.42" lon="-0.45215">
        <ele>17</ele>
        <time>2022-04-12T18:38:16Z</time>
      </trkpt>
      <trkpt lat="47.41983" lon="-0.45278">
        <ele>17</ele>
        <time>2022-04-12T18:38:24Z</time>
      </trkpt>
      <trkpt lat="47.41974" lon="-0.45324">
        <ele>17</ele>
        <time>2022-04-12T18:38:30Z</time>
      </trkpt>
      <trkpt lat="47.41973" lon="-0.45362">
        <ele>17</ele>
        <time>2022-04-12T18:38:34Z</time>
      </trkpt>
      <trkpt lat="47.41976" lon="-0.4545">
        <ele>18</ele>
        <time>2022-04-12T18:38:45Z</time>
      </trkpt>
      <trkpt lat="47.41969" lon="-0.45551">
        <ele>18</ele>
        <time>2022-04-12T18:38:57Z</time>
      </trkpt>
      <trkpt lat="47.41969" lon="-0.45886">
        <ele>17</ele>
        <time>2022-04-12T18:39:37Z</time>
      </trkpt>
      <trkpt lat="47.41949" lon="-0.46083">
        <ele>18</ele>
        <time>2022-04-12T18:40:01Z</time>
      </trkpt>
      <trkpt lat="47.41937" lon="-0.46255">
        <ele>19</ele>
        <time>2022-04-12T18:40:22Z</time>
      </trkpt>
      <trkpt lat="47.41899" lon="-0.46474">
        <ele>19</ele>
        <time>2022-04-12T18:40:50Z</time>
      </trkpt>
      <trkpt lat="47.41887" lon="-0.46574">
        <ele>18</ele>
        <time>2022-04-12T18:41:02Z</time>
      </trkpt>
      <trkpt lat="47.41863" lon="-0.4704">
        <ele>19</ele>
        <time>2022-04-12T18:41:58Z</time>
      </trkpt>
      <trkpt lat="47.41844" lon="-0.47217">
        <ele>19</ele>
        <time>2022-04-12T18:42:20Z</time>
      </trkpt>
      <trkpt lat="47.41841" lon="-0.47282">
        <ele>19</ele>
        <time>2022-04-12T18:42:27Z</time>
      </trkpt>
      <trkpt lat="47.41884" lon="-0.48026">
        <ele>19</ele>
        <time>2022-04-12T18:43:57Z</time>
      </trkpt>
      <trkpt lat="47.4193" lon="-0.48471">
        <ele>21</ele>
        <time>2022-04-12T18:44:52Z</time>
      </trkpt>
      <trkpt lat="47.41954" lon="-0.48562">
        <ele>21</ele>
        <time>2022-04-12T18:45:03Z</time>
      </trkpt>
      <trkpt lat="47.42047" lon="-0.48881">
        <ele>19</ele>
        <time>2022-04-12T18:45:45Z</time>
      </trkpt>
      <trkpt lat="47.42097" lon="-0.49019">
        <ele>20</ele>
        <time>2022-04-12T18:46:04Z</time>
      </trkpt>
      <trkpt lat="47.42124" lon="-0.49101">
        <ele>21</ele>
        <time>2022-04-12T18:46:15Z</time>
      </trkpt>
      <trkpt lat="47.42128" lon="-0.49123">
        <ele>21</ele>
        <time>2022-04-12T18:46:18Z</time>
      </trkpt>
      <trkpt lat="47.42143" lon="-0.49355">
        <ele>22</ele>
        <time>2022-04-12T18:46:46Z</time>
      </trkpt>
      <trkpt lat="47.42153" lon="-0.49408">
        <ele>23</ele>
        <time>2022-04-12T18:46:52Z</time>
      </trkpt>
      <trkpt lat="47.42179" lon="-0.49476">
        <ele>22</ele>
        <time>2022-04-12T18:47:02Z</time>
      </trkpt>
      <trkpt lat="47.4219" lon="-0.49495">
        <ele>21</ele>
        <time>2022-04-12T18:47:05Z</time>
      </trkpt>
      <trkpt lat="47.42214" lon="-0.49528">
        <ele>21</ele>
        <time>2022-04-12T18:47:11Z</time>
      </trkpt>
      <trkpt lat="47.42351" lon="-0.49676">
        <ele>18</ele>
        <time>2022-04-12T18:47:41Z</time>
      </trkpt>
      <trkpt lat="47.42374" lon="-0.49713">
        <ele>18</ele>
        <time>2022-04-12T18:47:47Z</time>
      </trkpt>
      <trkpt lat="47.42402" lon="-0.49767">
        <ele>19</ele>
        <time>2022-04-12T18:47:55Z</time>
      </trkpt>
      <trkpt lat="47.4241" lon="-0.49794">
        <ele>19</ele>
        <time>2022-04-12T18:47:59Z</time>
      </trkpt>
      <trkpt lat="47.4242" lon="-0.49937">
        <ele>18</ele>
        <time>2022-04-12T18:48:16Z</time>
      </trkpt>
      <trkpt lat="47.42421" lon="-0.4997">
        <ele>17</ele>
        <time>2022-04-12T18:48:20Z</time>
      </trkpt>
      <trkpt lat="47.42419" lon="-0.5">
        <ele>17</ele>
        <time>2022-04-12T18:48:23Z</time>
      </trkpt>
      <trkpt lat="47.42408" lon="-0.50065">
        <ele>18</ele>
        <time>2022-04-12T18:48:32Z</time>
      </trkpt>
      <trkpt lat="47.42338" lon="-0.50375">
        <ele>20</ele>
        <time>2022-04-12T18:49:11Z</time>
      </trkpt>
      <trkpt lat="47.42335" lon="-0.50537">
        <ele>19</ele>
        <time>2022-04-12T18:49:30Z</time>
      </trkpt>
      <trkpt lat="47.42338" lon="-0.50574">
        <ele>20</ele>
        <time>2022-04-12T18:49:35Z</time>
      </trkpt>
      <trkpt lat="47.42381" lon="-0.50788">
        <ele>17</ele>
        <time>2022-04-12T18:50:02Z</time>
      </trkpt>
      <trkpt lat="47.42413" lon="-0.50901">
        <ele>18</ele>
        <time>2022-04-12T18:50:17Z</time>
      </trkpt>
      <trkpt lat="47.4246" lon="-0.5105">
        <ele>18</ele>
        <time>2022-04-12T18:50:36Z</time>
      </trkpt>
      <trkpt lat="47.42544" lon="-0.51222">
        <ele>19</ele>
        <time>2022-04-12T18:51:02Z</time>
      </trkpt>
      <trkpt lat="47.4259" lon="-0.51292">
        <ele>19</ele>
        <time>2022-04-12T18:51:14Z</time>
      </trkpt>
      <trkpt lat="47.42788" lon="-0.51563">
        <ele>20</ele>
        <time>2022-04-12T18:52:02Z</time>
      </trkpt>
      <trkpt lat="47.42811" lon="-0.51598">
        <ele>19</ele>
        <time>2022-04-12T18:52:07Z</time>
      </trkpt>
      <trkpt lat="47.42832" lon="-0.51642">
        <ele>19</ele>
        <time>2022-04-12T18:52:14Z</time>
      </trkpt>
      <trkpt lat="47.42848" lon="-0.51692">
        <ele>19</ele>
        <time>2022-04-12T18:52:21Z</time>
      </trkpt>
      <trkpt lat="47.42853" lon="-0.51721">
        <ele>19</ele>
        <time>2022-04-12T18:52:24Z</time>
      </trkpt>
      <trkpt lat="47.42867" lon="-0.51946">
        <ele>18</ele>
        <time>2022-04-12T18:52:51Z</time>
      </trkpt>
      <trkpt lat="47.42884" lon="-0.52165">
        <ele>19</ele>
        <time>2022-04-12T18:53:18Z</time>
      </trkpt>
      <trkpt lat="47.42885" lon="-0.5221">
        <ele>19</ele>
        <time>2022-04-12T18:53:23Z</time>
      </trkpt>
      <trkpt lat="47.4297" lon="-0.52204">
        <ele>21</ele>
        <time>2022-04-12T18:53:38Z</time>
      </trkpt>
      <trkpt lat="47.43053" lon="-0.52203">
        <ele>18</ele>
        <time>2022-04-12T18:53:53Z</time>
      </trkpt>
      <trkpt lat="47.43061" lon="-0.52734">
        <ele>18</ele>
        <time>2022-04-12T18:54:57Z</time>
      </trkpt>
      <trkpt lat="47.43035" lon="-0.52894">
        <ele>20</ele>
        <time>2022-04-12T18:55:17Z</time>
      </trkpt>
      <trkpt lat="47.4298" lon="-0.53079">
        <ele>20</ele>
        <time>2022-04-12T18:55:41Z</time>
      </trkpt>
      <trkpt lat="47.42917" lon="-0.53309">
        <ele>20</ele>
        <time>2022-04-12T18:56:11Z</time>
      </trkpt>
      <trkpt lat="47.42488" lon="-0.54803">
        <ele>19</ele>
        <time>2022-04-12T18:59:27Z</time>
      </trkpt>
      <trkpt lat="47.42469" lon="-0.54831">
        <ele>19</ele>
        <time>2022-04-12T18:59:31Z</time>
      </trkpt>
      <trkpt lat="47.42328" lon="-0.54981">
        <ele>19</ele>
        <time>2022-04-12T19:00:02Z</time>
      </trkpt>
      <trkpt lat="47.42323" lon="-0.54989">
        <ele>19</ele>
        <time>2022-04-12T19:00:04Z</time>
      </trkpt>
      <trkpt lat="47.42322" lon="-0.55006">
        <ele>19</ele>
        <time>2022-04-12T19:00:06Z</time>
      </trkpt>
      <trkpt lat="47.42342" lon="-0.55055">
        <ele>20</ele>
        <time>2022-04-12T19:00:13Z</time>
      </trkpt>
      <trkpt lat="47.42346" lon="-0.55077">
        <ele>21</ele>
        <time>2022-04-12T19:00:15Z</time>
      </trkpt>
      <trkpt lat="47.42359" lon="-0.55239">
        <ele>22</ele>
        <time>2022-04-12T19:00:35Z</time>
      </trkpt>
      <trkpt lat="47.42361" lon="-0.55306">
        <ele>23</ele>
        <time>2022-04-12T19:00:43Z</time>
      </trkpt>
      <trkpt lat="47.42368" lon="-0.55379">
        <ele>25</ele>
        <time>2022-04-12T19:00:52Z</time>
      </trkpt>
      <trkpt lat="47.42363" lon="-0.55387">
        <ele>24</ele>
        <time>2022-04-12T19:00:53Z</time>
      </trkpt>
      <trkpt lat="47.42366" lon="-0.55392">
        <ele>25</ele>
        <time>2022-04-12T19:00:54Z</time>
      </trkpt>
      <trkpt lat="47.4237" lon="-0.55392">
        <ele>25</ele>
        <time>2022-04-12T19:00:55Z</time>
      </trkpt>
      <trkpt lat="47.42373" lon="-0.55387">
        <ele>25</ele>
        <time>2022-04-12T19:00:55Z</time>
      </trkpt>
      <trkpt lat="47.42372" lon="-0.55382">
        <ele>25</ele>
        <time>2022-04-12T19:00:56Z</time>
      </trkpt>
      <trkpt lat="47.42384" lon="-0.55373">
        <ele>25</ele>
        <time>2022-04-12T19:00:58Z</time>
      </trkpt>
      <trkpt lat="47.42523" lon="-0.55702">
        <ele>28</ele>
        <time>2022-04-12T19:01:45Z</time>
      </trkpt>
      <trkpt lat="47.42515" lon="-0.55718">
        <ele>28</ele>
        <time>2022-04-12T19:01:48Z</time>
      </trkpt>
      <trkpt lat="47.42515" lon="-0.5573">
        <ele>28</ele>
        <time>2022-04-12T19:01:49Z</time>
      </trkpt>
      <trkpt lat="47.42519" lon="-0.55733">
        <ele>28</ele>
        <time>2022-04-12T19:01:50Z</time>
      </trkpt>
      <trkpt lat="47.42525" lon="-0.5573">
        <ele>28</ele>
        <time>2022-04-12T19:01:51Z</time>
      </trkpt>
      <trkpt lat="47.42535" lon="-0.55718">
        <ele>28</ele>
        <time>2022-04-12T19:01:53Z</time>
      </trkpt>
      <trkpt lat="47.42538" lon="-0.5571">
        <ele>28</ele>
        <time>2022-04-12T19:01:54Z</time>
      </trkpt>
      <trkpt lat="47.42564" lon="-0.55705">
        <ele>28</ele>
        <time>2022-04-12T19:01:59Z</time>
      </trkpt>
      <trkpt lat="47.42749" lon="-0.55655">
        <ele>26</ele>
        <time>2022-04-12T19:02:32Z</time>
      </trkpt>
      <trkpt lat="47.42772" lon="-0.55659">
        <ele>25</ele>
        <time>2022-04-12T19:02:37Z</time>
      </trkpt>
      <trkpt lat="47.42785" lon="-0.55664">
        <ele>25</ele>
        <time>2022-04-12T19:02:39Z</time>
      </trkpt>
      <trkpt lat="47.42831" lon="-0.55634">
        <ele>24</ele>
        <time>2022-04-12T19:02:48Z</time>
      </trkpt>
      <trkpt lat="47.42935" lon="-0.55603">
        <ele>25</ele>
        <time>2022-04-12T19:03:07Z</time>
      </trkpt>
      <trkpt lat="47.43292" lon="-0.55475">
        <ele>36</ele>
        <time>2022-04-12T19:04:12Z</time>
      </trkpt>
      <trkpt lat="47.43356" lon="-0.55448">
        <ele>36</ele>
        <time>2022-04-12T19:04:24Z</time>
      </trkpt>
      <trkpt lat="47.43414" lon="-0.55432">
        <ele>34</ele>
        <time>2022-04-12T19:04:34Z</time>
      </trkpt>
    </trkseg>
  </trk>
</gpx>